     2              OBSERVATION DATA    GPS                 RINEX VERSION / TYPE
ASRINEXO V2.9.7 UX USGS/MENLO_PARK 28-JAN- 0 14:55          PGM / RUN BY / DATE
                                                            COMMENT
Original Marker Name: sanh Sand_Hill_1939_1981_USC&GS       COMMENT
Campaign Name: Hector mine                                  COMMENT
4-Character Station Name: SANH                              COMMENT
6-Character Antenna Code: DMRCHT                            COMMENT
Vertical Measurement Point: BCR                             COMMENT
Vertical Offset to Rinex Ref. Point: 0.0348                 COMMENT
Radial Measurement Point: ECF                               COMMENT
Radial Offset to Rinex Ref. Point: 0.1897                   COMMENT
Antenna Height from Field Measurement: 0.6000 m             COMMENT
Additional Antenna Identification Info.:                    COMMENT
Turborogue and Ashtech Choke Ring                           COMMENT
Use optical collimator rotating.                            COMMENT
1 mm at most in azimuth 150 deg                             COMMENT
E of magnetic N (and that's a                               COMMENT
stretch)                                                    COMMENT
Original XYZ: -2336829.6390 -4732580.3859 3570353.3766      COMMENT
New XYZ position is based on association with SCEC monument COMMENT
E1F2G8K4+0012. Position of that monument is believed to be  COMMENT
valid to within 1 m horizontally; vertical accuracy         COMMENT
should be no worse than 3-times this value.                 COMMENT
                                                            COMMENT
Revised Rinex header created by UCSD GPS archive for        COMMENT
GSAC on 04-Apr-2000 (2000:095) 22:00:04 GMT                 COMMENT
For assistance contact dagnew@ucsd.edu or hjohnson@ucsd.edu COMMENT
                                                            COMMENT
SANDHILL 1939 1981                                          MARKER NAME
GDH US GEOLOGICAL SURVEY                                    OBSERVER / AGENCY
597 ASHTECH Z-XII3 CC00                                     REC # / TYPE / VERS
330 DORNE-MARGOL. TYPE T                                    ANT # / TYPE
 -2336820.0038 -4732586.6672  3570330.0290                  APPROX POSITION XYZ
        0.5344        0.0000        0.0000                  ANTENNA: DELTA H/E/N
     1     1     0                                          WAVELENGTH FACT L1/2
     5    C1    L1    L2    P1    P2                        # / TYPES OF OBSERV
    30                                                      INTERVAL
  2000     1    22     0     0   30.000000                  TIME OF FIRST OBS
  2000     1    22    23    58    0.000000                  TIME OF LAST OBS
                                                            END OF HEADER
 00  1 22  0  0 30.0000000  0  8 08 16 24 07 05 04 02 09
  23875913.209    -9095073.728 8  -6866229.92345  23875912.350    23875920.4284
  24331880.139    -8130766.878 7  -6149192.47045  24331879.270    24331887.5874
  20928253.113   -23642853.359 9 -18397288.61547  20928252.622    20928259.1194
  22762652.180   -14787041.823 8 -11507254.45546  22762651.195    22762657.9784
  22278586.442   -17644700.707 8 -13736941.64946  22278585.506    22278592.1734
  20346335.680   -26213118.174 9 -20405423.94248  20346335.465    20346340.3674
  23543197.830    -9662721.087 8  -7287257.85545  23543196.824    23543204.8294
  21220737.212   -23769405.745 9 -18244457.30147  21220736.660    21220742.1874
 00  1 22  0  1  0.0000000  0  8 08 16 24 07 05 04 02 09
  23897917.207    -8979442.225 8  -6776127.51645  23897916.306    23897924.4564
  24328773.366    -8147093.153 7  -6161914.19645  24328772.362    24328780.7694
  20916377.935   -23705257.696 9 -18445915.31247  20916377.453    20916383.9184
  22774883.072   -14722768.158 8 -11457171.07746  22774882.067    22774888.8504
  22263594.691   -17723482.717 8 -13798330.17247  22263593.765    22263600.4024
  20349787.672   -26194977.764 9 -20391288.54348  20349787.455    20349792.3534
  23558243.308    -9583656.717 8  -7225649.30345  23558242.338    23558250.2854
  21223928.057   -23752637.783 9 -18231391.34747  21223927.481    21223932.9974
 00  1 22  0  1 30.0000000  0  8 08 16 24 07 05 04 02 09
  23919932.144    -8863753.427 8  -6685980.45045  23919931.186    23919939.4124
  24325765.760    -8162898.129 7  -6174229.69745  24325764.703    24325773.1994
  20904593.544   -23767184.990 9 -18494170.28647  20904593.061    20904599.5274
  22787125.772   -14658432.319 8 -11407039.26046  22787124.762    22787131.4894
  22248630.701   -17802118.945 8 -13859605.10147  22248629.784    22248636.4074
  20353353.682   -26176238.113 9 -20376686.20548  20353353.457    20353358.3514
  23573340.336    -9504321.757 8  -7163829.90045  23573339.317    23573347.3064
  21227229.441   -23735288.828 9 -18217872.67447  21227228.885    21227234.3944
 00  1 22  0  2  0.0000000  0  8 08 16 24 07 05 04 02 09
  23941956.331    -8748015.849 8  -6595795.38545  23941955.369    23941963.6054
  24322857.637    -8178180.258 7  -6186137.76845  24322856.727    24322865.0844
  20892897.458   -23828648.273 9 -18542063.68747  20892896.968    20892903.4224
  22799377.364   -14594049.621 8 -11356870.91846  22799376.400    22799383.0514
  22233694.305   -17880609.862 8 -13920766.78747  22233693.394    22233700.0144
  20357028.775   -26156925.048 9 -20361637.04548  20357028.562    20357033.4424
  23588484.127    -9424740.773 8  -7101818.79745  23588483.143    23588491.1724
  21230634.647   -23717394.326 9 -18203928.90047  21230634.098    21230639.5954
 00  1 22  0  2 30.0000000  0  8 08 16 24 07 05 04 02 09
  23963988.474    -8632236.504 8  -6505577.76645  23963987.536    23963995.6514
  24320046.523    -8192952.317 7  -6197648.36845  24320045.573    24320054.0814
  20881287.854   -23889656.764 9 -18589602.70347  20881287.356    20881293.8234
  22811635.324   -14529633.728 8 -11306676.71346  22811634.354    22811640.9904
  22218783.770   -17958965.088 8 -13981822.73447  22218782.857    22218789.4724
  20360812.287   -26137042.674 9 -20346144.26648  20360812.073    20360816.9574
  23603673.906    -9344918.365 8  -7039619.56945  23603672.877    23603680.8714
  21234139.229   -23698977.694 9 -18189578.26547  21234138.682    21234144.1704
 00  1 22  0  3  0.0000000  0  8 08 16 24 07 05 04 02 09
  23986028.714    -8516414.892 8  -6415327.21945  23986027.738    23986035.8874
  24317327.432    -8207241.212 7  -6208782.47145  24317326.455    24317334.8634
  20869766.526   -23950201.641 9 -18636780.46247  20869766.022    20869772.4884
  22823896.455   -14465201.095 8 -11256469.45546  22823895.476    22823902.1524
  22203896.715   -18037196.970 8 -14042782.56847  22203895.803    22203902.3934
  20364701.849   -26116602.722 9 -20330217.01648  20364701.620    20364706.5084
  23618910.320    -9264850.742 8  -6977229.26345  23618909.279    23618917.3234
  21237743.654   -23680036.089 9 -18174818.56447  21237743.106    21237748.6104
 00  1 22  0  3 30.0000000  0  8 08 16 24 07 05 04 02 09
  24008074.512    -8400563.779 8  -6325053.68945  24008073.526    24008081.7004
  24314700.949    -8221043.003 7  -6219537.00545  24314700.114    24314708.4154
  20858336.664   -24010265.712 9 -18683583.56547  20858336.165    20858342.6304
  22836161.095   -14400749.938 8 -11206247.76146  22836160.095    22836166.8194
  22189031.816   -18115312.080 8 -14103651.40747  22189030.923    22189037.4884
  20368697.934   -26095603.011 9 -20313853.59048  20368697.704    20368702.5884
  23634189.177    -9184560.348 8  -6914665.36345  23634188.132    23634196.1664
  21241449.959   -23660559.442 9 -18159641.94647  21241449.411    21241454.9184
 00  1 22  0  4  0.0000000  0  8 08 16 24 07 05 04 02 09
  24030125.412    -8284685.726 8  -6234759.16245  24030124.431    24030132.6004
  24312166.433    -8234361.702 8  -6229915.12045  24312165.558    24312173.9134
  20846998.706   -24069846.725 9 -18730010.25947  20846998.204    20847004.6614
  22848434.174   -14336254.187 8 -11155991.33046  22848433.209    22848439.8814
  22174190.497   -18193303.212 8 -14164423.63347  22174189.608    22174196.1614
  20372805.613   -26074016.791 9 -20297033.14148  20372805.410    20372810.2804
  23649514.017    -9104027.956 8  -6851912.88945  23649512.992    23649520.9354
  21245260.151   -23640536.748 9 -18144039.83447  21245259.603    21245265.0884
 00  1 22  0  4 30.0000000  0  8 08 16 24 07 05 04 02 09
  24052182.923    -8168772.999 8  -6144437.60745  24052181.941    24052190.0534
  24309721.062    -8247212.202 7  -6239928.40245  24309720.161    24309728.4854
  20835753.785   -24128938.944 9 -18776056.08247  20835753.278    20835759.7244
  22860718.233   -14271700.864 8 -11105690.03646  22860717.265    22860723.9924
  22159373.946   -18271164.409 8 -14225094.60747  22159373.035    22159379.6064
  20377026.060   -26051838.282 9 -20279751.16848  20377025.839    20377030.7044
  23664891.160    -9023220.782 8  -6788946.31045  23664890.077    23664898.0784
  21249177.164   -23619952.574 9 -18128000.20547  21249176.621    21249182.1174
 00  1 22  0  5  0.0000000  0  8 08 16 24 07 05 04 02 09
  24074246.086    -8052830.703 8  -6054093.01845  24074245.067    24074253.1934
  24307365.540    -8259589.969 8  -6249573.33545  24307364.652    24307372.8674
  20824603.614   -24187533.253 9 -18821713.91647  20824603.107    20824609.5374
  22873014.121   -14207085.653 8 -11055340.51646  22873013.142    22873019.8544
  22144582.306   -18348894.819 8 -14285663.66047  22144581.375    22144587.9284
  20381356.177   -26029083.375 9 -20262020.05648  20381355.961    20381360.8404
  23680320.184    -8942140.524 8  -6725766.91045  23680319.166    23680327.1834
  21253204.485   -23598788.782 9 -18111508.92547  21253203.943    21253209.4454
 00  1 22  0  5 30.0000000  0  8 08 16 24 07 05 04 02 09
  24096313.477    -7936866.111 7  -5963731.06245  24096312.460    24096320.6314
  24305105.320    -8271467.304 8  -6258828.32345  24305104.466    24305112.5604
  20813545.883   -24245641.797 9 -18866993.23947  20813545.382    20813551.7814
  22885320.890   -14142413.164 8 -11004946.36946  22885319.903    22885326.6074
  22129814.957   -18426497.282 8 -14346133.01947  22129814.038    22129820.5484
  20385795.217   -26005756.078 9 -20243842.92548  20385794.988    20385799.8644
  23695800.392    -8860791.799 8  -6662378.33845  23695799.379    23695807.3334
  21257340.585   -23577053.308 9 -18094572.18147  21257340.040    21257345.5414
 00  1 22  0  6  0.0000000  0  8 08 16 24 07 05 04 02 09
  24118385.982    -7820874.259 7  -5873347.88145  24118384.959    24118393.1384
  24302940.894    -8282840.910 7  -6267690.80645  24302940.055    24302948.1344
  20802579.556   -24303270.017 9 -18911898.27847  20802579.054    20802585.4214
  22897636.768   -14077692.736 8 -10954514.86946  22897635.766    22897642.5194
  22115071.688   -18503973.318 8 -14406503.85447  22115070.795    22115077.2984
  20390340.139   -25981872.289 9 -20225232.16648  20390339.911    20390344.7894
  23711331.862    -8779173.544 8  -6598779.73145  23711330.977    23711338.8934
  21261583.101   -23554758.611 9 -18077199.67847  21261582.553    21261588.0684
 00  1 22  0  6 30.0000000  0  8 08 16 24 07 05 04 02 09
  24140461.045    -7704869.401 7  -5782954.55545  24140460.037    24140468.2644
  24300873.825    -8293703.507 7  -6276155.09545  24300872.985    24300880.9914
  20791705.387   -24360413.970 9 -18956425.97547  20791704.892    20791711.2144
  22909957.486   -14012947.154 8 -10904063.75946  22909956.498    22909963.2154
  22100352.167   -18581324.713 8 -14466777.56747  22100351.276    22100357.7324
  20394989.736   -25957438.512 9 -20206192.84948  20394989.503    20394994.3854
  23726908.502    -8697317.936 8  -6534996.17945  23726907.634    23726915.5694
  21265930.551   -23531912.777 9 -18059397.72247  21265930.003    21265935.5204
 00  1 22  0  7  0.0000000  0  8 08 16 24 07 05 04 02 09
  24162539.222    -7588847.862 7  -5692548.23245  24162538.223    24162546.5284
  24298908.683    -8304029.939 8  -6284201.59945  24298907.886    24298915.9894
  20780923.277   -24417074.194 9 -19000576.74447  20780922.767    20780929.0664
  22922281.554   -13948183.902 8 -10853598.88046  22922280.525    22922287.3224
  22085658.074   -18658542.278 8 -14526946.99647  22085657.178    22085663.6144
  20399745.202   -25932448.128 9 -20186719.81548  20399744.970    20399749.8294
  23742525.883    -8615248.254 8  -6471045.82145  23742524.952    23742532.9544
  21270381.887   -23508520.779 9 -18041170.18247  21270381.341    21270386.8394
 00  1 22  0  7 30.0000000  0  8 08 16 24 07 05 04 02 09
  24184620.315    -7472811.185 7  -5602130.11745  24184619.436    24184627.6464
  24297045.660    -8313820.029 7  -6291830.17245  24297044.896    24297052.8924
  20770232.342   -24473255.121 9 -19044354.03347  20770231.838    20770238.1184
  22934607.346   -13883411.680 8 -10803127.02146  22934606.283    22934613.1044
  22070992.568   -18735609.631 8 -14586999.37947  22070991.680    22070998.0934
  20404610.845   -25906878.841 9 -20166795.68448  20404610.612    20404615.4894
  23758183.644    -8532966.312 8  -6406930.06345  23758182.712    23758190.7274
  21274935.688   -23484590.234 9 -18022522.99547  21274935.129    21274940.6274
 00  1 22  0  8  0.0000000  0  8 08 16 24 07 05 04 02 09
  24206703.506    -7356763.662 7  -5511703.55045  24206702.488    24206710.8934
  24295280.094    -8323097.447 7  -6299059.28345  24295279.238    24295287.3494
  20759634.051   -24528949.359 9 -19087752.08547  20759633.545    20759639.7884
  22946935.939   -13818624.409 8 -10752643.43446  22946934.908    22946941.7154
  22056361.065   -18812498.266 8 -14646912.50047  22056360.170    22056366.5694
  20409588.199   -25880722.656 9 -20146414.23348  20409587.956    20409592.8454
  23773882.620    -8450467.745 8  -6342645.49545  23773881.684    23773889.7124
  21279593.003   -23460115.778 9 -18003451.98447  21279592.475    21279597.9764
 00  1 22  0  8 30.0000000  0  8 08 16 24 07 05 04 02 09
  24228787.418    -7240711.567 7  -5421273.43145  24228786.520    24228794.9354
  24293611.578    -8331865.376 7  -6305891.39545  24293610.743    24293618.7214
  20749128.829   -24584154.278 9 -19130768.85547  20749128.338    20749134.5584
  22959268.848   -13753814.433 8 -10702142.15546  22959267.870    22959274.6514
  22041765.751   -18889196.580 8 -14706677.33147  22041764.864    22041771.2444
  20414679.703   -25853966.542 9 -20125565.30848  20414679.472    20414684.3524
  23789626.373    -8367733.550 8  -6278177.34645  23789625.355    23789633.5374
  21284354.516   -23435093.896 9 -17983954.40947  21284353.978    21284359.4874
 00  1 22  0  9  0.0000000  0  8 08 16 24 07 05 04 02 09
  24250872.462    -7124654.123 7  -5330839.14145  24250871.521    24250879.9134
  24292036.623    -8340141.162 7  -6312340.00745  24292035.904    24292043.8494
  20738717.199   -24638867.456 9 -19173402.44247  20738716.715    20738722.9214
  22971608.117   -13688971.020 8 -10651614.80546  22971607.127    22971613.9214
  22027206.956   -18965703.150 8 -14766292.74547  22027206.073    22027212.4334
  20419883.244   -25826621.551 9 -20104257.50748  20419883.029    20419887.8924
  23805418.402    -8284746.009 8  -6213511.77445  23805417.383    23805425.5694
  21289220.698   -23409521.816 9 -17964028.10247  21289220.150    21289225.6574
 00  1 22  0  9 30.0000000  0  8 08 16 24 07 05 04 02 09
  24272956.025    -7008604.558 7  -5240410.99545  24272955.162    24272963.6454
  24290551.403    -8347945.862 8  -6318421.53945  24290550.692    24290558.6564
  20728399.485   -24693087.205 9 -19215651.54547  20728398.998    20728405.1964
  22983956.373   -13624080.612 8 -10601050.85446  22983955.378    22983962.1424
  22012684.566   -19042018.547 8 -14825759.19947  22012683.686    22012690.0314
  20425196.841   -25798698.507 9 -20082499.28048  20425196.621    20425201.4834
  23821260.569    -8201495.253 8  -6148641.09545  23821259.475    23821267.6954
  21294190.761   -23383403.795 9 -17943676.38947  21294190.219    21294195.7324
 00  1 22  0 10  0.0000000  0  8 08 16 24 07 05 04 02 09
  24295038.131    -6892562.503 7  -5149988.69645  24295037.436    24295045.7284
  24289157.838    -8355269.124 7  -6324127.92045  24289157.076    24289164.9674
  20718177.125   -24746805.994 9 -19257510.29247  20718176.625    20718182.8114
  22996316.479   -13559127.660 8 -10550438.16446  22996315.502    22996322.1834
  21998195.896   -19118156.630 8 -14885087.49947  21998194.997    21998201.3234
  20430617.284   -25770213.901 9 -20060303.47348  20430617.078    20430621.9364
  23837153.776    -8117976.185 8  -6083561.33845  23837152.792    23837160.9924
  21299261.797   -23356755.269 9 -17922911.30147  21299261.258    21299266.7654
 00  1 22  0 10 30.0000000  0  8 08 16 24 07 05 04 02 09
  24317119.251    -6776525.903 7  -5059570.65045  24317118.539    24317126.7624
  24287860.509    -8362086.718 7  -6329440.28445  24287859.685    24287867.6194
  20708050.234   -24800022.982 9 -19298978.02147  20708049.736    20708055.9124
  23008689.687   -13494105.870 8 -10499771.82746  23008688.716    23008695.3504
  21983735.750   -19194144.971 8 -14944299.12647  21983734.847    21983741.1324
  20436142.103   -25741180.832 9 -20037680.28648  20436141.883    20436146.7304
  23853097.041    -8034193.889 8  -6018276.47645  23853096.015    23853104.2834
  21304432.497   -23329583.156 9 -17901738.21647  21304431.958    21304437.4564
 00  1 22  0 11  0.0000000  0  8 08 16 24 07 05 04 02 09
  24339198.921    -6660496.917 7  -4969158.54245  24339198.114    24339206.4894
  24286659.903    -8368395.721 7  -6334356.33245  24286659.136    24286667.0594
  20698018.145   -24852741.815 9 -19340057.58147  20698017.651    20698023.8224
  23021075.300   -13429018.888 8 -10449054.70246  23021074.331    23021080.9804
  21969302.891   -19269989.990 8 -15003399.07747  21969301.989    21969308.2244
  20441768.727   -25711612.723 9 -20014640.18748  20441768.488    20441773.3574
  23869085.415    -7950174.487 8  -5952806.85545  23869084.387    23869092.7324
  21309703.475   -23301883.929 9 -17880154.39847  21309702.940    21309708.4404
 00  1 22  0 11 30.0000000  0  8 08 16 24 07 05 04 02 09
  24361275.986    -6544481.604 7  -4878757.08345  24361275.120    24361283.4534
  24285559.001    -8374180.895 7  -6338864.19645  24285558.208    24285566.0904
  20688080.014   -24904966.845 9 -19380752.35847  20688079.511    20688085.6834
  23033471.105   -13363878.443 8 -10398295.91646  23033470.170    23033476.7604
  21954896.179   -19345697.619 8 -15062391.98547  21954895.282    21954901.4924
  20447498.029   -25681505.056 9 -19991179.65248  20447497.792    20447502.6564
  23885117.284    -7865926.660 8  -5887159.24145  23885116.248    23885124.5574
  21315074.395   -23273659.714 9 -17858161.49747  21315073.851    21315079.3494
 00  1 22  0 12  0.0000000  0  8 08 16 24 07 05 04 02 09
  24383349.157    -6428486.656 7  -4788371.50845  24383348.229    24383356.5704
  24284560.321    -8379429.151 7  -6342953.69045  24284559.449    24284567.4284
  20678236.208   -24956696.361 9 -19421061.02347  20678235.705    20678241.8524
  23045874.597   -13298697.918 8 -10347505.88946  23045873.634    23045880.2574
  21940515.724   -19421267.240 9 -15121277.35347  21940514.818    21940521.0014
  20453331.853   -25650848.146 9 -19967291.14248  20453331.613    20453336.4744
  23901191.750    -7781455.013 8  -5821337.22045  23901190.750    23901199.0584
  21320548.222   -23244894.602 9 -17835747.11847  21320547.662    21320553.1524
 00  1 22  0 12 30.0000000  0  8 08 16 24 07 05 04 02 09
  24405418.259    -6312513.162 7  -4698002.65545  24405417.321    24405425.7784
  24283660.198    -8384158.950 7  -6346639.18545  24283659.233    24283667.2544
  20668484.917   -25007939.554 9 -19460990.73547  20668484.416    20668490.5464
  23058284.708   -13233482.383 8 -10296688.58246  23058283.733    23058290.3484
  21926164.356   -19496683.962 8 -15180043.58547  21926163.423    21926169.6014
  20459270.531   -25619640.084 9 -19942973.16248  20459270.302    20459275.1514
  23917307.931    -7696764.213 7  -5755344.44745  23917306.912    23917315.2604
  21326128.742   -23215568.650 9 -17812895.72547  21326128.189    21326133.6804
 00  1 22  0 13  0.0000000  0  8 08 16 24 07 05 04 02 09
  24427480.557    -6196575.529 8  -4607661.72245  24427479.628    24427488.0644
  24282855.262    -8388388.765 8  -6349935.08345  24282854.299    24282862.3134
  20658824.722   -25058704.038 9 -19500547.42747  20658824.224    20658830.3414
  23070698.521   -13168247.240 8 -10245856.00846  23070697.538    23070704.2054
  21911845.645   -19571929.148 9 -15238676.16147  21911844.726    21911850.8674
  20465315.190   -25587875.174 9 -19918221.27748  20465314.957    20465319.8164
  23933466.689    -7611849.599 7  -5689177.26045  23933465.726    23933473.9794
  21331817.346   -23185674.857 9 -17789601.85647  21331816.781    21331822.2674
 00  1 22  0 13 30.0000000  0  8 08 16 24 07 05 04 02 09
  24449534.946    -6080679.437 7  -4517353.18045  24449533.999    24449542.5674
  24282145.758    -8392116.924 7  -6352840.07745  24282144.871    24282152.8704
  20649257.942   -25108977.552 9 -19539721.54347  20649257.427    20649263.5304
  23083115.716   -13102994.707 8 -10195009.88446  23083114.733    23083121.4264
  21897560.766   -19646996.473 9 -15297170.14147  21897559.865    21897565.9714
  20471466.002   -25555552.344 9 -19893034.64848  20471465.769    20471470.6214
  23949670.470    -7526698.235 7  -5622825.59645  23949669.488    23949677.8044
  21337612.060   -23155223.218 9 -17765873.30447  21337611.509    21337616.9964
 00  1 22  0 14  0.0000000  0  8 08 16 24 07 05 04 02 09
  24471582.379    -5964819.709 8  -4427072.96845  24471581.506    24471590.0514
  24281530.230    -8395351.170 8  -6355360.20645  24281529.377    24281537.2734
  20639785.541   -25158755.146 9 -19578509.22947  20639785.034    20639791.1224
  23095536.335   -13037723.973 8 -10144149.58246  23095535.334    23095542.0084
  21883312.930   -19721869.032 9 -15355512.36047  21883312.028    21883318.1294
  20477721.277   -25522680.566 9 -19867420.26948  20477721.039    20477725.8954
  23965920.478    -7441304.003 7  -5556284.68645  23965919.559    23965927.8024
  21343510.548   -23124226.538 9 -17741720.04747  21343509.995    21343515.4864
 00  1 22  0 14 30.0000000  0  8 08 16 24 07 05 04 02 09
  24493622.729    -5848997.283 8  -4336821.81545  24493621.848    24493630.3944
  24281007.811    -8398096.467 7  -6357499.32145  24281006.939    24281014.8264
  20630407.385   -25208037.516 9 -19616911.03447  20630406.896    20630412.9514
  23107960.005   -12972437.182 8 -10093276.77246  23107959.023    23107965.7034
  21869102.268   -19796546.336 9 -15413702.43647  21869101.396    21869107.4964
  20484079.447   -25489268.049 9 -19841384.53648  20484079.207    20484084.0624
  23982216.546    -7355667.838 7  -5489555.25945  23982215.628    23982223.9404
  21349509.553   -23092701.704 9 -17717155.24147  21349509.002    21349514.5054
 00  1 22  0 15  0.0000000  0  8 08 16 24 07 05 04 02 09
  24515656.148    -5733211.012 8  -4246598.85045  24515655.295    24515663.7034
  24280582.616    -8400330.900 7  -6359240.38245  24280581.793    24280589.6054
  20621125.793   -25256812.509 9 -19654917.47347  20621125.282    20621131.3324
  23120385.485   -12907140.889 8 -10042396.54546  23120384.540    23120391.2184
  21854928.066   -19871032.238 9 -15471743.36347  21854927.169    21854933.2574
  20490540.045   -25455317.274 9 -19814929.37948  20490539.805    20490544.6634
  23998558.500    -7269790.527 7  -5422637.92145  23998557.585    23998565.9164
  21355606.605   -23060661.443 9 -17692188.80447  21355606.042    21355611.5404
 00  1 22  0 15 30.0000000  0  8 08 16 24 07 05 04 02 09
  24537685.681    -5617445.734 8  -4156392.22945  24537684.934    24537693.1594
  24280257.350    -8402039.658 7  -6360571.81545  24280256.538    24280264.3554
  20611942.798   -25305069.211 9 -19692520.05147  20611942.289    20611948.3304
  23132814.502   -12841826.277 8  -9991502.03946  23132813.537    23132820.2034
  21840788.605   -19945335.398 9 -15529641.89147  21840787.717    21840793.7794
  20497101.149   -25420838.359 9 -19788062.68748  20497100.912    20497105.7674
  24014946.144    -7183672.980 7  -5355533.39145  24014945.289    24014953.5974
  21361798.424   -23028123.130 9 -17666834.27247  21361797.885    21361803.3864
 00  1 22  0 16  0.0000000  0  8 08 16 24 07 05 04 02 09
  24559711.287    -5501700.733 8  -4066201.42545  24559710.476    24559718.8364
  24280032.644    -8403220.162 7  -6361491.63945  24280031.824    24280039.5804
  20602856.370   -25352818.488 9 -19729727.23448  20602855.860    20602861.8754
  23145248.307   -12776486.185 8  -9940587.69446  23145247.289    23145253.9874
  21826681.522   -20019468.525 9 -15587407.92947  21826680.643    21826686.6704
  20503763.949   -25385825.086 9 -19760779.61348  20503763.720    20503768.5554
  24031379.344    -7097316.179 7  -5288242.44545  24031378.473    24031386.7074
  21368086.000   -22995081.828 9 -17641087.81047  21368085.422    21368090.9454
 00  1 22  0 16 30.0000000  0  8 08 16 24 07 05 04 02 09
  24581733.283    -5385974.638 8  -3976025.35245  24581732.410    24581740.8794
  24279911.483    -8403856.689 7  -6361987.59045  24279910.608    24279918.4054
  20593867.065   -25400057.302 9 -19766536.65248  20593866.543    20593872.5464
  23157688.407   -12711112.832 8  -9889647.42946  23157687.407    23157694.0894
  21812603.596   -20093448.359 9 -15645054.50547  21812602.700    21812608.7294
  20510528.386   -25350277.751 9 -19733080.37848  20510528.147    20510533.0014
  24047856.958    -7010725.986 7  -5220769.60545  24047856.036    24047864.3264
  21374471.894   -22961523.497 9 -17614938.46047  21374471.322    21374476.8374
 00  1 22  0 17  0.0000000  0  7 16 24 07 05 04 02 09
  24279893.052    -8403953.460 8  -6362062.93845  24279892.181    24279899.9454
  20584974.160   -25446789.411 9 -19802951.23348  20584973.639    20584979.6474
  23170132.861   -12645716.786 8  -9838689.46746  23170131.881    23170138.5194
  21798551.300   -20167293.610 9 -15702596.21147  21798550.388    21798556.4414
  20517392.825   -25314204.853 9 -19704971.61348  20517392.575    20517397.4364
  24064375.762    -6923919.331 7  -5153128.11545  24064374.860    24064383.1644
  21380953.232   -22927463.837 9 -17588398.46847  21380952.674    21380958.1774
 00  1 22  0 17 30.0000000  0  7 16 24 07 05 04 02 09
  24279978.612    -8403503.364 7  -6361712.15445  24279977.792    24279985.4714
  20576181.460   -25492995.063 9 -19838955.59048  20576180.966    20576186.9414
  23182585.773   -12580276.350 8  -9787696.92846  23182584.800    23182591.4244
  21784527.807   -20240987.431 9 -15760019.92047  21784526.876    21784532.9224
  20524361.061   -25277586.672 9 -19676437.95548  20524360.811    20524365.6694
  24080938.013    -6836884.581 7  -5085308.87245  24080937.173    24080945.4304
  21387534.994   -22892876.545 9 -17561447.33247  21387534.448    21387539.9494
 00  1 22  0 18  0.0000000  0  7 16 24 07 05 04 02 09
  24280168.288    -8402506.186 7  -6360935.05645  24280167.390    24280175.1574
  20567490.051   -25538668.661 9 -19874545.36148  20567489.553    20567495.5124
  23195048.034   -12514786.933 8  -9736666.22346  23195047.063    23195053.6894
  21770538.201   -20314503.014 9 -15817304.73247  21770537.281    21770543.3104
  20531435.899   -25240407.988 9 -19647467.54148  20531435.653    20531440.5024
  24097543.274    -6749623.554 7  -5017313.30645  24097542.458    24097550.6654
  21394222.982   -22857731.129 9 -17534061.29547  21394222.428    21394227.9444
 00  1 22  0 18 30.0000000  0  7 16 24 07 05 04 02 09
  24280460.138    -8400972.183 8  -6359739.66245  24280459.258    24280466.9974
  20558900.248   -25583808.247 9 -19909719.01848  20558899.760    20558905.7084
  23207518.318   -12449255.156 8  -9685602.52746  23207517.390    23207523.9584
  21756585.595   -20387824.254 9 -15874438.10447  21756584.680    21756590.7044
  20538616.096   -25202675.755 9 -19618065.79148  20538615.842    20538620.7034
  24114191.500    -6662136.785 7  -4949141.84445  24114190.633    24114198.8934
  21401016.140   -22822032.876 9 -17506244.47547  21401015.595    21401021.0884
 00  1 22  0 19  0.0000000  0  7 16 24 07 05 04 02 09
  24280851.878    -8398913.466 7  -6358135.38245  24280850.947    24280858.8034
  20550412.039   -25628414.036 9 -19944476.73148  20550411.546    20550417.4924
  23219997.035   -12383679.502 8  -9634504.62446  23219996.072    23220002.6234
  21742672.372   -20460938.677 9 -15931410.31847  21742671.432    21742677.4494
  20545902.262   -25164386.677 9 -19588230.13848  20545902.018    20545906.8744
  24130881.020    -6574433.106 7  -4880801.36045  24130880.060    24130888.4874
  21407913.566   -22785786.532 9 -17478000.56947  21407912.990    21407918.4984
 00  1 22  0 19 30.0000000  0  7 16 24 07 05 04 02 09
  24281342.164    -8396336.713 8  -6356127.42845  24281341.228    24281349.1174
  20542023.065   -25672498.234 9 -19978828.01148  20542022.574    20542028.5074
  23232483.844   -12318060.961 8  -9583373.30846  23232482.837    23232489.4194
  21728800.890   -20533833.512 9 -15988211.42447  21728799.965    21728805.9604
  20553292.814   -25125549.058 9 -19557967.04548  20553292.572    20553297.4224
  24147611.642    -6486513.317 8  -4812292.47445  24147610.607    24147619.1324
  21414916.953   -22748983.486 9 -17449322.86947  21414916.382    21414921.8934
 00  1 22  0 20  0.0000000  0  7 16 24 07 05 04 02 09
  24281931.598    -8393238.794 8  -6353713.37745  24281930.709    24281938.5124
  20533731.152   -25716072.206 9 -20012781.71648  20533730.644    20533736.5804
  23244977.829   -12252404.732 8  -9532212.61646  23244976.818    23244983.4094
  21714970.900   -20606510.269 9 -16044842.60047  21714969.989    21714975.9734
  20560787.955   -25086161.705 9 -19527275.59348  20560787.703    20560792.5664
  24164384.706    -6398370.496 7  -4743609.78345  24164383.795    24164392.2194
  21422022.646   -22711642.833 9 -17420226.25747  21422022.083    21422027.5644
 00  1 22  0 20 30.0000000  0  7 16 24 07 05 04 02 09
  24282623.353    -8389603.444 8  -6350880.55545  24282622.481    24282630.1784
  20525538.997   -25759122.025 9 -20046326.99048  20525538.496    20525544.4284
  23257482.657   -12186691.410 8  -9481007.44846  23257481.660    23257488.2534
  21701180.891   -20678977.159 9 -16101310.23947  21701179.976    21701185.9394
  20568388.514   -25046220.504 9 -19496152.57048  20568388.291    20568393.1224
  24181201.863    -6309995.774 7  -4674746.40345  24181200.883    24181209.3954
  21429225.608   -22673790.940 9 -17390731.26947  21429225.066    21429230.5554
 00  1 22  0 21  0.0000000  0  7 16 24 07 05 04 02 09
  24283419.878    -8385417.491 7  -6347618.69445  24283418.919    24283426.6944
  20517447.770   -25801641.385 9 -20079458.91848  20517447.267    20517453.2014
  23269999.504   -12120915.129 8  -9429753.21246  23269998.525    23270005.1214
  21687431.257   -20751231.677 9 -16157612.39047  21687430.344    21687436.2994
  20576093.405   -25005731.040 9 -19464602.33148  20576093.167    20576098.0034
  24198063.284    -6221388.770 8  -4605702.02545  24198062.300    24198070.7664
  21436525.523   -22635429.670 9 -17360839.36747  21436524.972    21436530.4434
 00  1 22  0 21 30.0000000  0  7 16 24 07 05 04 02 09
  24284321.702    -8380677.852 7  -6343925.40845  24284320.814    24284328.5844
  20509456.721   -25843634.612 9 -20112180.87848  20509456.209    20509462.1274
  23282527.446   -12055080.435 8  -9378453.45846  23282526.463    23282533.1004
  21673722.980   -20823268.776 9 -16213745.12547  21673722.085    21673728.0274
  20583902.017   -24964696.429 9 -19432627.30648  20583901.781    20583906.6054
  24214971.192    -6132537.129 8  -4536466.99145  24214970.195    24214978.6294
  21443919.898   -22596571.953 9 -17330560.62247  21443919.354    21443924.8084
 00  1 22  0 22  0.0000000  0  7 16 24 07 05 04 02 09
  24285328.964    -8375384.040 8  -6339800.29245  24285328.108    24285335.8974
  20501567.994   -25885090.076 9 -20144483.80348  20501567.470    20501573.3704
  23295067.106   -11989184.105 8  -9327105.66746  23295066.111    23295072.7894
  21660055.871   -20895089.867 9 -16269709.54547  21660054.946    21660060.8874
  20591813.826   -24923119.532 9 -19400229.72248  20591813.574    20591818.3994
  24231925.769    -6043439.939 8  -4467040.63945  24231924.887    24231933.2784
  21451406.528   -22557229.559 9 -17299904.20647  21451405.971    21451411.4424
 00  1 22  0 22 30.0000000  0  7 16 24 07 05 04 02 09
  24286440.094    -8369544.998 7  -6335250.33345  24286439.158    24286447.0464
  20493781.202   -25926009.874 9 -20176369.32448  20493780.701    20493786.5844
  23307617.176   -11923232.818 8  -9275715.05746  23307616.154    23307622.9394
  21646431.972   -20966683.674 9 -16325496.86447  21646431.038    21646436.9714
  20599824.404   -24881023.755 9 -19367427.81548  20599824.159    20599828.9824
  24248924.870    -5954109.319 8  -4397432.38045  24248924.019    24248932.4354
  21458986.969   -22517394.160 9 -17268863.63047  21458986.423    21458991.8884
 00  1 22  0 23  0.0000000  0  7 16 24 07 05 04 02 09
  24287650.868    -8363182.272 8  -6330292.31345  24287649.890    24287657.6764
  20486091.963   -25966417.036 9 -20207855.38948  20486091.444    20486097.3074
  23320171.100   -11857261.104 8  -9224308.51146  23320170.102    23320176.9474
  21632851.362   -21038050.020 9 -16381106.93947  21632850.429    21632856.3524
  20607929.836   -24838429.448 9 -19334237.44148  20607929.587    20607934.3704
  24265964.373    -5864566.061 8  -4327658.42945  24265963.543    24265971.9194
  21466663.772   -22477052.232 9 -17237428.35647  21466663.208    21466668.6974
 00  1 22  0 23 30.0000000  0  7 16 24 07 05 04 02 09
  24288958.913    -8356308.366 8  -6324935.98445  24288958.024    24288965.6024
  20478500.076   -26006312.578 9 -20238942.79148  20478499.540    20478505.4094
  23332725.720   -11791286.239 8  -9172899.50546  23332724.731    23332731.5704
  21619313.271   -21109193.006 9 -16436542.96547  21619312.332    21619318.2254
  20616128.272   -24795346.378 9 -19300666.21248  20616128.032    20616132.8204
  24283040.944    -5774828.073 8  -4257732.75145  24283040.122    24283048.5764
  21474435.720   -22436210.370 9 -17205603.52147  21474435.138    21474440.6394
 00  1 22  0 24  0.0000000  0  7 16 24 07 05 04 02 09
  24290364.876    -8348919.986 8  -6319178.75745  24290363.931    24290371.5264
  20471004.809   -26045700.449 9 -20269634.60648  20471004.279    20471010.1364
  23345279.669   -11725314.849 8  -9121493.20146  23345278.680    23345285.5424
  21605816.657   -21180118.025 9 -16491809.14847  21605815.715    21605821.6014
  20624415.800   -24751795.266 9 -19266730.27548  20624415.544    20624420.3344
  24300152.985    -5684903.831 8  -4187661.93845  24300152.184    24300160.5964
  21482303.604   -22394864.306 9 -17173385.80147  21482303.021    21482308.5304
 00  1 22  0 24 30.0000000  0  7 16 24 07 05 04 02 09
  24291866.603    -8341028.155 8  -6313029.22945  24291865.652    24291873.2704
  20463604.521   -26084589.021 9 -20299937.35848  20463603.982    20463609.8214
  23357830.276   -11659360.766 8  -9070100.38446  23357829.271    23357836.1664
  21592358.722   -21250839.580 9 -16546916.78247  21592357.782    21592363.6494
  20632787.859   -24707799.711 9 -19232448.01648  20632787.618    20632792.4014
  24317299.750    -5594796.934 8  -4117448.78745  24317298.894    24317307.3414
  21490265.884   -22353021.909 9 -17140781.33047  21490265.299    21490270.8204
 00  1 22  0 25  0.0000000  0  7 16 24 07 05 04 02 09
  24293464.866    -8332628.925 7  -6306484.32345  24293463.945    24293471.5224
  20456298.678   -26122981.525 9 -20329853.56248  20456298.150    20456303.9664
  23370377.361   -11593425.428 8  -9018722.17346  23370376.355    23370383.2204
  21578936.277   -21321374.723 9 -16601879.16547  21578935.344    21578941.1874
  20641245.285   -24663355.635 9 -19197816.25948  20641245.024    20641249.8114
  24334481.903    -5504504.026 8  -4047090.70145  24334481.069    24334489.5564
  21498319.740   -22310698.505 9 -17107802.04747  21498319.163    21498324.6804
 00  1 22  0 25 30.0000000  0  7 16 24 07 05 04 02 09
  24295161.914    -8323710.480 8  -6299534.82045  24295160.990    24295168.5334
  20449087.762   -26160875.141 9 -20359381.02548  20449087.232    20449093.0434
  23382922.471   -11527500.296 8  -8967351.90346  23382921.511    23382928.3384
  21565548.596   -21391727.280 9 -16656699.27047  21565547.662    21565553.4924
  20649789.056   -24618457.887 9 -19162830.99048  20649788.809    20649793.5874
  24351703.723    -5414002.838 8  -3976570.31045  24351702.927    24351711.4514
  21506463.010   -22267905.545 9 -17074456.87847  21506462.416    21506467.9264
 00  1 22  0 26  0.0000000  0  6 16 24 07 05 04 09
  24296939.256    -8314370.323 8  -6292256.68745  24296938.280    24296945.8804
  20441950.994   -26198378.817 9 -20388604.63948  20441950.472    20441956.2654
  23395446.581   -11461685.770 8  -8916067.82746  23395445.640    23395452.3904
  21552174.896   -21462006.139 9 -16711461.94747  21552173.960    21552179.7864
  20658400.403   -24573204.922 9 -19127568.92448  20658400.147    20658404.9154
  21514676.219   -22224744.826 9 -17040825.14447  21514675.640    21514681.1484
 00  1 22  0 26 30.0000000  0  6 16 24 07 05 04 09
  24298821.621    -8304477.982 8  -6284548.28045  24298820.657    24298828.3034
  20434915.162   -26235352.280 9 -20417415.09548  20434914.633    20434920.4204
  23407975.774   -11395844.229 8  -8864762.70446  23407974.856    23407981.5904
  21538841.181   -21532075.115 9 -16766061.08247  21538840.241    21538846.0354
  20667111.471   -24527427.961 9 -19091898.54748  20667111.217    20667115.9884
  21522985.477   -22181079.617 9 -17006800.30047  21522984.888    21522990.3864
 00  1 22  0 27  0.0000000  0  6 16 24 07 05 04 09
  24300810.641    -8294025.588 8  -6276403.45445  24300809.560    24300817.2344
  20427981.588   -26271788.313 9 -20445806.77648  20427981.053    20427986.8414
  23420512.028   -11329965.884 8  -8813428.89446  23420511.097    23420517.8014
  21525551.178   -21601914.317 9 -16820481.17247  21525550.242    21525556.0244
  20675927.920   -24481097.262 9 -19055796.68548  20675927.663    20675932.4184
  21531393.372   -22136896.012 9 -16972371.51247  21531392.767    21531398.2614
 00  1 22  0 27 30.0000000  0  6 16 24 07 05 04 09
  24302904.978    -8283019.470 8  -6267827.16845  24302903.950    24302911.4994
  20421152.877   -26307673.120 9 -20473768.92848  20421152.341    20421158.1424
  23433056.856   -11264042.068 8  -8762059.65746  23433055.923    23433062.6544
  21512307.698   -21671509.013 9 -16874710.73647  21512306.760    21512312.5174
  20684849.676   -24434213.058 9 -19019263.52348  20684849.407    20684854.1644
  21539901.752   -22092183.990 9 -16937530.97147  21539901.167    21539906.6594
 00  1 22  0 28  0.0000000  0  6 16 24 07 05 04 09
  24305102.895    -8271469.127 8  -6258826.79845  24305101.888    24305109.4624
  20414429.628   -26343003.784 9 -20501299.28248  20414429.085    20414434.8744
  23445613.007   -11198058.950 8  -8710644.21945  23445612.031    23445618.6744
  21499112.236   -21740851.346 9 -16928743.66147  21499111.295    21499117.0374
  20693876.511   -24386776.815 9 -18982300.20148  20693876.228    20693880.9824
  21548509.612   -22046949.404 9 -16902283.24047  21548509.008    21548514.5034
 00  1 22  0 28 30.0000000  0  6 16 24 07 05 04 09
  24307403.588    -8259378.484 8  -6249405.42045  24307402.555    24307410.0794
  20407811.790   -26377780.658 9 -20528398.10648  20407811.246    20407817.0264
  23458182.775   -11132004.066 8  -8659172.86245  23458181.839    23458188.4884
  21485966.409   -21809932.826 9 -16982573.31747  21485965.466    21485971.2154
  20703008.201   -24338789.308 9 -18944907.32248  20703007.926    20703012.6824
  21557217.531   -22001189.051 9 -16866625.81747  21557216.919    21557222.4094
 00  1 22  0 29  0.0000000  0  6 16 24 07 05 04 09
  24309806.666    -8246749.909 8  -6239564.86145  24309805.672    24309813.2604
  20401297.990   -26412010.937 9 -20555071.01848  20401297.446    20401303.2204
  23470766.219   -11065877.628 8  -8607645.75045  23470765.217    23470771.9584
  21472870.590   -21878751.659 9 -17036198.32147  21472869.662    21472875.3784
  20712237.890   -24290286.908 9 -18907113.23848  20712237.606    20712242.3604
  21566021.914   -21954921.769 9 -16830573.39047  21566021.314    21566026.7884
 00  1 22  0 29 30.0000000  0  6 16 24 07 05 04 09
  24312311.623    -8233585.879 7  -6229307.06245  24312310.638    24312318.1614
  20394885.092   -26445710.828 9 -20581330.63548  20394884.545    20394890.3044
  23483362.155   -10999685.221 8  -8556067.22845  23483361.118    23483367.9214
  21459821.262   -21947326.120 9 -17089632.90047  21459820.316    21459826.0334
  20721561.695   -24241289.968 9 -18868933.78848  20721561.402    20721566.1474
  21574918.348   -21908170.444 9 -16794143.78547  21574917.755    21574923.2114
 00  1 22  0 30  0.0000000  0  6 16 24 07 05 04 09
  24314917.838    -8219889.730 7  -6218634.63245  24314916.844    24314924.3494
  20388569.405   -26478900.040 9 -20607192.32448  20388568.838    20388574.5884
  23495967.055   -10933445.965 8  -8504452.19845  23495966.041    23495972.8774
  21446815.950   -22015669.244 9 -17142887.22047  21446815.019    21446820.7044
  20730978.313   -24191805.236 9 -18830374.24448  20730978.033    20730982.7764
  21583905.024   -21860944.861 9 -16757344.62847  21583904.444    21583909.9034
 00  1 22  0 30 30.0000000  0  6 16 24 07 05 04 09
  24317624.463    -8205665.828 8  -6207550.98445  24317623.500    24317631.0134
  20382350.855   -26511578.512 9 -20632656.03448  20382350.303    20382356.0364
  23508576.211   -10867184.185 8  -8452819.63445  23508575.273    23508582.0604
  21433853.455   -22083787.392 9 -17195966.23147  21433852.523    21433858.1794
  20740485.666   -24141843.665 9 -18791443.13348  20740485.381    20740490.1174
  21592982.066   -21813244.679 9 -16720175.65447  21592981.480    21592986.9484
 00  1 22  0 31  0.0000000  0  6 16 24 07 05 04 09
  24320432.222    -8190910.561 8  -6196053.29345  24320431.216    24320438.6574
  20376231.508   -26543735.941 9 -20657713.73848  20376230.949    20376236.6574
  23521187.560   -10800911.305 8  -8401178.41045  23521186.551    23521193.3804
  21420935.087   -22151673.574 9 -17248864.49747  21420934.136    21420939.7814
  20750082.365   -24091412.582 9 -18752146.17648  20750082.097    20750086.8364
  21602146.993   -21765082.661 9 -16682646.81247  21602146.395    21602151.8514
 00  1 22  0 31 30.0000000  0  6 16 24 07 05 04 09
  24323341.792    -8175620.236 8  -6184138.69445  24323340.851    24323348.2144
  20370212.279   -26575366.999 9 -20682361.28348  20370211.726    20370217.4124
  23533800.138   -10734631.541 8  -8349531.82745  23533799.130    23533805.9524
  21408061.967   -22219322.093 9 -17301577.58047  21408061.018    21408066.6474
  20759769.965   -24040503.959 9 -18712477.10048  20759769.671    20759774.4234
  21611401.726   -21716448.654 9 -16644750.18247  21611401.108    21611406.5654
 00  1 22  0 32  0.0000000  0  7 16 24 07 05 04 09 30
  24326354.574    -8159787.836 8  -6171801.67345  24326353.636    24326360.9244
  20364297.802   -26606447.742 9 -20706580.01148  20364297.241    20364302.9154
  23546414.023   -10668345.276 8  -8297880.18145  23546413.028    23546419.8334
  21395238.860   -22286707.771 9 -17354085.85047  21395237.905    21395243.5094
  20769548.802   -23989115.815 9 -18672434.36747  20769548.501    20769553.2594
  21620748.353   -21667331.666 9 -16606477.20747  21620747.768    21620753.1954
  24560233.715    -3090595.345 7  -1869664.08645  24560233.445    24560241.8304
 00  1 22  0 32 30.0000000  0  7 16 24 07 05 04 09 30
  24329480.472    -8143360.842 8  -6159001.37045  24329479.632    24329486.7414
  20358498.400   -26636923.630 9 -20730327.42248  20358497.845    20358503.5174
  23559038.132   -10602005.196 8  -8246186.60545  23559037.109    23559043.9004
  21382476.085   -22353776.494 9 -17406347.14147  21382475.121    21382480.7194
  20779425.652   -23937212.468 9 -18631990.17447  20779425.363    20779430.1044
  21630191.887   -21617705.938 9 -16567807.80747  21630191.290    21630196.7174
  24541203.566    -3190598.317 7  -1947588.25845  24541203.319    24541211.7624
 00  1 22  0 33  0.0000000  0  7 16 24 07 05 04 09 30
  24332711.999    -8126378.889 7  -6145768.62145  24332711.204    24332718.1794
  20352804.221   -26666846.587 9 -20753643.97948  20352803.667    20352809.3284
  23571664.230   -10535654.512 8  -8194484.75245  23571663.217    23571669.8834
  21369763.169   -22420583.023 9 -17458404.12747  21369762.221    21369767.7964
  20789390.298   -23884847.800 9 -18591186.50847  20789390.005    20789394.7374
  21639720.047   -21567635.214 9 -16528791.65947  21639719.424    21639724.8774
  24522168.161    -3290629.144 8  -2025534.17645  24522167.887    24522176.3664
 00  1 22  0 33 30.0000000  0  7 16 24 07 05 04 09 30
  24336050.458    -8108835.009 7  -6132097.99945  24336049.653    24336056.6694
  20347216.204   -26696211.673 9 -20776525.83348  20347215.666    20347221.3114
  23584294.804   -10469280.007 8  -8142764.34445  23584293.793    23584300.4864
  21357100.001   -22487128.279 9 -17510257.52547  21357099.038    21357104.6104
  20799444.607   -23832012.012 9 -18550015.74047  20799444.314    20799449.0454
  21649335.972   -21517103.235 9 -16489416.09147  21649335.347    21649340.8084
  24503130.870    -3390670.149 8  -2103488.05045  24503130.656    24503138.9714
 00  1 22  0 34  0.0000000  0  7 16 24 07 05 04 09 30
  24339497.381    -8090720.753 7  -6117982.92345  24339496.588    24339503.6004
  20341734.841   -26725016.426 9 -20798971.06548  20341734.280    20341739.9414
  23596932.611   -10402868.171 8  -8091014.83845  23596931.574    23596938.2644
  21344485.965   -22553415.242 9 -17561909.65547  21344485.001    21344490.5504
  20809589.246   -23778701.501 9 -18508475.05647  20809588.951    20809593.6784
  21659038.798   -21466114.548 9 -16449684.64147  21659038.160    21659043.6414
  24484092.212    -3490718.319 8  -2181447.53345  24484092.016    24484100.2784
 00  1 22  0 34 30.0000000  0  7 16 24 07 05 04 09 30
  24343051.343    -8072044.430 7  -6103429.86145  24343050.537    24343057.4884
  20336356.927   -26753277.308 9 -20820992.50048  20336356.364    20336362.0174
  23609580.172   -10336404.752 8  -8039225.14345  23609579.049    23609585.8284
  21331919.237   -22619453.676 9 -17613368.12647  21331918.280    21331923.8124
  20819826.197   -23724905.896 9 -18466556.38047  20819825.904    20819830.6354
  21668828.483   -21414669.447 9 -16409597.54747  21668827.843    21668833.3134
  24465053.862    -3590764.880 8  -2259405.78845  24465053.646    24465061.9054
 00  1 22  0 35  0.0000000  0  7 16 24 07 05 04 09 30
  24346706.627    -8052835.304 8  -6088461.62845  24346705.747    24346712.8014
  20331079.185   -26781011.912 9 -20842603.85248  20331078.627    20331084.2894
  23622236.797   -10269893.609 8  -7987398.26445  23622235.667    23622242.4974
  21319397.312   -22685256.613 9 -17664643.10047  21319396.359    21319401.8664
  20830153.606   -23670634.975 9 -18424267.32847  20830153.305    20830158.0164
  21678705.811   -21362763.541 9 -16369151.38047  21678705.205    21678710.6814
  24446017.708    -3690799.811 8  -2337354.99245  24446017.465    24446025.7594
 00  1 22  0 35 30.0000000  0  7 16 24 07 05 04 09 30
  24350459.696    -8033112.266 8  -6073092.95245  24350458.808    24350465.9044
  20325898.650   -26808235.714 9 -20863817.17248  20325898.104    20325903.7444
  23634901.851   -10203338.110 8  -7935536.82245  23634900.708    23634907.5234
  21306923.004   -22750809.431 9 -17715723.17447  21306922.065    21306927.5454
  20840570.810   -23615892.005 9 -18381610.44947  20840570.513    20840575.2404
  21688668.825   -21310407.578 9 -16328354.52247  21688668.217    21688673.6834
  24426980.589    -3790840.217 8  -2415308.46745  24426980.373    24426988.5294
 00  1 22  0 36  0.0000000  0  7 16 24 07 05 04 09 30
  24354312.100    -8012867.474 8  -6057317.71345  24354311.261    24354318.2224
  20320817.895   -26834935.348 9 -20884622.05248  20320817.331    20320822.9824
  23647575.701   -10136736.410 8  -7883639.38245  23647574.585    23647581.3994
  21294499.388   -22816095.892 9 -17766595.69347  21294498.445    21294503.9224
  20851079.205   -23560669.968 9 -18338580.27547  20851078.908    20851083.6214
  21698716.795   -21257605.308 9 -16287209.88847  21698716.172    21698721.6524
  24407944.982    -3890872.829 8  -2493255.88545  24407944.801    24407952.9284
 00  1 22  0 36 30.0000000  0  7 16 24 07 05 04 09 30
  24358262.603    -7992107.190 8  -6041140.79545  24358261.757    24358268.7524
  20315838.307   -26861102.988 9 -20905012.38948  20315837.738    20315843.3754
  23660256.579   -10070097.620 8  -7831713.03945  23660255.526    23660262.3244
  21282128.353   -22881105.843 9 -17817252.75347  21282127.380    21282132.8524
  20861677.108   -23504977.442 9 -18295183.49747  20861676.812    20861681.5284
  21708851.966   -21204344.508 9 -16245707.95547  21708851.335    21708856.8074
  24388912.511    -3990888.655 8  -2571190.21845  24388912.357    24388920.3744
 00  1 22  0 37  0.0000000  0  7 16 24 07 05 04 09 30
  24362313.203    -7970820.885 7  -6024553.97945  24362312.292    24362319.3244
  20310962.878   -26886723.286 9 -20924976.22548  20310962.323    20310967.9534
  23672941.558   -10003437.246 8  -7779769.88745  23672940.564    23672947.3554
  21269811.475   -22945831.356 9 -17867688.16947  21269810.497    21269815.9574
  20872360.782   -23448834.153 9 -18251435.47947  20872360.486    20872365.2044
  21719075.180   -21150621.167 9 -16203845.60247  21719074.578    21719080.0464
  24369882.001    -4090894.141 7  -2649116.49845  24369881.912    24369889.8204
 00  1 22  0 37 30.0000000  0  7 16 24 07 05 04 09 30
  24366465.868    -7948998.123 8  -6007549.16445  24366464.928    24366472.1114
  20306193.746   -26911785.277 9 -20944505.01748  20306193.185    20306198.7904
  23685631.278    -9936752.482 8  -7727807.73245  23685630.289    23685637.0524
  21257546.563   -23010283.557 9 -17917910.61247  21257545.588    21257551.0424
  20883129.287   -23392245.221 9 -18207340.20547  20883128.981    20883133.6994
  21729386.880   -21096432.924 9 -16161620.98947  21729386.279    21729391.7334
  24350851.586    -4190899.435 7  -2727042.61345  24350851.477    24350859.4484
 00  1 22  0 38  0.0000000  0  7 16 24 07 05 04 09 30
  24370716.894    -7926658.617 8  -5990141.69045  24370715.875    24370723.0244
  20301528.904   -26936298.950 9 -20963606.54648  20301528.354    20301533.9344
  23698323.017    -9870057.109 8  -7675837.29045  23698322.053    23698328.6734
  21245326.955   -23074497.872 9 -17967947.69147  21245325.987    21245331.4344
  20893977.675   -23335236.599 9 -18162917.89647  20893977.371    20893982.0864
  21739789.656   -21041765.896 9 -16119023.29247  21739789.057    21739794.5084
  24331821.591    -4290902.197 8  -2804966.76545  24331821.451    24331829.4014
 00  1 22  0 38 30.0000000  0  7 16 24 07 05 04 09 30
  24375063.482    -7903817.146 7  -5972343.07745  24375062.326    24375069.5294
  20296962.423   -26960295.949 9 -20982305.47348  20296961.856    20296967.4224
  23711014.849    -9803361.034 8  -7623866.31345  23711013.906    23711020.5934
  21233149.861   -23138488.852 9 -18017810.74547  21233148.887    21233154.3174
  20904904.034   -23277818.117 9 -18118176.21447  20904903.726    20904908.4384
  21750280.492   -20986636.211 9 -16076065.08747  21750279.885    21750285.3334
  24312789.335    -4390916.953 7  -2882900.26545  24312789.047    24312797.1514
 00  1 22  0 39  0.0000000  0  7 16 24 07 05 04 09 30
  24379506.134    -7880469.891 7  -5954150.34945  24379505.050    24379512.2484
  20292490.200   -26983797.628 9 -21000618.43848  20292489.632    20292495.1794
  23723708.130    -9736657.356 8  -7571889.42945  23723707.229    23723713.8924
  21221014.436   -23202260.552 9 -18067502.92947  21221013.468    21221018.8854
  20915908.825   -23219987.615 9 -18073113.48047  20915908.518    20915913.2214
  21760853.189   -20931076.164 9 -16032771.53347  21760852.565    21760858.0144
  24293754.487    -4490945.184 7  -2960844.25845  24293754.215    24293762.2414
 00  1 22  0 39 30.0000000  0  7 16 24 07 05 04 09 30
  24384045.803    -7856613.725 8  -5935561.06445  24384044.787    24384051.8934
  20288110.640   -27006812.124 9 -21018551.77848  20288110.074    20288115.6214
  23736404.432    -9669937.938 8  -7519900.25545  23736403.460    23736410.1864
  21208921.872   -23265807.330 9 -18117019.85047  21208920.900    21208926.3104
  20926993.418   -23161737.644 9 -18027723.88847  20926993.104    20926997.8274
  21771505.077   -20875100.027 9 -15989153.75547  21771504.461    21771509.9294
  24274719.253    -4590975.638 7  -3038789.97445  24274718.932    24274727.0224
 00  1 22  0 40  0.0000000  0  7 16 24 07 05 04 09 30
  24388685.381    -7832232.476 8  -5916562.62545  24388684.335    24388691.4164
  20283822.206   -27029348.021 9 -21036112.18548  20283821.623    20283827.1644
  23749102.543    -9603208.796 8  -7467903.51345  23749101.610    23749108.1934
  21196878.373   -23329096.203 9 -18166335.80247  21196877.387    21196882.7864
  20938159.099   -23103061.452 9 -17982002.17547  20938158.794    20938163.5074
  21782232.927   -20818724.796 9 -15945224.99247  21782232.304    21782237.7664
  24255685.113    -4691000.247 7  -3116731.11245  24255684.839    24255692.9044
 00  1 22  0 40 30.0000000  0  7 16 24 07 05 04 09 30
  24393432.107    -7807288.038 8  -5897125.32945  24393431.069    24393437.9914
  20279629.232   -27051382.098 9 -21053281.56548  20279628.655    20279634.1864
  23761804.837    -9536457.922 8  -7415889.83345  23761803.915    23761810.4524
  21184890.752   -23392091.226 9 -18215422.78047  21184889.766    21184895.1664
  20949408.976   -23043942.729 9 -17935935.63047  20949408.676    20949413.3794
  21793034.499   -20761962.049 9 -15900994.26847  21793033.867    21793039.3444
  24236653.982    -4791009.150 7  -3194659.97345  24236653.614    24236661.7194
 00  1 22  0 41  0.0000000  0  7 16 24 07 05 04 09 30
  24398287.506    -7781772.786 8  -5877243.24345  24398286.428    24398293.2834
  20275537.333   -27072884.913 9 -21070036.97548  20275536.768    20275542.2914
  23774511.462    -9469684.338 8  -7363858.45645  23774510.529    23774517.0024
  21172961.553   -23454779.380 9 -18264270.64447  21172960.584    21172965.9494
  20960741.637   -22984389.065 9 -17889530.16647  20960741.341    20960746.0314
  21803914.212   -20704788.814 9 -15856443.68447  21803913.585    21803919.0754
  24217627.236    -4890994.877 8  -3272570.72145  24217626.856    24217634.8834
 00  1 22  0 41 30.0000000  0  7 16 24 07 05 04 09 30
  24403248.052    -7755704.598 8  -5856930.28145  24403247.024    24403253.8644
  20271550.152   -27093837.538 9 -21086363.66148  20271549.588    20271555.1064
  23787220.643    -9402896.908 8  -7311816.28045  23787219.651    23787226.1554
  21161089.860   -23517165.256 9 -18312882.96247  21161088.893    21161094.2634
  20972157.289   -22924399.512 9 -17842785.04347  20972156.988    20972161.6724
  21814876.121   -20647183.560 9 -15811556.46247  21814875.496    21814880.9734
  24198605.271    -4990955.360 8  -3350461.75445  24198604.974    24198612.9014
 00  1 22  0 42  0.0000000  0  7 16 24 07 05 04 09 30
  24408312.291    -7729091.670 8  -5836192.85745  24408311.317    24408318.0394
  20267668.145   -27114237.455 9 -21102259.67048  20267667.576    20267673.0984
  23799933.225    -9336091.384 8  -7259760.00245  23799932.240    23799938.7594
  21149275.513   -23579249.864 9 -18361260.53347  21149274.542    21149279.8934
  20983657.569   -22863964.876 9 -17795693.10847  20983657.266    20983661.9544
  21825922.544   -20589134.333 9 -15766323.29547  21825921.899    21825927.3684
  24179589.560    -5090882.901 8  -3428327.07145  24179589.189    24179597.2054
 00  1 22  0 42 30.0000000  0  7 16 24 07 05 04 09 30
  24413475.690    -7701957.606 8  -5815049.34345  24413474.693    24413481.4534
  20263892.187   -27134080.193 9 -21117721.51248  20263891.610    20263897.1194
  23812649.751    -9269265.581 8  -7207687.91245  23812648.816    23812655.3354
  21137515.708   -23641047.845 9 -18409414.75547  21137514.723    21137520.0634
  20995241.499   -22803090.992 9 -17748258.89947  20995241.197    20995245.8754
  21837053.946   -20530638.181 9 -15720741.87147  21837053.322    21837058.7844
  24160581.678    -5190769.125 8  -3506160.17345  24160581.298    24160589.3204
 00  1 22  0 43  0.0000000  0  7 16 24 07 05 04 09 30
  24418734.265    -7674323.111 8  -5793515.87845  24418733.203    24418740.0744
  20260220.820   -27153373.280 9 -21132755.05648  20260220.241    20260225.7444
  23825369.822    -9202421.160 8  -7155601.31645  23825368.841    23825375.3184
  21125809.479   -23702564.159 9 -18457349.49947  21125808.507    21125813.8364
  21006908.505   -22741780.395 9 -17700484.39647  21006908.190    21006912.8854
  21848269.733   -20471698.810 9 -15674815.07847  21848269.108    21848274.5734
  24141582.828    -5290607.708 8  -3583956.15045  24141582.470    24141590.4474
 00  1 22  0 43 30.0000000  0  7 16 24 07 05 04 09 30
  24424090.900    -7646173.022 8  -5771580.66245  24424089.895    24424096.8304
  20256651.194   -27172131.637 9 -21147371.92948  20256650.623    20256656.1164
  23838095.808    -9135545.762 8  -7103490.57845  23838094.791    23838101.2924
  21114159.193   -23763786.657 9 -18505055.29747  21114158.203    21114163.5274
  21018659.413   -22680028.997 9 -17652366.41647  21018659.105    21018663.7934
  21859567.430   -20412329.006 9 -15628552.88947  21859566.807    21859572.2714
  24122592.756    -5390400.361 7  -3661716.34645  24122592.407    24122600.3224
 00  1 22  0 44  0.0000000  0  7 16 24 07 05 04 09 30
  24429550.517    -7617482.135 8  -5749224.03445  24429549.515    24429556.3304
  20253180.409   -27190370.579 9 -21161584.06348  20253179.835    20253185.3304
  23850827.777    -9068638.893 8  -7051355.31845  23850826.636    23850833.2214
  21102567.010   -23824703.908 9 -18552523.23847  21102566.018    21102571.3314
  21030491.297   -22617852.152 9 -17603916.91347  21030490.984    21030495.6734
  21870945.167   -20352538.407 9 -15581962.80647  21870944.540    21870950.0024
  24103610.582    -5490151.191 7  -3739443.96445  24103610.268    24103618.1524
 00  1 22  0 44 30.0000000  0  8 16 24 07 05 04 09 10 30
  24435116.516    -7588232.170 8  -5726431.75645  24435115.642    24435122.2934
  20249809.910   -27208082.659 9 -21175385.66248  20249809.339    20249814.8324
  23863566.453    -9001696.579 8  -6999192.41445  23863565.358    23863571.9384
  21091034.284   -23885308.574 9 -18599747.61047  21091033.301    21091038.5904
  21042403.120   -22555255.063 9 -17555139.95347  21042402.828    21042407.4894
  21882403.618   -20292323.639 9 -15535042.20947  21882402.988    21882408.4684
  24592146.778    -6528623.018 8  -4836952.50645  24592145.372    24592153.8644
  24084636.536    -5589859.043 7  -3817138.12045  24084636.304    24084644.0194
 00  1 22  0 45  0.0000000  0  8 16 24 07 05 04 09 10 30
  24440798.215    -7558374.223 8  -5703165.71845  24440797.268    24440803.9224
  20246545.850   -27225235.249 9 -21188751.28848  20246545.268    20246550.7394
  23876316.472    -8934694.539 8  -6946982.97545  23876315.350    23876321.9154
  21079566.489   -23945572.133 9 -18646706.17847  21079565.500    21079570.7894
  21054400.103   -22492210.509 9 -17506014.31347  21054399.802    21054404.4554
  21893948.182   -20231656.660 9 -15487769.23647  21893947.546    21893953.0154
  24573290.086    -6627714.528 8  -4914166.50145  24573288.807    24573297.3064
  24065673.729    -5689508.302 7  -3894786.63845  24065673.542    24065681.1534
 00  1 22  0 45 30.0000000  0  8 16 24 07 05 04 09 10 30
  24446581.697    -7527981.704 8  -5679483.15045  24446580.734    24446587.3534
  20243375.603   -27241894.922 9 -21201732.82148  20243375.023    20243380.4914
  23889064.911    -8867700.463 8  -6894779.74145  23889063.815    23889070.3464
  21068150.766   -24005561.949 9 -18693451.44047  21068149.784    21068155.0634
  21066467.221   -22428797.295 9 -17456601.40947  21066466.898    21066471.5694
  21905566.693   -20170600.969 9 -15440193.36847  21905566.062    21905571.5334
  24554416.019    -6726897.821 8  -4991452.01345  24554414.772    24554423.0744
  24046707.304    -5789176.621 7  -3972450.04245  24046707.091    24046714.5924
 00  1 22  0 46  0.0000000  0  8 16 24 07 05 04 09 10 30
  24452462.878    -7497075.806 8  -5655400.54245  24452461.973    24452468.4614
  20240302.360   -27258044.815 9 -21214317.13148  20240301.781    20240307.2424
  23901812.789    -8800709.539 8  -6842578.94845  23901811.661    23901818.3914
  21056787.461   -24065276.328 9 -18739982.07447  21056786.490    21056791.7664
  21078605.845   -22365008.403 9 -17406895.77247  21078605.535    21078610.1844
  21917259.775   -20109153.288 9 -15392312.06347  21917259.147    21917264.5944
  24535526.361    -6826163.063 8  -5068801.38845  24535525.080    24535533.4204
  24027740.691    -5888845.950 8  -4050114.27645  24027740.452    24027747.9764
 00  1 22  0 46 30.0000000  0  8 16 24 07 05 04 09 10 30
  24458440.669    -7465662.042 8  -5630922.23245  24458439.635    24458446.3164
  20237331.024   -27273659.087 9 -21226484.07248  20237330.448    20237335.8924
  23914562.433    -8733709.600 8  -6790371.13445  23914561.235    23914568.0074
  21045478.933   -24124702.867 9 -18786288.42147  21045477.949    21045483.2214
  21090817.730   -22300834.589 9 -17356890.19947  21090817.391    21090822.0494
  21929027.042   -20047316.032 9 -15344127.19347  21929026.401    21929031.8514
  24516621.978    -6925505.595 8  -5146210.98645  24516620.667    24516628.9884
  24008775.777    -5988506.157 8  -4127771.40745  24008775.631    24008782.9814
 00  1 22  0 47  0.0000000  0  8 16 24 07 05 04 09 10 30
  24464513.974    -7433746.246 8  -5606052.69245  24464512.880    24464519.5494
  20234464.927   -27288720.411 9 -21238220.14248  20234464.362    20234469.7964
  23927317.331    -8666682.015 8  -6738141.77245  23927316.153    23927322.8834
  21034230.470   -24183813.684 9 -18832348.74547  21034229.496    21034234.7554
  21103104.919   -22236264.817 9 -17306576.08647  21103104.585    21103109.2284
  21940869.087   -19985085.764 9 -15295636.07647  21940868.443    21940873.9014
  24497703.758    -7024920.906 8  -5223677.30245  24497702.364    24497710.7294
  23989816.607    -6088136.559 8  -4205405.32645  23989816.466    23989823.6764
 00  1 22  0 47 30.0000000  0  8 16 24 07 05 04 09 10 30
  24470680.414    -7401340.879 8  -5580801.69345  24470679.292    24470685.9504
  20231702.967   -27303234.636 9 -21249529.90048  20231702.394    20231707.8354
  23940081.376    -8599606.548 8  -6685875.09445  23940080.138    23940086.9044
  21023045.021   -24242593.433 9 -18878151.09347  21023044.049    21023049.3004
  21115469.701   -22171287.370 9 -17255944.30047  21115469.375    21115474.0404
  21952787.272   -19922455.304 9 -15246833.12647  21952786.612    21952792.0824
  24478771.103    -7124412.039 8  -5301202.69345  24478769.740    24478778.0844
  23970868.870    -6187706.837 8  -4282992.40145  23970868.643    23970875.9074
 00  1 22  0 48  0.0000000  0  8 16 24 07 05 04 09 10 30
  24476943.867    -7368425.920 8  -5555153.59545  24476942.816    24476949.4194
  20229043.550   -27317209.918 9 -21260419.70348  20229042.975    20229048.3934
  23952855.053    -8532480.337 8  -6633568.88445  23952853.754    23952860.5124
  21011922.668   -24301041.574 9 -18923695.04147  21011921.689    21011926.9344
  21127914.851   -22105887.575 9 -17204983.41247  21127914.529    21127919.2074
  21964780.435   -19859430.746 9 -15197723.09147  21964779.809    21964785.2554
  24459822.615    -7223986.050 8  -5378792.65145  24459821.288    24459829.6074
  23951936.169    -6287198.224 8  -4360518.00045  23951935.970    23951943.2194
 00  1 22  0 48 30.0000000  0  8 16 24 07 05 04 09 10 30
  24483307.212    -7334985.859 8  -5529096.33345  24483306.180    24483312.6344
  20226485.671   -27330651.648 9 -21270893.74948  20226485.096    20226490.5134
  23965636.902    -8465311.073 8  -6581229.11045  23965635.675    23965642.2954
  21000863.351   -24359158.326 9 -18968980.77147  21000862.386    21000867.6144
  21140438.876   -22040073.323 9 -17153699.57347  21140438.539    21140443.2234
  21976847.530   -19796017.693 9 -15148310.33147  21976846.905    21976852.3444
  24440859.154    -7323639.016 7  -5456444.14445  24440857.917    24440866.0724
  23933017.870    -6386613.896 8  -4437984.60645  23933017.677    23933024.8574
 00  1 22  0 49  0.0000000  0  8 16 24 07 05 04 09 10 30
  24489768.758    -7301029.864 8  -5502637.03745  24489767.756    24489774.1394
  20224025.608   -27343579.297 9 -21280967.21248  20224025.029    20224030.4294
  23978426.718    -8398099.743 8  -6528856.56345  23978425.581    23978432.1264
  20989865.741   -24416951.074 9 -19014014.01947  20989864.749    20989869.9864
  21153041.915   -21973843.742 9 -17102092.09547  21153041.594    21153046.2644
  21988988.611   -19732215.773 9 -15098594.55447  21988987.970    21988993.4314
  24421881.778    -7423364.941 7  -5534152.50345  24421880.564    24421888.7254
  23914115.749    -6485944.578 8  -4515384.98745  23914115.553    23914122.6444
 00  1 22  0 49 30.0000000  0  8 16 24 07 05 04 09 10 30
  24496331.091    -7266544.445 8  -5475765.18545  24496330.143    24496336.4744
  20221661.840   -27356000.752 9 -21290646.23648  20221661.255    20221666.6574
  23991221.379    -8330863.088 8  -6476464.28345  23991220.284    23991226.8284
  20978926.226   -24474438.408 9 -19058809.28547  20978925.222    20978930.4524
  21165720.003   -21907220.042 9 -17050177.50547  21165719.677    21165724.3534
  22001203.301   -19668026.962 9 -15048577.30847  22001202.684    22001208.1534
  24402890.431    -7523164.249 7  -5611918.04045  24402889.312    24402897.3754
  23895225.797    -6585211.436 8  -4592735.63145  23895225.570    23895232.6584
 00  1 22  0 50  0.0000000  0  8 16 24 07 05 04 09 10 30
  24502997.921    -7231509.894 8  -5448465.44745  24502996.988    24503003.2094
  20219395.270   -27367911.479 9 -21299927.29148  20219394.684    20219400.0844
  24004018.431    -8263613.708 8  -6424062.10045  24004017.305    24004023.9344
  20968043.512   -24531627.174 9 -19103371.90347  20968042.506    20968047.7224
  21178469.640   -21840220.049 9 -16997969.69347  21178469.311    21178473.9814
  22013489.615   -19603462.032 9 -14998266.98647  22013488.989    22013494.4534
  24383887.798    -7623022.806 7  -5689729.75545  24383886.607    24383894.7624
  23876343.227    -6684439.254 8  -4670055.86145  23876343.022    23876349.9844
 00  1 22  0 50 30.0000000  0  8 16 24 07 05 04 09 10 30
  24509767.411    -7195935.764 8  -5420745.22845  24509766.422    24509772.7554
  20217228.231   -27379299.242 9 -21308800.84348  20217227.645    20217233.0264
  24016817.082    -8196355.873 8  -6371653.32245  24016816.095    24016822.5834
  20957217.939   -24588515.786 9 -19147700.63048  20957216.941    20957222.1504
  21191289.477   -21772851.220 9 -16945474.47147  21191289.146    21191293.8134
  22025848.077   -19538517.906 9 -14947661.18447  22025847.433    22025852.9184
  24364875.678    -7722931.402 7  -5767580.47845  24364874.489    24364882.5934
  23857465.607    -6783641.410 8  -4747356.09245  23857465.430    23857472.3304
 00  1 22  0 51  0.0000000  0  8 16 24 07 05 04 09 10 30
  24516639.450    -7159822.592 8  -5392605.02445  24516638.444    24516644.7144
  20215160.380   -27390165.808 9 -21317268.26448  20215159.776    20215165.1744
  24029617.048    -8129090.740 8  -6319238.86045  24029615.984    24029622.5074
  20946448.961   -24645106.874 9 -19191797.52548  20946447.956    20946453.1524
  21204179.404   -21705114.142 9 -16892692.29947  21204179.082    21204183.7274
  22038280.847   -19473183.405 9 -14896751.19647  22038280.196    22038285.6714
  24345854.227    -7822889.283 7  -5845469.63145  24345853.037    24345861.1254
  23838593.317    -6882815.337 8  -4824634.33645  23838593.116    23838599.9594
 00  1 22  0 51 30.0000000  0  8 16 24 07 05 04 09 10 30
  24523615.729    -7123161.514 8  -5364037.86045  24523614.705    24523621.0194
  20213192.828   -27400505.096 9 -21325324.82048  20213192.228    20213197.6204
  24042416.785    -8061827.587 8  -6266825.93345  24042415.682    24042422.1714
  20935737.382   -24701396.405 9 -19235659.43548  20935736.381    20935741.5704
  21217140.567   -21637002.802 9 -16839618.49347  21217140.249    21217144.8574
  22050788.161   -19407457.067 9 -14845535.88047  22050787.507    22050792.9644
  24326822.911    -7922898.935 7  -5923399.13245  24326821.613    24326829.7194
  23819725.573    -6981965.379 8  -4901893.96645  23819725.267    23819732.1454
 00  1 22  0 52  0.0000000  0  8 16 24 07 05 04 09 10 30
  24530691.266    -7085978.952 8  -5335064.37745  24530690.217    24530696.5944
  20211324.829   -27410321.137 9 -21332973.65348  20211324.231    20211329.6354
  24055215.984    -7994566.918 8  -6214414.93545  24055214.802    24055221.3484
  20925085.564   -24757371.782 9 -19279276.55648  20925084.565    20925089.7404
  21230178.231   -21568489.453 9 -16786231.43147  21230177.914    21230182.5224
  22063368.942   -19341344.709 9 -14794019.77247  22063368.288    22063373.7454
  24307781.513    -8022961.872 7  -6001370.18845  24307780.254    24307788.2534
  23800865.634    -7081074.297 8  -4979121.55245  23800865.274    23800872.2064
 00  1 22  0 52 30.0000000  0  8 16 24 07 05 04 09 10 30
  24537861.961    -7048295.964 8  -5305700.96045  24537860.962    24537867.3604
  20209557.259   -27419609.644 9 -21340211.42148  20209556.665    20209562.0564
  24068016.123    -7927301.531 8  -6162000.26445  24068014.960    24068021.4384
  20914496.347   -24813018.256 9 -19322637.38948  20914495.346    20914500.5034
  21243291.306   -21499579.638 9 -16732535.43247  21243290.966    21243295.5824
  22076023.908   -19274842.465 9 -14742199.85347  22076023.267    22076028.7184
  24288731.382    -8123070.409 7  -6079376.77845  24288730.033    24288738.0724
  23782017.717    -7180120.049 8  -5056299.92745  23782017.462    23782024.2644
 00  1 22  0 53  0.0000000  0  8 16 24 07 05 04 09 10 30
  24545126.995    -7010117.812 8  -5275951.70445  24545125.983    24545132.2844
  20207889.269   -27428374.935 9 -21347041.48648  20207888.670    20207894.0544
  24080819.137    -7860021.145 7  -6109573.90645  24080818.017    24080824.4164
  20903971.571   -24868326.152 9 -19365734.39648  20903970.573    20903975.7144
  21256477.424   -21430285.871 9 -16678540.24547  21256477.097    21256481.7154
  22088751.662   -19207957.672 9 -14690081.84347  22088751.036    22088756.4824
  24269674.048    -8223217.281 7  -6157413.27345  24269672.745    24269680.7864
  23763183.008    -7279096.604 8  -5133424.37845  23763182.641    23763189.5204
 00  1 22  0 53 30.0000000  0  8 16 24 07 05 04 09 10 30
  24552485.157    -6971450.173 8  -5245821.02645  24552484.209    24552490.4194
  20206322.328   -27436609.163 9 -21353457.74248  20206321.745    20206327.1064
  24093627.821    -7792710.643 7  -6057124.10345  24093626.729    24093633.1154
  20893514.166   -24923279.773 9 -19408555.35048  20893513.182    20893518.2944
  21269735.843   -21360612.300 9 -16624249.10547  21269735.518    21269740.1204
  22101549.567   -19140704.306 9 -14637676.64147  22101548.936    22101554.3754
  24250608.135    -8323409.077 7  -6235484.76945  24250606.814    24250614.7874
  23744362.014    -7378000.996 8  -5210492.59845  23744361.661    23744368.4154
 00  1 22  0 54  0.0000000  0  8 16 24 07 05 04 09 10 30
  24559937.108    -6932289.880 8  -5215306.48045  24559936.080    24559942.2994
  20204857.469   -27444306.999 9 -21359456.02748  20204856.869    20204862.2304
  24106445.748    -7725351.650 8  -6004636.50445  24106444.626    24106450.9704
  20883126.572   -24977866.775 9 -19451090.62648  20883125.593    20883130.6884
  21283062.972   -21290577.625 9 -16569676.58947  21283062.642    21283067.2434
  22114416.825   -19073086.084 9 -14584987.13347  22114416.198    22114421.6534
  24231534.433    -8423641.557 7  -6313587.97145  24231533.069    24231541.1694
  23725555.444    -7476829.741 8  -5287501.88945  23725555.151    23725561.8154
 00  1 22  0 54 30.0000000  0  8 16 24 07 05 04 09 10 30
  24567487.715    -6892611.254 8  -5184388.00345  24567486.613    24567492.9184
  20203496.725   -27451457.545 9 -21365027.85448  20203496.131    20203501.4674
  24119276.651    -7657924.603 8  -5952095.88345  24119275.553    24119281.8524
  20872808.321   -25032089.380 9 -19493341.95748  20872807.326    20872812.4104
  21296455.236   -21220200.644 9 -16514837.34247  21296454.901    21296459.4864
  22127352.767   -19005107.179 9 -14532016.56847  22127352.143    22127357.5894
  24212454.319    -8523907.870 7  -6391717.52945  24212452.987    24212460.9704
  23706762.905    -7575584.803 8  -5364453.75345  23706762.541    23706769.1544
 00  1 22  0 55  0.0000000  0  7 24 07 05 04 09 10 30
  20202240.285   -27458060.234 9 -21370172.78048  20202239.691    20202245.0004
  24132119.839    -7590433.002 8  -5899504.95745  24132118.782    24132125.0684
  20862557.716   -25085956.632 9 -19535316.39348  20862556.723    20862561.7784
  21309917.532   -21149455.668 9 -16459711.34947  21309917.191    21309921.7904
  22140355.670   -18936776.290 9 -14478771.73647  22140355.021    22140360.4904
  24193364.640    -8624224.410 7  -6469886.21745  24193363.323    24193371.4494
  23687984.887    -7674263.361 8  -5441345.99645  23687984.590    23687991.1424
 00  1 22  0 55 30.0000000  0  7 24 07 05 04 09 10 30
  20201087.770   -27464116.689 9 -21374892.06948  20201087.168    20201092.4654
  24144974.674    -7522880.073 7  -5846866.24745  24144973.542    24144979.9244
  20852374.223   -25139471.008 9 -19577015.86348  20852373.222    20852378.2814
  21323453.778   -21078321.966 9 -16404282.45847  21323453.440    21323458.0334
  22153425.267   -18868095.290 9 -14425254.08747  22153424.623    22153430.1064
  24174266.910    -8724583.346 7  -6548087.92745  24174265.575    24174273.6884
  23669222.371    -7772860.529 8  -5518174.82745  23669222.029    23669228.6774
 00  1 22  0 56  0.0000000  0  7 24 07 05 04 09 10 30
  20200038.532   -27469630.340 9 -21379188.39148  20200037.945    20200043.2274
  24157840.437    -7455269.451 7  -5794182.60345  24157839.306    24157845.6984
  20842255.536   -25192644.694 9 -19618449.86048  20842254.547    20842259.5874
  21337064.028   -21006799.214 9 -16348550.40447  21337063.708    21337068.3074
  22166561.922   -18799061.874 9 -14371461.82647  22166561.279    22166566.7394
  24155164.588    -8824966.295 7  -6626308.31245  24155163.338    24155171.3654
  23650475.988    -7871372.766 8  -5594937.47445  23650475.697    23650482.2834
 00  1 22  0 56 30.0000000  0  7 24 07 05 04 09 10 30
  20199089.939   -27474615.165 9 -21383072.64548  20199089.332    20199094.6084
  24170715.002    -7387613.065 8  -5741463.28545  24170713.833    24170720.2074
  20832198.692   -25245493.791 9 -19659630.93548  20832197.690    20832202.7164
  21350748.633   -20934886.119 9 -16292514.19247  21350748.285    21350752.8974
  22179766.451   -18729671.708 9 -14317391.58047  22179765.798    22179771.2734
  24136059.445    -8925364.344 7  -6704540.45645  24136058.254    24136066.3284
  23631747.291    -7969791.888 8  -5671627.55445  23631747.002    23631753.6294
 00  1 22  0 57  0.0000000  0  7 24 07 05 04 09 10 30
  20198237.186   -27479096.290 9 -21386564.40348  20198236.592    20198241.8704
  24183591.929    -7319943.918 7  -5688734.01345  24183590.769    24183597.0544
  20822202.635   -25298023.188 9 -19700562.89648  20822201.620    20822206.6354
  21364504.421   -20862598.810 9 -16236186.38447  21364504.072    21364508.6714
  22193039.349   -18659922.340 9 -14263041.43347  22193038.699    22193044.1564
  24116950.678    -9025781.294 7  -6782787.28945  24116949.433    24116957.6774
  23613035.751    -8068121.162 8  -5748247.62945  23613035.506    23613042.1014
 00  1 22  0 57 30.0000000  0  7 24 07 05 04 09 10 30
  20197479.198   -27483079.255 9 -21389667.97948  20197478.607    20197483.8924
  24196471.130    -7252262.779 7  -5635995.41145  24196469.962    24196476.3414
  20812267.504   -25350232.552 9 -19741245.47848  20812266.508    20812271.4954
  21378324.800   -20789971.957 9 -16179593.99847  21378324.464    21378329.0534
  22206381.101   -18589811.054 8 -14208409.27247  22206380.453    22206385.8934
  24097839.009    -9126213.427 7  -6861045.93845  24097837.754    24097846.0434
  23594337.240    -8166381.956 8  -5824814.34045  23594336.981    23594343.5414
 00  1 22  0 58  0.0000000  0  8 24 07 05 04 06 09 10 30
  20196820.771   -27486539.075 9 -21392363.90948  20196820.172    20196825.4704
  24209353.539    -7184565.389 7  -5583244.14745  24209352.374    24209358.6364
  20802396.160   -25402106.589 9 -19781666.76748  20802395.161    20802400.1394
  21392210.437   -20717002.308 9 -16122734.50447  21392210.101    21392214.6924
  24859940.847    -5596521.731 8  -4344545.26545  24859940.162    24859949.3914
  22219795.642   -18519317.326 9 -14153479.10147  22219794.976    22219800.4304
  24078727.394    -9226645.467 8  -6939304.50345  24078726.095    24078734.3414
  23575656.914    -8264547.223 8  -5901306.61545  23575656.643    23575663.2444
 00  1 22  0 58 30.0000000  0  8 24 07 05 04 06 09 10 30
  20196258.397   -27489494.284 9 -21394666.63948  20196257.792    20196263.0864
  24222234.217    -7116876.921 7  -5530499.82845  24222233.107    24222239.4884
  20792586.598   -25453656.022 9 -19821835.12048  20792585.583    20792590.5614
  21406158.328   -20643705.521 9 -16065620.10447  21406157.975    21406162.5824
  24846438.659    -5667475.215 8  -4399833.44245  24846438.089    24846447.1504
  22233278.381   -18448465.124 8 -14098269.59947  22233277.692    22233283.1634
  24059613.030    -9327091.578 8  -7017574.00145  24059611.838    24059619.9444
  23556990.161    -8362641.195 8  -5977743.35145  23556989.945    23556996.4444
 00  1 22  0 59  0.0000000  0  8 24 07 05 04 06 09 10 30
  20195794.007   -27491934.538 9 -21396568.10148  20195793.413    20195798.6994
  24235114.218    -7049191.742 7  -5477758.08645  24235113.051    24235119.3654
  20782841.744   -25504865.350 9 -19861738.45748  20782840.749    20782845.6944
  21420167.195   -20570088.352 9 -16008256.05347  21420166.837    21420171.4134
  24832948.464    -5738365.857 8  -4455072.64745  24832947.848    24832956.8514
  22246825.180   -18377276.234 9 -14042797.73947  22246824.514    22246829.9874
  24040495.720    -9427553.323 8  -7095855.68445  24040494.432    24040502.5014
  23538333.443    -8460682.295 8  -6054138.88045  23538333.201    23538339.5874
 00  1 22  0 59 30.0000000  0  8 24 07 05 04 06 09 10 30
  20195431.690   -27493838.243 9 -21398051.47548  20195431.104    20195436.3864
  24247999.353    -6981479.725 7  -5424995.43245  24247998.150    24248004.5124
  20773164.995   -25555717.010 9 -19901363.08648  20773163.978    20773168.9254
  21434239.557   -20496137.374 9 -15950631.88747  21434239.205    21434243.7454
  24819473.487    -5809176.340 8  -4510249.39645  24819472.807    24819481.8444
  22260433.147   -18305765.826 8 -13987075.34447  22260432.493    22260437.9364
  24021377.775    -9528018.031 8  -7174139.66245  24021376.527    24021384.5944
  23519688.653    -8558660.937 8  -6130485.75845  23519688.428    23519694.7404
 00  1 22  1  0  0.0000000  0  8 24 07 05 04 06 09 10 30
  20195171.200   -27495207.071 9 -21399118.05948  20195170.594    20195175.8714
  24260888.584    -6913746.099 7  -5372215.92345  24260887.347    24260893.8004
  20763559.890   -25606191.905 9 -19940694.13348  20763558.877    20763563.8094
  21448376.443   -20421847.505 9 -15892743.65047  21448376.108    21448380.6424
  24806014.212    -5879904.026 8  -4565361.62945  24806013.594    24806022.6854
  22274100.688   -18233942.413 9 -13931109.04347  22274100.041    22274105.4904
  24002261.928    -9628472.039 8  -7252415.30345  24002260.701    24002268.6014
  23501058.622    -8656561.769 8  -6206771.97845  23501058.346    23501064.6744
 00  1 22  1  0 30.0000000  0  8 24 07 05 04 06 09 10 30
  20195010.381   -27496052.089 9 -21399776.48048  20195009.786    20195015.0504
  24273786.881    -6845964.378 7  -5319398.95645  24273785.658    24273792.1504
  20754031.030   -25656266.408 9 -19979713.18848  20754030.004    20754034.9284
  21462576.609   -20347225.147 9 -15834596.33047  21462576.268    21462580.8024
  24792567.440    -5950566.285 8  -4620422.89545  24792566.944    24792575.8984
  22287827.715   -18161806.460 9 -13874899.21547  22287827.068    22287832.5154
  23983148.768    -9728911.446 8  -7330679.57045  23983147.483    23983155.3344
  23482444.623    -8754378.656 8  -6282992.78745  23482444.312    23482450.6014
 00  1 22  1  1  0.0000000  0  8 24 07 05 04 06 09 10 30
  20194949.599   -27496371.242 9 -21400025.14048  20194948.998    20194954.2564
  24286693.798    -6778137.686 7  -5266546.93545  24286692.682    24286699.1434
  20744580.961   -25705926.620 9 -20018409.41748  20744579.946    20744584.8474
  21476839.550   -20272272.742 9 -15776191.83947  21476839.224    21476843.7394
  24779125.916    -6021201.072 8  -4675462.78245  24779125.369    24779134.2714
  22301614.522   -18089356.373 8 -13818444.60147  22301613.854    22301619.3274
  23964036.715    -9829345.273 8  -7408939.49445  23964035.504    23964043.2824
  23463850.703    -8852089.830 8  -6359131.22545  23463850.405    23463856.6384
 00  1 22  1  1 30.0000000  0  8 24 07 05 04 06 09 10 30
  20194987.570   -27496171.725 9 -21399869.63748  20194986.961    20194992.2024
  24299606.206    -6710282.241 7  -5213672.52445  24299605.193    24299611.4624
  20735208.053   -25755181.475 9 -20056789.77948  20735207.035    20735211.9194
  21491168.007   -20196976.232 9 -15717519.20747  21491167.664    21491172.1644
  24765686.327    -6091825.384 8  -4730494.52445  24765685.883    24765694.7264
  22315465.711   -18016567.845 9 -13761726.25947  22315465.035    22315470.4944
  23944927.034    -9929766.626 8  -7487189.71045  23944925.863    23944933.4544
  23445282.387    -8949666.461 8  -6435164.80545  23445282.089    23445288.2404
 00  1 22  1  2  0.0000000  0  8 24 07 05 04 06 09 10 30
  20195120.788   -27495471.546 9 -21399324.01048  20195120.179    20195125.3984
  24312521.333    -6642412.538 7  -5160786.97845  24312520.313    24312526.5804
  20725909.676   -25804044.587 9 -20094864.88348  20725908.672    20725913.5324
  21505560.322   -20121344.109 9 -15658585.06147  21505559.981    21505564.4734
  24752247.840    -6162444.277 8  -4785522.04745  24752247.326    24752256.2054
  22329385.100   -17943420.947 9 -13704728.67147  22329384.449    22329389.9034
  23925820.184   -10030172.925 8  -7565428.21945  23925819.070    23925826.5784
  23426741.183    -9047100.403 8  -6511087.19245  23426740.865    23426747.0474
 00  1 22  1  2 30.0000000  0  8 24 07 05 04 06 09 10 30
  20195346.549   -27494284.887 9 -21398399.30848  20195345.933    20195351.1264
  24325440.149    -6574523.419 7  -5107886.32645  24325439.179    24325445.3364
  20716680.231   -25852545.473 9 -20132657.73648  20716679.211    20716684.0704
  21520013.955   -20045389.784 9 -15599399.84447  21520013.595    21520018.0854
  24738811.527    -6233051.799 8  -4840540.74445  24738810.978    24738819.7534
  22343371.413   -17869922.525 8 -13647457.17047  22343370.756    22343376.1884
  23906714.780   -10130571.714 8  -7643660.88745  23906713.597    23906721.2074
  23408226.000    -9144397.845 8  -6586903.20545  23408225.703    23408231.8384
 00  1 22  1  3  0.0000000  0  8 24 07 05 04 06 09 10 30
  20195665.550   -27492608.245 9 -21397092.80248  20195664.942    20195670.1234
  24338359.250    -6506632.938 7  -5054984.58645  24338358.226    24338364.3944
  20707515.558   -25900705.998 9 -20170185.36548  20707514.526    20707519.3744
  21534528.650   -19969114.442 9 -15539964.48647  21534528.296    21534532.7594
  24725381.349    -6303627.043 8  -4895534.28545  24725380.775    24725389.5654
  22357421.534   -17796088.406 8 -13589924.08447  22357420.850    22357426.2874
  23887610.609   -10230964.177 8  -7721888.66045  23887609.432    23887616.9564
  23389732.435    -9241581.631 8  -6662630.65645  23389732.146    23389738.1634
 00  1 22  1  3 30.0000000  0  8 24 07 05 04 06 09 10 30
  20196076.703   -27490447.584 9 -21395409.13348  20196076.127    20196081.3044
  24351279.946    -6438734.268 7  -5002076.47545  24351278.821    24351285.1074
  20698414.349   -25948532.690 9 -20207452.86748  20698413.327    20698418.1674
  21549100.442   -19892539.038 9 -15480295.30947  21549100.108    21549104.5484
  24711961.017    -6374150.901 7  -4950487.79745  24711960.507    24711969.0654
  22371533.132   -17721931.317 8 -13532139.33247  22371532.460    22371537.9114
  23868510.909   -10331332.939 8  -7800097.96745  23868509.736    23868517.1684
  23371258.004    -9338664.584 8  -6738279.52145  23371257.715    23371263.7214
 00  1 22  1  4  0.0000000  0  8 24 07 05 04 06 09 10 30
  20196581.416   -27487795.244 9 -21393342.34548  20196580.808    20196585.9894
  24364205.526    -6370809.501 7  -4949148.03845  24364204.363    24364210.6884
  20689379.369   -25996011.690 9 -20244449.44048  20689378.341    20689383.1694
  21563726.094   -19815680.642 9 -15420405.62247  21563725.743    21563730.1834
  24698551.500    -6444617.429 7  -5005396.64745  24698550.890    24698559.4844
  22385698.275   -17647492.912 8 -13474135.37647  22385697.624    22385703.0824
  23849415.142   -10431681.107 8  -7878291.26845  23849413.935    23849421.4064
  23352799.788    -9435662.512 8  -6813862.12746  23352799.514    23352805.5144
 00  1 22  1  4 30.0000000  0  8 24 07 05 04 06 09 10 30
  20197185.034   -27484623.106 9 -21390870.51748  20197184.430    20197189.5954
  24377135.950    -6302859.731 7  -4896200.12345  24377134.700    24377141.1044
  20680415.208   -26043118.477 9 -20281155.97548  20680414.177    20680418.9894
  21578407.726   -19738527.951 9 -15360286.61547  21578407.360    21578411.8044
  24685153.230    -6515025.296 7  -5060259.77845  24685152.594    24685161.1524
  22399912.776   -17572795.155 8 -13415929.32947  22399912.123    22399917.5864
  23830321.964   -10532016.034 8  -7956474.24345  23830320.743    23830328.1654
  23334356.639    -9532581.088 8  -6889382.89446  23334356.402    23334362.3644
 00  1 22  1  5  0.0000000  0  8 24 07 05 04 06 09 10 30
  20197890.050   -27480918.097 9 -21387983.46448  20197889.432    20197894.6024
  24390070.250    -6234889.556 7  -4843236.29245  24390069.176    24390075.3174
  20671528.538   -26089818.089 9 -20317545.23248  20671527.499    20671532.3094
  21593148.959   -19661062.109 9 -15299923.59547  21593148.594    21593153.0124
  24671765.878    -6585375.624 7  -5115078.08145  24671765.283    24671773.7294
  22414179.566   -17497822.692 8 -13357509.22347  22414178.907    22414184.3834
  23811235.130   -10632317.428 8  -8034631.12045  23811233.885    23811241.3374
  23315933.015    -9629397.170 8  -6964823.79846  23315932.766    23315938.7094
 00  1 22  1  5 30.0000000  0  8 24 07 05 04 06 09 10 30
  20198696.362   -27476680.587 9 -21384681.47448  20198695.754    20198700.9304
  24403011.082    -6166885.012 8  -4790245.69045  24403009.988    24403016.0954
  20662721.750   -26136097.827 9 -20353607.31248  20662720.726    20662725.5244
  21607949.660   -19583283.699 9 -15239317.01047  21607949.288    21607953.7024
  24658387.499    -6655679.113 7  -5169859.88345  24658387.004    24658395.4234
  22428501.963   -17422557.940 8 -13298861.35447  22428501.302    22428506.8074
  23792155.769   -10732579.730 8  -8112757.55645  23792154.514    23792161.9354
  23297534.739    -9726079.991 8  -7040160.86946  23297534.503    23297540.4024
 00  1 22  1  6  0.0000000  0  8 24 07 05 04 06 09 10 30
  20199603.703   -27471912.236 9 -21380965.84348  20199603.086    20199608.2674
  24415960.746    -6098833.887 7  -4737218.78645  24415959.653    24415965.6314
  20653994.756   -26181958.345 9 -20389342.73148  20653993.728    20653998.5104
  21622811.834   -19505182.190 9 -15178458.66147  21622811.479    21622815.8854
  24645018.277    -6725934.124 7  -5224603.93245  24645017.859    24645026.1954
  22442884.060   -17346979.347 8 -13239968.94147  22442883.395    22442888.9064
  23773082.129   -10832812.421 8  -8190860.92545  23773080.868    23773088.2354
  23279161.709    -9822630.305 8  -7115394.70346  23279161.492    23279167.2614
 00  1 22  1  6 30.0000000  0  8 24 07 05 04 06 09 10 30
  20200608.681   -27466630.790 9 -21376850.39848  20200608.080    20200613.2624
  24428917.643    -6030744.941 7  -4684162.41145  24428916.563    24428922.4994
  20645345.172   -26227412.154 9 -20424761.23748  20645344.146    20645348.9104
  21637735.045   -19426760.111 9 -15117350.51647  21637734.678    21637739.0784
  24631656.974    -6796147.606 7  -5279315.61845  24631656.520    24631664.8474
  22457332.462   -17271052.499 8 -13180805.15747  22457331.803    22457337.3304
  23754014.822   -10933011.508 8  -8268938.10345  23754013.499    23754020.9344
  23260814.363    -9919045.564 8  -7190523.28746  23260814.124    23260819.8404
 00  1 22  1  7  0.0000000  0  8 24 07 05 04 06 09 10 30
  20201705.380   -27460867.617 9 -21372359.58348  20201704.771    20201709.9574
  24441885.339    -5962598.680 7  -4631061.38645  24441884.316    24441890.2854
  20636768.635   -26272481.851 9 -20459880.43548  20636767.613    20636772.3574
  21652716.767   -19348030.437 9 -15056002.68747  21652716.397    21652720.8144
  24618301.529    -6866330.265 7  -5334003.29545  24618301.055    24618309.3374
  22471846.826   -17194779.020 8 -13121371.27847  22471846.165    22471851.6484
  23734955.599   -11033168.124 8  -8346982.18445  23734954.293    23734961.7264
  23242492.899   -10015324.836 8  -7265545.92746  23242492.598    23242498.3184
 00  1 22  1  7 30.0000000  0  8 24 07 05 04 06 09 10 30
  20202893.016   -27454626.425 9 -21367496.28848  20202892.409    20202897.5744
  24454863.229    -5894398.747 7  -4577918.53745  24454862.271    24454868.2614
  20628260.835   -26317190.448 9 -20494718.25948  20628259.813    20628264.5434
  21667754.241   -19269007.690 9 -14994426.48547  21667753.876    21667758.2924
  24604950.279    -6936491.001 7  -5388673.86745  24604949.868    24604958.1164
  22486420.750   -17118192.576 8 -13061693.52447  22486420.075    22486425.5654
  23715899.921   -11133305.929 8  -8425011.58345  23715898.605    23715906.0864
  23224191.987   -10111495.988 8  -7340484.31046  23224191.737    23224197.3774
 00  1 22  1  8  0.0000000  0  8 24 07 05 04 06 09 10 30
  20204171.252   -27447909.093 9 -21362261.97748  20204170.644    20204175.7944
  24467847.508    -5826165.754 7  -4524749.93045  24467846.303    24467852.5554
  20619821.990   -26361536.644 9 -20529273.69248  20619820.975    20619825.6944
  21682849.463   -19189681.637 9 -14932613.94247  21682849.116    21682853.5214
  24591604.473    -7006623.268 7  -5443322.24345  24591604.027    24591612.3354
  22501050.716   -17041311.438 8 -13001786.14647  22501050.047    22501055.5244
  23696849.142   -11233418.066 8  -8503020.94245  23696847.814    23696855.2134
  23205908.831   -10207573.841 8  -7415350.00346  23205908.564    23205914.2364
 00  1 22  1  8 30.0000000  0  8 24 07 05 04 06 09 10 30
  20205540.225   -27440714.975 9 -21356656.14148  20205539.616    20205544.7574
  24480835.688    -5757911.815 7  -4471564.99845  24480834.611    24480840.7964
  20611453.919   -26405511.072 9 -20563539.43348  20611452.898    20611457.6044
  21698003.794   -19110044.990 9 -14870559.37247  21698003.455    21698007.8694
  24578264.532    -7076724.765 7  -5497946.61245  24578263.922    24578272.3224
  22515730.620   -16964168.036 8 -12941674.40147  22515729.965    22515735.4294
  23677805.120   -11333494.885 8  -8581002.75245  23677803.757    23677811.1564
  23187645.673   -10303546.629 8  -7490133.83246  23187645.427    23187651.0204
 00  1 22  1  9  0.0000000  0  8 24 07 05 04 06 09 10 30
  20207000.727   -27433039.850 9 -21350675.50148  20207000.105    20207005.2374
  24493828.050    -5689635.878 7  -4418362.94045  24493827.026    24493833.1834
  20603159.715   -26449097.043 9 -20597502.48148  20603158.690    20603163.3894
  21713214.331   -19030112.768 9 -14808274.48447  21713213.965    21713218.3784
  24564932.401    -7146784.814 7  -5552538.65245  24564931.802    24564940.0544
  22530455.701   -16886787.130 8 -12881377.59147  22530455.031    22530460.5304
  23658767.573   -11433537.427 8  -8658957.81845  23658766.247    23658773.6344
  23169403.628   -10399408.388 8  -7564831.17146  23169403.366    23169408.9444
 00  1 22  1  9 30.0000000  0  8 24 07 05 04 06 09 10 30
  20208556.381   -27424864.776 9 -21344305.28848  20208555.748    20208560.8754
  24506820.811    -5621358.429 8  -4365159.69845  24506819.842    24506825.9314
  20594942.937   -26492276.256 9 -20631148.57848  20594941.928    20594946.6174
  21728480.602   -18949887.696 9 -14745761.40347  21728480.256    21728484.6424
  24551611.592    -7216785.033 7  -5607084.02945  24551611.044    24551619.3294
  22545228.008   -16809157.981 8 -12820887.34447  22545227.354    22545232.8444
  23639738.569   -11533534.892 8  -8736877.73245  23639737.251    23639744.6384
  23151184.206   -10495151.669 8  -7639436.18946  23151183.949    23151189.4924
 00  1 22  1 10  0.0000000  0  8 24 07 05 04 06 09 10 30
  20210206.574   -27416192.811 9 -21337547.88348  20210205.956    20210211.0694
  24519815.862    -5553068.881 8  -4311947.02245  24519814.746    24519820.8374
  20586805.364   -26535039.357 9 -20664470.42748  20586804.342    20586809.0274
  21743801.747   -18869374.411 9 -14683023.73347  21743801.360    21743805.7804
  24538302.291    -7286725.174 7  -5661582.57245  24538301.708    24538309.9404
  22560049.940   -16731268.284 8 -12760194.07047  22560049.283    22560054.7744
  23620722.410   -11633464.946 8  -8814745.08745  23620721.055    23620728.5114
  23132990.128   -10590761.611 8  -7713937.30046  23132989.895    23132995.3344
 00  1 22  1 10 30.0000000  0  8 24 07 05 04 06 09 10 30
  20211952.464   -27407018.223 9 -21330398.82448  20211951.847    20211956.9454
  24532816.819    -5484748.531 8  -4258710.34945  24532815.725    24532821.7484
  20578746.923   -26577386.574 9 -20697468.21048  20578745.911    20578750.5744
  21759174.371   -18788590.478 9 -14620075.16947  21759174.007    21759178.4184
  24525002.855    -7356613.078 7  -5716040.40145  24525002.345    24525010.5354
  22574922.855   -16653110.339 8 -12699291.77747  22574922.236    22574927.7124
  23601719.034   -11733327.615 8  -8892559.92745  23601717.751    23601725.0954
  23114824.527   -10686222.010 8  -7788321.91446  23114824.240    23114829.7064
 00  1 22  1 11  0.0000000  0  8 24 07 05 04 06 09 10 30
  20213795.669   -27397331.997 9 -21322851.09148  20213795.051    20213800.1384
  24545824.834    -5416391.239 8  -4205444.89445  24545823.680    24545829.7144
  20570766.749   -26619322.500 9 -20730145.51248  20570765.725    20570770.3804
  21774596.944   -18707544.323 9 -14556922.28247  21774596.560    21774600.9654
  24511709.822    -7426467.736 7  -5770472.31845  24511709.177    24511717.4144
  22589850.323   -16574666.056 8 -12638166.36847  22589849.692    22589855.1594
  23582730.047   -11833114.599 8  -8970315.77345  23582728.747    23582736.1474
  23096686.304   -10781538.245 8  -7862594.17846  23096686.007    23096691.4384
 00  1 22  1 11 30.0000000  0  8 24 07 05 04 06 09 10 30
  20215736.052   -27387135.043 9 -21314905.38148  20215735.428    20215740.5144
  24558840.470    -5347993.747 8  -4152148.10345  24558839.369    24558845.1944
  20562862.492   -26660859.387 9 -20762511.87448  20562861.477    20562866.1204
  21790073.926   -18626211.920 9 -14493546.33947  21790073.556    21790077.9484
  24498419.041    -7496310.394 7  -5824894.88545  24498418.408    24498426.5914
  22604834.091   -16495925.812 8 -12576810.33747  22604833.430    22604838.9394
  23563757.465   -11932815.450 8  -9048004.50745  23563756.151    23563763.4914
  23078576.626   -10876704.722 8  -7936749.75746  23078576.354    23078581.7304
 00  1 22  1 12  0.0000000  0  8 24 07 05 04 06 09 10 30
  20217771.526   -27376438.337 9 -21306570.25148  20217770.908    20217775.9964
  24571867.446    -5279536.424 8  -4098804.70445  24571866.291    24571872.2994
  20555033.513   -26702000.894 9 -20794570.14548  20555032.497    20555037.1284
  21805602.843   -18544606.669 9 -14429957.78847  21805602.515    21805606.8734
  24485128.423    -7566152.123 7  -5879316.74345  24485127.919    24485136.0574
  22619872.808   -16416896.783 8 -12515229.27447  22619872.129    22619877.6314
  23544801.397   -12032429.182 8  -9125625.36345  23544800.095    23544807.4384
  23060495.614   -10971720.451 8  -8010787.86646  23060495.332    23060500.7214
 00  1 22  1 12 30.0000000  0  8 24 07 05 04 06 09 10 30
  20219901.263   -27365246.278 9 -21297849.13048  20219900.634    20219905.7384
  24584904.243    -5211027.447 8  -4045421.05845  24584903.126    24584908.8214
  20547280.026   -26742745.388 9 -20826319.05848  20547279.015    20547283.6374
  21821183.006   -18462732.264 9 -14366159.51247  21821182.660    21821187.0034
  24471838.894    -7635988.166 7  -5933734.20745  24471838.219    24471846.3924
  22634966.249   -16337580.034 8 -12453424.02446  22634965.599    22634971.0724
  23525860.994   -12131961.064 8  -9203182.43845  23525859.667    23525866.9874
  23042443.252   -11066585.766 8  -8084708.77546  23042442.999    23042448.3104
 00  1 22  1 13  0.0000000  0  7 24 05 04 06 09 10 30
  20222121.714   -27353577.547 9 -21288756.57448  20222121.077    20222126.1814
  20539601.408   -26783096.637 9 -20857761.54948  20539600.401    20539605.0144
  21836812.756   -18380597.217 9 -14302158.14747  21836812.409    21836816.7404
  24458549.291    -7705824.416 7  -5988151.83945  24458548.649    24458556.7924
  22650112.423   -16257986.534 8 -12391403.11446  22650111.754    22650117.2444
  23506936.757   -12231407.785 8  -9280673.17045  23506935.418    23506942.6284
  23024416.797   -11161314.955 8  -8158523.60746  23024416.538    23024421.8264
 00  1 22  1 13 30.0000000  0  7 24 05 04 06 09 10 30
  20224431.102   -27341441.455 9 -21279299.83748  20224430.478    20224435.5704
  20531999.810   -26823043.101 9 -20888888.62048  20531998.803    20532003.4244
  21852490.831   -18298208.183 9 -14237958.86447  21852490.496    21852494.7944
  24445264.409    -7775635.745 7  -6042550.09745  24445263.817    24445271.8994
  22665308.845   -16178129.022 8 -12329176.49046  22665308.174    22665313.6604
  23488029.559   -12330764.830 8  -9358094.03445  23488028.236    23488035.4084
  23006419.864   -11255889.124 8  -8232217.65146  23006419.587    23006424.8644
 00  1 22  1 14  0.0000000  0  7 24 05 04 06 09 10 30
  20226832.544   -27328821.694 9 -21269466.21648  20226831.916    20226837.0044
  20524477.565   -26862572.648 9 -20919690.82348  20524476.551    20524481.1714
  21868215.638   -18215573.727 9 -14173568.35247  21868215.300    21868219.5774
  24431989.178    -7845396.621 7  -6096909.04845  24431988.636    24431996.5794
  22680552.857   -16098021.209 8 -12266754.82546  22680552.180    22680557.7074
  23469140.183   -12430028.420 8  -9435442.09146  23469138.873    23469145.9934
  22988453.800   -11350301.154 8  -8305785.36146  22988453.505    22988458.7304
 00  1 22  1 14 30.0000000  0  7 24 05 04 06 09 10 30
  20229324.395   -27315726.590 9 -21259262.19048  20229323.771    20229328.8444
  20517034.197   -26901687.523 9 -20950169.90348  20517033.184    20517037.7854
  21883990.849   -18132674.167 9 -14108971.26547  21883990.489    21883994.7804
  24418722.727    -7915111.833 7  -6151232.46545  24418722.031    24418730.0594
  22695841.729   -16017677.676 8 -12204149.48546  22695841.076    22695846.5594
  23450266.884   -12529207.231 8  -9512724.11346  23450265.639    23450272.6664
  22970518.978   -11444548.640 8  -8379224.85746  22970518.671    22970523.8824
 00  1 22  1 15  0.0000000  0  7 24 05 04 06 09 10 30
  20231904.749   -27302166.581 9 -21248695.90348  20231904.124    20231909.1884
  20509669.818   -26940387.448 9 -20980325.65048  20509668.802    20509673.3884
  21899815.377   -18049515.477 9 -14044172.26347  21899815.014    21899819.3064
  24405463.307    -7984790.009 7  -6205527.03345  24405462.560    24405470.5354
  22711171.542   -15937119.134 8 -12141376.60346  22711170.854    22711176.3674
  23431408.018   -12628310.670 8  -9589947.39846  23431406.755    23431413.6824
  22952616.158   -11538628.236 8  -8452533.53546  22952615.845    22952621.0184
 00  1 22  1 15 30.0000000  0  7 24 05 04 06 09 10 30
  20234575.365   -27288132.404 9 -21237760.13548  20234574.735    20234579.7814
  20502383.943   -26978674.843 9 -21010159.94248  20502382.926    20502387.5004
  21915689.654   -17966095.576 9 -13979169.71647  21915689.314    21915693.5424
  24392212.117    -8054425.046 7  -6259787.99845  24392211.373    24392219.2434
  22726539.949   -15856357.585 8 -12078445.53146  22726539.284    22726544.8004
  23412561.736   -12727347.956 8  -9667119.17346  23412560.472    23412567.3094
  22934744.774   -11632542.568 8  -8525713.44546  22934744.467    22934749.5764
 00  1 22  1 16  0.0000000  0  7 24 05 04 06 09 10 30
  20237338.728   -27273610.656 9 -21226444.44448  20237338.102    20237343.1264
  20495175.797   -27016553.828 9 -21039675.99548  20495174.766    20495179.3354
  21931616.180   -17882400.999 8 -13913953.13947  21931615.818    21931620.0354
  24378968.376    -8124020.775 8  -6314018.37745  24378967.652    24378975.4284
  22741948.003   -15775387.648 8 -12015352.08246  22741947.338    22741952.8444
  23393728.900   -12826314.340 8  -9744235.69446  23393727.600    23393734.4074
  22916903.315   -11726299.625 8  -8598770.80646  22916902.998    22916908.0634
 00  1 22  1 16 30.0000000  0  7 24 05 04 06 09 10 30
  20240191.825   -27258617.381 9 -21214761.33248  20240191.207    20240196.2104
  20488046.552   -27054018.041 9 -21068868.85648  20488045.511    20488050.0824
  21947593.662   -17798438.749 9 -13848527.98947  21947593.317    21947597.5424
  24365731.329    -8193581.794 8  -6368221.72245  24365730.606    24365738.3044
  22757398.605   -15694193.993 8 -11952084.30646  22757397.951    22757403.4754
  23374911.113   -12925202.259 8  -9821291.10046  23374909.797    23374916.5474
  22899091.054   -11819903.322 8  -8671708.67846  22899090.749    22899095.7994
 00  1 22  1 17  0.0000000  0  7 24 05 04 06 09 10 30
  20243136.603   -27243142.350 9 -21202702.82648  20243135.959    20243140.9644
  20480996.398   -27091066.630 9 -21097737.84848  20480995.362    20480999.9204
  21963618.796   -17714226.150 8 -13782907.76747  21963618.423    21963622.6594
  24352501.312    -8263105.539 8  -6422396.02945  24352500.595    24352508.2314
  22772893.674   -15612766.842 8 -11888634.57846  22772892.994    22772898.5384
  23356110.222   -13024001.001 8  -9898277.02746  23356108.882    23356115.5794
  22881306.247   -11913362.723 8  -8744534.09046  22881305.931    22881310.9834
 00  1 22  1 17 30.0000000  0  7 24 05 04 06 09 10 30
  20246174.006   -27227180.505 9 -21190264.98648  20246173.356    20246178.3454
  20474025.531   -27127698.691 9 -21126282.27648  20474024.488    20474029.0334
  21979691.828   -17629761.788 8 -13717091.35947  21979691.456    21979695.6934
  24339278.949    -8332588.963 8  -6476538.93545  24339278.308    24339285.9334
  22788437.448   -15531083.766 8 -11824985.43946  22788436.783    22788442.3134
  23337329.114   -13122695.671 8  -9975181.88346  23337327.824    23337334.4834
  22863548.915   -12006677.900 8  -8817247.14146  22863548.595    22863553.5844
 00  1 22  1 18  0.0000000  0  7 24 05 04 06 09 10 30
  20249300.618   -27210749.908 9 -21177461.89548  20249299.971    20249304.9504
  20467137.187   -27163896.900 9 -21154488.64348  20467136.166    20467140.6924
  21995810.565   -17545057.176 8 -13651087.74847  21995810.198    21995814.4094
  24326063.590    -8402036.156 8  -6530653.61645  24326062.997    24326070.3734
  22804033.632   -15449125.279 8 -11761121.69346  22804032.947    22804038.4754
  23318569.385   -13221278.254 8 -10051999.39546  23318568.062    23318574.7114
  22845822.696   -12099829.432 8  -8889832.67546  22845822.426    22845827.3214
 00  1 22  1 18 30.0000000  0  7 24 05 04 06 09 10 30
  20252512.157   -27193872.879 9 -21164310.92848  20252511.498    20252516.4744
  20460333.980   -27199647.890 9 -21182346.52348  20460332.956    20460337.4904
  22011971.297   -17460131.722 8 -13584912.04347  22011970.940    22011975.1684
  24312853.798    -8471453.673 8  -6584745.16945  24312853.252    24312860.6544
  22819681.700   -15366894.120 8 -11697045.47646  22819681.023    22819686.5424
  23299831.660   -13319745.224 8 -10128726.82746  23299830.304    23299836.9514
  22828126.750   -12192821.811 8  -8962294.19146  22828126.487    22828131.3554
 00  1 22  1 19  0.0000000  0  7 24 05 04 06 09 10 30
  20255810.747   -27176538.388 9 -21150803.49948  20255810.105    20255815.0764
  20453617.786   -27234941.525 9 -21209848.02348  20453616.746    20453621.2754
  22028173.489   -17374988.611 8 -13518566.73147  22028173.103    22028177.3324
  24299651.052    -8540834.083 8  -6638807.79345  24299650.562    24299657.9044
  22835379.140   -15284403.706 8 -11632767.23646  22835378.467    22835383.9704
  23281117.121   -13418090.404 8 -10205359.37446  23281115.749    23281122.3284
  22810462.852   -12285645.814 8  -9034624.48946  22810462.615    22810467.4874
 00  1 22  1 19 30.0000000  0  7 24 05 04 06 09 10 30
  20259195.586   -27158750.747 9 -21136942.96648  20259194.931    20259199.9134
  20446990.578   -27269767.696 9 -21236985.26748  20446989.544    20446994.0544
  22044417.953   -17289623.274 8 -13452048.25947  22044417.597    22044421.8114
  24286455.364    -8610177.875 8  -6692841.86345  24286454.697    24286462.1024
  22851124.445   -15201661.641 8 -11568292.90646  22851123.766    22851129.2444
  23262427.347   -13516305.569 8 -10281890.61546  23262425.948    23262432.5334
  22792834.187   -12378284.788 8  -9106810.62546  22792833.920    22792838.7584
 00  1 22  1 20  0.0000000  0  7 24 05 04 06 09 10 30
  20262667.267   -27140506.900 9 -21122726.95748  20262666.628    20262671.5944
  20440452.808   -27304123.666 9 -21263756.12248  20440451.760    20440456.2624
  22060705.543   -17204031.408 8 -13385353.27247  22060705.212    22060709.4094
  24273265.813    -8679489.034 8  -6746850.46945  24273265.178    24273272.5004
  22866912.123   -15118697.057 8 -11503645.19246  22866911.427    22866916.8924
  23243765.025   -13614376.454 8 -10358309.43146  23243763.658    23243770.1634
  22775241.353   -12470735.339 8  -9178849.92246  22775241.099    22775245.9464
 00  1 22  1 20 30.0000000  0  7 24 05 04 06 09 10 30
  20266229.461   -27121787.109 9 -21108140.08048  20266228.812    20266233.7844
  20434002.073   -27338022.410 9 -21290170.69648  20434001.036    20434005.5284
  22077037.722   -17118205.117 8 -13318475.61747  22077037.375    22077041.5784
  24260082.750    -8748766.172 8  -6800832.55445  24260082.045    24260089.3924
  22882737.655   -15035533.311 8 -11438842.27646  22882736.971    22882742.4304
  23225131.178   -13712297.827 8 -10434611.75046  23225129.767    23225136.2624
  22757682.068   -12563009.616 8  -9250751.87846  22757681.805    22757686.6424
 00  1 22  1 21  0.0000000  0  7 24 05 04 06 09 10 30
  20269884.495   -27102579.707 9 -21093173.24548  20269883.861    20269888.8184
  20427635.558   -27371478.470 9 -21316240.32148  20427634.523    20427638.9994
  22093416.779   -17032132.437 8 -13251405.96347  22093416.426    22093420.6204
  24246905.804    -8818011.159 8  -6854789.53945  24246905.177    24246912.4094
  22898600.433   -14952173.890 8 -11373886.89046  22898599.749    22898605.1824
  23206524.455   -13810076.555 8 -10510802.92946  23206523.078    23206529.5154
  22740160.405   -12655086.161 8  -9322499.74046  22740160.135    22740164.9774
 00  1 22  1 21 30.0000000  0  7 24 05 04 06 09 10 30
  20273631.051   -27082891.247 9 -21077831.56548  20273630.418    20273635.3624
  20421351.348   -27404502.139 9 -21341973.01748  20421350.303    20421354.7794
  22109843.677   -16945808.240 8 -13184140.32847  22109843.334    22109847.5484
  24233730.617    -8887246.997 8  -6908739.39145  24233729.909    24233737.3024
  22914499.622   -14868623.178 8 -11308782.44746  22914498.922    22914504.4104
  23187944.034   -13907717.150 8 -10586886.47046  23187942.692    23187949.0454
  22722675.645   -12746968.788 8  -9394096.50046  22722675.369    22722680.1904
 00  1 22  1 22  0.0000000  0  7 24 05 04 06 09 10 30
  20277470.152   -27062716.637 9 -21062111.06748  20277469.510    20277474.4564
  20415149.752   -27437091.663 9 -21367367.41848  20415148.717    20415153.1614
  22126315.509   -16859248.054 8 -13116690.79947  22126315.151    22126319.3644
  24220558.955    -8956464.073 8  -6962674.59945  24220558.266    24220565.6264
  22930435.381   -14784880.148 8 -11243528.15246  22930434.680    22930440.1854
  23169389.764   -14005220.352 8 -10662862.95646  23169388.416    23169394.7584
  22705227.014   -12838661.561 8  -9465545.32546  22705226.748    22705231.5274
 00  1 22  1 22 30.0000000  0  7 24 05 04 06 09 10 30
  20281402.024   -27042054.402 9 -21046010.59948  20281401.388    20281406.3204
  20409029.675   -27469252.856 9 -21392428.05248  20409028.633    20409033.0704
  22142831.134   -16772457.768 8 -13049061.97647  22142830.797    22142835.0054
  24207392.894    -9025651.579 8  -7016586.74645  24207392.191    24207399.5674
  22946411.646   -14700924.349 8 -11178108.05146  22946410.980    22946416.4584
  23150859.854   -14102595.308 8 -10738739.52246  23150858.524    23150864.8384
  22687816.824   -12930152.504 8  -9536836.87946  22687816.532    22687821.2874
 00  1 22  1 23  0.0000000  0  7 24 05 04 06 09 10 30
  20285424.802   -27020914.597 9 -21029538.00148  20285424.143    20285429.0724
  20402992.049   -27500980.637 9 -21417150.96848  20402991.003    20402995.4364
  22159389.592   -16685442.394 8 -12981257.75746  22159389.244    22159393.4454
  24194233.293    -9094805.209 8  -7070472.48645  24194232.661    24194239.9094
  22962428.795   -14616753.464 8 -11112520.35846  22962428.122    22962433.5854
  23132354.380   -14199841.906 8 -10814516.05046  23132353.125    23132359.3814
  22670446.180   -13021435.308 8  -9607966.26346  22670445.887    22670450.6314
 00  1 22  1 23 30.0000000  0  7 24 05 04 06 09 10 30
  20289537.904   -26999299.908 9 -21012695.35948  20289537.276    20289542.1794
  20397038.622   -27532265.949 9 -21441529.09848  20397037.585    20397042.0074
  22175988.528   -16598214.288 8 -12913287.77646  22175988.173    22175992.3724
  24181081.686    -9163916.401 8  -7124325.15045  24181081.096    24181088.2994
  22978486.347   -14532370.521 8 -11046767.42546  22978485.685    22978491.1574
  23113874.283   -14296955.378 8 -10890188.85846  23113873.009    23113879.2774
  22653112.737   -13112522.854 8  -9678943.47646  22653112.457    22653117.2204
 00  1 22  1 24  0.0000000  0  7 24 05 04 06 09 10 30
  20293742.329   -26977205.387 9 -20995478.81748  20293741.695    20293746.5754
  20391169.191   -27563109.841 9 -21465563.26448  20391168.158    20391172.5724
  22192628.188   -16510772.114 8 -12845150.99146  22192627.844    22192632.0294
  24167942.652    -9232961.843 8  -7178126.57545  24167942.073    24167949.2104
  22994585.068   -14447771.013 8 -10980845.73046  22994584.400    22994589.8814
  23095418.503   -14393940.959 8 -10965762.00946  23095417.236    23095423.4634
  22635818.940   -13203401.840 8  -9749758.17346  22635818.669    22635823.4124
 00  1 22  1 24 30.0000000  0  7 24 05 04 06 09 10 30
  20298034.853   -26954647.995 9 -20977901.60048  20298034.213    20298039.0834
  20385383.492   -27593513.567 9 -21489254.44048  20385382.463    20385386.8704
  22209309.977   -16423108.619 8 -12776841.74246  22209309.625    22209313.7994
  24154814.582    -9301949.656 8  -7231883.09445  24154813.931    24154821.1214
  23010721.750   -14362972.272 8 -10914768.80146  23010721.059    23010726.5414
  23076987.612   -14490795.956 8 -11041233.39146  23076986.345    23076992.5774
  22618563.870   -13294077.497 8  -9820414.44746  22618563.595    22618568.3404
 00  1 22  1 25  0.0000000  0  7 24 05 04 06 09 10 30
  20302413.195   -26931639.533 9 -20959972.89848  20302412.552    20302417.4194
  20379685.175   -27623458.254 9 -21512587.92548  20379684.148    20379688.5654
  22226032.137   -16335233.085 8 -12708367.27346  22226031.808    22226035.9534
  24141694.317    -9370896.465 8  -7285607.66845  24141693.624    24141700.8164
  23026893.461   -14277989.338 8 -10848548.34146  23026892.794    23026898.2634
  23058583.513   -14587509.894 8 -11116594.86446  23058582.236    23058588.4454
  22601346.192   -13384556.706 8  -9890917.63646  22601345.914    22601350.6504
 00  1 22  1 25 30.0000000  0  7 24 05 04 06 09 10 30
  20306876.648   -26908183.842 9 -20941695.70748  20306876.002    20306880.8574
  20374076.645   -27652931.026 9 -21535553.68548  20374075.621    20374080.0364
  22242793.473   -16247151.440 8 -12639732.19846  22242793.145    22242797.2534
  24128580.479    -9439809.603 8  -7339306.02945  24128579.813    24128586.9324
  23043098.716   -14192830.225 8 -10782190.60446  23043097.995    23043103.4874
  23040210.337   -14684061.540 8 -11191829.87546  23040209.046    23040215.2074
  22584169.414   -13474820.971 8  -9961253.33746  22584169.115    22584173.8424
 00  1 22  1 26  0.0000000  0  7 24 05 04 06 09 10 30
  20311421.442   -26884300.664 9 -20923085.41048  20311420.796    20311425.6464
  20368557.021   -27681936.747 9 -21558155.51248  20368555.992    20368560.4034
  22259593.537   -16158866.416 8 -12570938.65146  22259593.215    22259597.3084
  24115472.646    -9508690.828 8  -7392979.52245  24115471.947    24115478.9634
  23059336.109   -14107502.248 8 -10715701.27746  23059335.405    23059340.8694
  23021871.880   -14780430.669 8 -11266922.65046  23021870.550    23021876.7834
  22567034.745   -13564863.609 8 -10031416.33746  22567034.487    22567039.1754
 00  1 22  1 26 30.0000000  0  7 24 05 04 06 09 10 30
  20316044.166   -26860008.076 9 -20904156.08248  20316043.536    20316048.3784
  20363126.538   -27710473.959 9 -21580392.26048  20363125.522    20363129.9004
  22276429.097   -16070394.793 8 -12501999.70246  22276428.769    22276432.8924
  24102367.029    -9577560.268 8  -7446643.84945  24102366.409    24102373.3934
  23075603.878   -14022014.434 8 -10649087.39746  23075603.202    23075608.6624
  23003570.996   -14876602.281 8 -11341861.51346  23003569.641    23003575.8754
  22549939.171   -13654701.184 8 -10101419.55446  22549938.883    22549943.5594
 00  1 22  1 27  0.0000000  0  7 24 05 04 06 09 10 30
  20320744.765   -26835306.150 9 -20884907.79648  20320744.122    20320748.9634
  20357783.249   -27738552.983 9 -21602271.98948  20357782.221    20357786.5884
  22293300.090   -15981737.151 8 -12432915.80846  22293299.740    22293303.8654
  24089262.735    -9646423.189 8  -7500303.09645  24089262.091    24089268.9934
  23091903.910   -13936357.510 8 -10582341.75746  23091903.198    23091908.6194
  22985306.454   -14972582.861 8 -11416651.51946  22985305.074    22985311.3094
  22532883.529   -13744328.873 8 -10171259.22146  22532883.260    22532887.8964
 00  1 22  1 27 30.0000000  0  7 24 05 04 06 09 10 30
  20325523.110   -26810195.500 9 -20865341.01448  20325522.474    20325527.3214
  20352523.497   -27766193.091 9 -21623809.69848  20352522.462    20352526.8134
  22310205.683   -15892897.615 8 -12363690.16846  22310205.306    22310209.4344
  24076162.902    -9715262.596 8  -7553944.05445  24076162.160    24076169.0934
  23108236.270   -13850530.591 8 -10515463.64546  23108235.551    23108240.9824
  22967074.537   -15068392.000 8 -11491307.92546  22967073.176    22967079.3914
  22515865.757   -13833757.628 8 -10240943.86946  22515865.471    22515870.0824
 00  1 22  1 28  0.0000000  0  7 24 05 04 06 09 10 30
  20330380.051   -26784671.731 9 -20845452.32848  20330379.411    20330384.2644
  20347344.797   -27793407.229 9 -21645015.48648  20347343.747    20347348.0874
  22327147.013   -15803870.070 8 -12294318.03446  22327146.648    22327150.7704
  24063067.791    -9784077.045 8  -7607565.54645  24063067.115    24063073.9774
  23124601.595   -13764530.195 8 -10448450.35946  23124600.872    23124606.3444
  22948871.522   -15164049.411 8 -11565846.11246  22948870.118    22948876.2964
  22498881.354   -13923010.676 8 -10310491.61646  22498881.109    22498885.6594
 00  1 22  1 28 30.0000000  0  7 24 05 04 06 09 10 30
  20335318.964   -26758717.323 9 -20825228.07348  20335318.332    20335323.1784
  20342250.146   -27820179.646 9 -21665877.07148  20342249.104    20342253.4484
  22344123.725   -15714656.829 8 -12224801.20246  22344123.325    22344127.4314
  24049976.038    -9852874.115 8  -7661173.51845  24049975.329    24049982.2204
  23140998.628   -13678362.956 8 -10381307.05946  23140997.930    23141003.4034
  22930694.569   -15259569.615 8 -11640277.35746  22930693.232    22930699.3434
  22481932.425   -14012077.703 8 -10379894.41146  22481932.162    22481936.7094
 00  1 22  1 29  0.0000000  0  7 24 05 04 06 09 10 30
  20340341.859   -26732321.732 9 -20804660.04548  20340341.215    20340346.0664
  20337242.650   -27846494.057 9 -21686381.77148  20337241.601    20337245.9534
  22361136.584   -15625253.448 8 -12155136.20846  22361136.187    22361140.2864
  24036891.113    -9921635.169 8  -7714753.42945  24036890.407    24036897.1904
  23157426.552   -13592033.615 8 -10314037.45546  23157425.877    23157431.3404
  22912543.603   -15354953.305 8 -11714602.23446  22912542.267    22912548.3764
  22465024.050   -14100931.397 8 -10449130.98146  22465023.797    22465028.2924
 00  1 22  1 29 30.0000000  0  7 24 05 04 06 09 10 30
  20345450.490   -26705475.528 9 -20783740.88848  20345449.848    20345454.7034
  20332325.843   -27872331.896 9 -21706515.11948  20332324.785    20332329.1504
  22378184.409   -15535666.471 8 -12085328.15746  22378184.025    22378188.0874
  24023813.394    -9990358.492 8  -7768303.93645  24023812.731    24023819.3864
  23173885.359   -13505542.016 8 -10246641.40946  23173884.693    23173890.1424
  22894421.953   -15450183.036 8 -11788807.13546  22894420.632    22894426.6844
  22448160.895   -14189547.763 8 -10518182.63046  22448160.612    22448165.1244
 00  1 22  1 30  0.0000000  0  7 24 05 04 06 09 10 30
  20350646.072   -26678172.403 9 -20762465.69348  20350645.441    20350650.2764
  20327503.383   -27897673.870 9 -21726262.07648  20327502.333    20327506.6874
  22395267.393   -15445894.590 8 -12015376.03046  22395267.009    22395271.0794
  24010740.091   -10059058.337 8  -7821836.16245  24010739.431    24010746.0754
  23190373.976   -13418893.879 8 -10179123.37846  23190373.328    23190378.7854
  22876335.077   -15545229.917 8 -11862869.54846  22876333.743    22876339.7864
  22431347.326   -14277903.282 8 -10587031.02046  22431347.052    22431351.5014
 00  1 22  1 30 30.0000000  0  7 24 05 04 06 09 10 30
  20355927.142   -26650420.155 9 -20740840.52948  20355926.495    20355931.3264
  20322778.511   -27922503.231 9 -21745609.59848  20322777.464    20322781.8034
  22412384.608   -15355942.868 8 -11945283.76946  22412384.209    22412388.2704
  23997671.449   -10127734.087 8  -7875349.58645  23997670.748    23997677.4444
  23206894.366   -13332078.700 8 -10111475.20446  23206893.692    23206899.2004
  22858286.774   -15640074.243 8 -11936774.13246  22858285.439    22858291.4584
  22414588.723   -14365970.207 8 -10655654.53946  22414588.454    22414592.8454
 00  1 22  1 31  0.0000000  0  7 24 05 04 06 09 10 30
  20361291.224   -26622231.527 9 -20718875.33048  20361290.582    20361295.3974
  20318149.177   -27946830.411 9 -21764565.80648  20318148.129    20318152.4454
  22429536.411   -15265809.644 8 -11875050.06946  22429536.035    22429540.0964
  23984609.264   -10196375.920 8  -7928836.57545  23984608.571    23984615.2264
  23223448.762   -13245084.840 8 -10043687.77146  23223448.062    23223453.6164
  22840278.473   -15734708.100 8 -12010514.69446  22840277.115    22840283.1454
  22397883.408   -14453756.850 8 -10724059.65446  22397883.118    22397887.5084
 00  1 22  1 31 30.0000000  0  7 24 05 04 06 09 10 30
  20366737.832   -26593609.359 9 -20696572.31148  20366737.201    20366741.9904
  20313612.899   -27970668.413 9 -21783140.84148  20313611.859    20313616.1544
  22446720.261   -15175507.727 8 -11804684.93246  22446719.879    22446723.9464
  23971552.429   -10264989.466 8  -7982301.51245  23971551.741    23971558.4344
  23240037.068   -13157912.646 8  -9975761.39446  23240036.408    23240041.9514
  22822312.558   -15829119.200 8 -12084081.69146  22822311.193    22822317.2104
  22381227.952   -14541281.693 8 -10792260.77246  22381227.639    22381232.0214
 00  1 22  1 32  0.0000000  0  7 24 05 04 06 09 10 30
  20372264.753   -26564565.269 9 -20673940.52148  20372264.105    20372268.8774
  20309168.452   -27994024.042 9 -21801339.99948  20309167.406    20309171.7024
  22463937.938   -15085028.136 8 -11734181.34246  22463937.580    22463941.5914
  23958503.101   -10333563.386 8  -8035735.56545  23958502.374    23958509.0414
  23256657.080   -13070573.974 8  -9907705.28146  23256656.402    23256661.9084
  22804388.631   -15923309.729 8 -12157476.79846  22804387.281    22804393.2764
  22364616.748   -14628573.928 8 -10860280.64146  22364616.438    22364620.7994
 00  1 22  1 32 30.0000000  0  7 24 05 04 06 09 10 30
  20377870.418   -26535107.013 9 -20650986.01048  20377869.774    20377874.5344
  20304813.774   -28016907.837 9 -21819171.49748  20304812.731    20304817.0104
  22481188.521   -14994375.632 8 -11663543.02146  22481188.187    22481192.2014
  23945462.380   -10402092.323 8  -8089134.55445  23945461.682    23945468.1764
  23273306.959   -12983078.246 8  -9839526.79946  23273306.266    23273311.7964
  22786505.481   -16017285.838 8 -12230704.82946  22786504.132    22786510.1084
  22348046.681   -14715649.861 8 -10928131.96846  22348046.380    22348050.7144
 00  1 22  1 33  0.0000000  0  7 24 05 04 06 09 10 30
  20383557.535   -26505220.764 9 -20627697.99548  20383556.897    20383561.6544
  20300547.520   -28039326.979 9 -21836640.92748  20300546.484    20300550.7704
  22498469.024   -14903565.960 8 -11592782.22046  22498468.654    22498472.6554
  23932431.189   -10470571.160 8  -8142494.49745  23932430.463    23932436.9504
  23289983.364   -12895443.015 8  -9771239.60046  23289982.650    23289988.1734
  22768663.527   -16111045.418 8 -12303764.12246  22768662.183    22768668.1394
  22331514.249   -14802528.010 8 -10995829.16446  22331513.945    22331518.2854
 00  1 22  1 33 30.0000000  0  7 24 05 04 06 09 10 30
  20389328.973   -26474891.407 9 -20604064.70048  20389328.322    20389333.0854
  20296371.940   -28061269.726 9 -21853739.13948  20296370.905    20296375.1724
  22515779.701   -14812597.680 8 -11521897.83446  22515779.330    22515783.3254
  23919408.249   -10539006.530 8  -8195820.56745  23919407.499    23919413.9994
  23306684.171   -12807679.541 8  -9702852.47846  23306683.449    23306688.9994
  22750864.799   -16204578.033 8 -12376646.55646  22750863.455    22750869.4044
  22315019.940   -14889205.873 8 -11063370.29046  22315019.624    22315023.9864
 00  1 22  1 34  0.0000000  0  7 24 05 04 06 09 10 30
  20395185.803   -26444113.336 9 -20580081.76448  20395185.157    20395189.9054
  20292289.046   -28082725.264 9 -21870457.71448  20292288.011    20292292.2674
  22533124.046   -14721452.350 8 -11450875.48846  22533123.654    22533127.7094
  23906394.233   -10607394.825 8  -8249109.95245  23906393.538    23906399.9324
  23323409.961   -12719784.977 8  -9634363.20446  23323409.250    23323414.7294
  22733109.251   -16297883.699 8 -12449352.14246  22733107.867    22733113.8044
  22298568.349   -14975659.288 8 -11130736.52846  22298568.033    22298572.3924
 00  1 22  1 34 30.0000000  0  7 24 05 04 06 09 10 30
  20401129.028   -26412881.374 9 -20555745.14848  20401128.393    20401133.1194
  20288298.903   -28103693.500 9 -21886796.56948  20288297.854    20288302.1134
  22550498.447   -14630149.197 8 -11379730.17046  22550498.075    22550502.0924
  23893388.231   -10675741.285 8  -8302366.74045  23893387.473    23893393.8384
  23340160.683   -12631759.293 8  -9565771.75546  23340159.973    23340165.4304
  22715395.935   -16390967.419 8 -12521884.78046  22715394.579    22715400.4744
  22282166.003   -15061854.007 8 -11197901.17146  22282165.688    22282170.0324
 00  1 22  1 35  0.0000000  0  7 24 05 04 06 09 10 30
  20407156.354   -26381207.444 9 -20531064.13948  20407155.710    20407160.4224
  20284403.588   -28124163.299 9 -21902747.03148  20284402.570    20284406.8164
  22567904.246   -14538680.991 8 -11308456.22646  22567903.895    22567907.9094
  23880390.075   -10744046.330 8  -8355591.26845  23880389.301    23880395.6644
  23356938.174   -12543592.993 8  -9497070.74246  23356937.459    23356942.9454
  22697723.612   -16483835.680 8 -12594249.52646  22697722.254    22697728.1544
  22265817.466   -15147765.947 8 -11264845.46746  22265817.146    22265821.4674
 00  1 22  1 35 30.0000000  0  7 24 05 04 06 09 10 30
  20413264.940   -26349106.634 9 -20506050.49948  20413264.291    20413268.9904
  20280603.009   -28144135.530 9 -21918309.77748  20280601.962    20280606.2024
  22585344.949   -14447029.392 8 -11237039.38646  22585344.591    22585348.6054
  23867397.811   -10812320.225 8  -8408791.53245  23867397.055    23867403.3794
  23373741.290   -12455292.227 8  -9428264.94946  23373740.566    23373746.0134
  22680090.623   -16576497.158 8 -12666453.13646  22680089.272    22680095.1504
  22249524.049   -15233388.061 8 -11331563.92546  22249523.755    22249528.0334
 00  1 22  1 36  0.0000000  0  7 24 05 04 06 09 10 30
  20419450.162   -26316603.056 9 -20480723.01648  20419449.519    20419454.2124
  20276894.368   -28163624.372 9 -21933495.86148  20276893.329    20276897.5634
  22602818.503   -14355205.302 8 -11165488.13446  22602818.145    22602822.1854
  23854410.716   -10880567.128 8  -8461970.76545  23854409.976    23854416.2354
  23390570.579   -12366853.832 8  -9359351.90746  23390569.875    23390575.3394
  22662494.816   -16668963.129 8 -12738504.41946  22662493.482    22662499.3254
  22233286.422   -15318717.160 8 -11398054.06046  22233286.117    22233290.3924
 00  1 22  1 36 30.0000000  0  7 24 05 04 06 09 10 30
  20425708.503   -26283715.130 9 -20455096.03948  20425707.837    20425712.5284
  20273278.190   -28182627.270 9 -21948303.28448  20273277.152    20273281.3814
  22620322.491   -14263221.169 8 -11093812.17446  22620322.107    22620326.1284
  23841426.230   -10948800.254 8  -8515139.27345  23841425.525    23841431.6874
  23407425.782   -12278278.844 8  -9290332.44046  23407425.116    23407430.5704
  22644936.893   -16761230.123 8 -12810400.65346  22644935.548    22644941.3874
  22217100.976   -15403771.823 8 -11464330.33846  22217100.681    22217104.9444
 00  1 22  1 37  0.0000000  0  7 24 05 04 06 09 10 30
  20432038.892   -26250448.734 9 -20429174.15248  20432038.244    20432042.9284
  20269753.562   -28201149.352 9 -21962736.04948  20269752.522    20269756.7354
  22637858.262   -14171070.003 8 -11022006.04846  22637857.867    22637861.8974
  23828442.436   -11017029.783 8  -8568304.97545  23828441.733    23828447.9134
  23424305.890   -12189573.423 8  -9221211.32346  23424305.240    23424310.6854
  22627422.000   -16853271.089 8 -12882120.76346  22627420.663    22627426.4704
  22200960.985   -15488587.830 8 -11530420.66546  22200960.685    22200964.9134
 00  1 22  1 37 30.0000000  0  7 24 05 04 06 09 10 30
  20438443.436   -26216792.464 9 -20402948.46648  20438442.761    20438447.4604
  20266316.584   -28219210.650 9 -21976809.76448  20266315.552    20266319.7454
  22655421.712   -14078773.406 8 -10950086.61146  22655421.339    22655425.3534
  23815458.658   -11085259.509 8  -8621470.86245  23815457.972    23815464.0674
  23441208.077   -12100751.809 8  -9151999.66646  23441207.390    23441212.8834
  22609954.111   -16945064.723 8 -12953648.15546  22609952.806    22609958.5774
  22184863.758   -15573179.194 8 -11596335.94646  22184863.449    22184867.6644
 00  1 22  1 38  0.0000000  0  7 24 05 04 06 09 10 30
  20444920.541   -26182754.900 9 -20376425.66548  20444919.877    20444924.5684
  20262967.227   -28236811.457 9 -21990524.65348  20262966.190    20262970.3784
  22673009.337   -13986349.755 8 -10878068.17046  22673008.943    22673012.9824
  23802474.849   -11153489.154 8  -8674636.68545  23802474.150    23802480.2524
  23458131.347   -12011819.474 8  -9082701.73846  23458130.664    23458136.1364
  22592535.429   -17036599.973 8 -13024974.21346  22592534.114    22592539.8554
  22168809.747   -15657543.201 8 -11662074.05746  22168809.423    22168813.6504
 00  1 22  1 38 30.0000000  0  7 24 05 04 06 09 10 30
  20451470.785   -26148332.961 9 -20349603.34848  20451470.132    20451474.8284
  20259706.316   -28253947.655 9 -22003877.50948  20259705.278    20259709.4544
  22690620.632   -13893801.742 8 -10805952.82746  22690620.241    22690624.2354
  23789491.494   -11221716.640 8  -8727800.83945  23789490.859    23789496.8704
  23475070.363   -11922804.104 8  -9013339.10546  23475069.648    23475075.1524
  22575168.575   -17127862.841 8 -13096088.03046  22575167.237    22575172.9704
  22152799.564   -15741677.030 8 -11727632.82346  22152799.246    22152803.4144
 00  1 22  1 39  0.0000000  0  7 24 05 04 06 09 10 30
  20458096.889   -26113512.430 9 -20322470.44248  20458096.225    20458100.9204
  20256533.293   -28270621.809 9 -22016870.33448  20256532.265    20256536.4424
  22708253.846   -13801138.404 8 -10733747.61446  22708253.473    22708257.4554
  23776509.909   -11289934.701 8  -8780957.65045  23776509.236    23776515.2344
  23492024.437   -11833709.541 8  -8943914.76746  23492023.701    23492029.2214
  22557852.010   -17218861.714 8 -13166996.14846  22557850.675    22557856.3864
  22136836.520   -15825563.141 8 -11792998.55746  22136836.188    22136840.3574
 00  1 22  1 39 30.0000000  0  7 24 05 04 06 09 10 30
  20464798.228   -26078296.411 9 -20295029.36148  20464797.575    20464802.2734
  20253451.450   -28286816.996 9 -22029489.93748  20253450.408    20253454.5724
  22725908.947   -13708359.981 8 -10661452.73146  22725908.610    22725912.5484
  23763533.474   -11358125.805 8  -8834093.46545  23763532.799    23763538.7714
  23508994.146   -11744533.100 8  -8874426.63446  23508993.453    23508998.9664
  22540579.899   -17309626.797 8 -13237722.10146  22540578.562    22540584.2604
  22120926.558   -15909170.126 8 -11858146.80247  22120926.242    22120930.3664
 00  1 22  1 40  0.0000000  0  7 24 05 04 06 09 10 30
  20471574.140   -26042688.661 9 -20267283.03248  20471573.485    20471578.1854
  20250465.417   -28302508.523 9 -22041717.07948  20250464.375    20250468.5404
  22743589.462   -13615448.179 8 -10589053.92146  22743589.111    22743593.0594
  23750563.721   -11426281.830 8  -8887201.95345  23750563.047    23750568.9744
  23525980.148   -11655271.194 8  -8804871.89446  23525979.463    23525984.9894
  22523350.060   -17400169.850 8 -13308275.04546  22523348.740    22523354.3964
  22105072.692   -15992482.574 8 -11923065.53547  22105072.357    22105076.4754
 00  1 22  1 40 30.0000000  0  7 24 05 04 06 09 10 30
  20478427.611   -26006673.309 9 -20239219.09148  20478426.970    20478431.6534
  20247578.211   -28317680.848 9 -22053539.64648  20247577.164    20247581.3274
  22761294.985   -13522404.998 8 -10516552.72346  22761294.644    22761298.6104
  23737602.198   -11494394.419 8  -8940276.59345  23737601.541    23737607.4654
  23542984.788   -11565911.138 8  -8735240.68246  23542984.121    23542989.6194
  22506162.395   -17490491.217 8 -13378655.26246  22506161.049    22506166.7064
  22089274.934   -16075499.946 8 -11987754.34847  22089274.614    22089278.7124
 00  1 22  1 41  0.0000000  0  7 24 05 04 06 09 10 30
  20485361.636   -25970234.558 9 -20210825.22448  20485360.980    20485365.6664
  20244792.340   -28332320.419 9 -22064947.07848  20244791.313    20244795.4504
  22779027.623   -13429219.229 8 -10443940.42046  22779027.317    22779031.2404
  23724650.035   -11562457.916 8  -8993313.00146  23724649.407    23724655.2994
  23560014.572   -11476419.056 8  -8665506.58446  23560013.901    23560019.3934
  22489018.249   -17580583.955 8 -13448857.32946  22489016.908    22489022.5664
  22073534.345   -16158217.094 8 -12052209.21447  22073534.030    22073538.1074
 00  1 22  1 41 30.0000000  0  7 24 05 04 06 09 10 30
  20492375.224   -25933377.839 9 -20182105.67248  20492374.574    20492379.2644
  20242108.655   -28346423.258 9 -22075936.27948  20242107.611    20242111.7504
  22796789.940   -13335877.752 8 -10371206.79546  22796789.591    22796793.5634
  23711707.393   -11630471.633 8  -9046310.62746  23711706.737    23711712.6294
  23577068.009   -11386802.779 8  -8595675.72346  23577067.336    23577072.8624
  22471921.843   -17670425.712 8 -13518863.83446  22471920.494    22471926.1434
  22057850.305   -16240636.968 8 -12116432.44747  22057850.018    22057854.0664
 00  1 22  1 42  0.0000000  0  7 24 05 04 06 09 10 30
  20499467.643   -25896106.734 9 -20153063.21848  20499466.994    20499471.6664
  20239526.522   -28359992.333 9 -22086509.56148  20239525.478    20239529.6064
  22814580.909   -13242385.491 8 -10298355.67446  22814580.524    22814584.5014
  23698770.949   -11698452.872 8  -9099282.93446  23698770.253    23698776.1414
  23594144.383   -11297065.995 8  -8525750.95846  23594143.665    23594149.1654
  22454878.012   -17759991.345 8 -13588655.17546  22454876.653    22454882.2874
  22042222.483   -16322761.634 8 -12180425.64847  22042222.187    22042226.2294
 00  1 22  1 42 30.0000000  0  7 24 05 04 06 09 10 30
  20506636.790   -25858432.538 9 -20123706.66848  20506636.141    20506640.8034
  20237045.350   -28373031.032 9 -22096669.56348  20237044.316    20237048.4254
  22832398.094   -13148755.364 8 -10225397.12446  22832397.730    22832401.7004
  23685841.494   -11766397.190 8  -9152226.48946  23685840.813    23685846.6874
  23611243.155   -11207211.151 8  -8455734.19446  23611242.457    23611247.9504
  22437889.119   -17849268.403 8 -13658221.65846  22437887.754    22437893.3824
  22026651.621   -16404586.801 9 -12244185.47147  22026651.336    22026655.3674
 00  1 22  1 43  0.0000000  0  7 24 05 04 06 09 10 30
  20513877.767   -25820380.725 9 -20094055.87348  20513877.119    20513881.7584
  20234661.559   -28385557.841 9 -22106430.68948  20234660.526    20234664.6174
  22850242.790   -13054980.780 8 -10152326.02146  22850242.396    22850246.4034
  23672917.548   -11834312.478 8  -9205147.40046  23672916.861    23672922.6764
  23628360.439   -11117259.244 8  -8385641.79746  23628359.727    23628365.2174
  22420954.947   -17938257.673 8 -13727563.89046  22420953.597    22420959.1654
  22011139.900   -16486101.376 8 -12307703.28547  22011139.605    22011143.6474
 00  1 22  1 43 30.0000000  0  7 24 05 04 06 09 10 30
  20521186.532   -25781972.765 9 -20064127.56148  20521185.879    20521190.5124
  20232372.916   -28397584.658 9 -22115802.20948  20232371.870    20232375.9604
  22868110.127   -12961087.438 8 -10079162.37046  22868109.697    22868113.6954
  23659999.936   -11902194.650 8  -9258042.51546  23659999.244    23660005.0144
  23645489.361   -11027246.106 8  -8315501.69046  23645488.649    23645494.1444
  22404073.683   -18026969.144 8 -13796689.65946  22404072.353    22404077.8284
  21995687.796   -16567302.575 8 -12370976.90247  21995687.493    21995691.5294
 00  1 22  1 44  0.0000000  0  7 24 05 04 06 09 10 30
  20528562.350   -25743212.523 9 -20033924.74748  20528561.692    20528566.3234
  20230178.277   -28409117.438 9 -22124788.76648  20230177.210    20230181.3174
  22885996.072   -12867096.140 8 -10005922.39146  22885995.665    22885999.6604
  23647091.197   -11970030.077 8  -9310901.20146  23647090.490    23647096.2464
  23662630.307   -10937169.919 8  -8245312.45546  23662629.593    23662635.0994
  22387243.552   -18115411.924 8 -13865606.05546  22387242.215    22387247.6954
  21980296.345   -16648184.871 8 -12434002.02447  21980296.048    21980300.0654
 00  1 22  1 44 30.0000000  0  7 24 05 04 06 09 10 30
  20536004.720   -25704102.431 9 -20003449.31948  20536004.070    20536008.6914
  20228074.472   -28420172.905 9 -22133403.39048  20228073.416    20228077.5134
  22903898.666   -12773017.219 8  -9932614.13846  22903898.301    22903902.2074
  23634191.844   -12037816.170 8  -9363721.44046  23634191.170    23634196.8844
  23679781.932   -10847037.416 8  -8175079.34346  23679781.218    23679786.7324
  22370465.449   -18203581.312 8 -13934309.40946  22370464.130    22370469.5674
  21964962.827   -16728763.044 8 -12496790.17547  21964962.493    21964966.5214
 00  1 22  1 45  0.0000000  0  7 24 05 04 06 09 10 30
  20543515.491   -25664632.937 9 -19972693.84048  20543514.831    20543519.4474
  20226058.619   -28430766.207 9 -22141657.88148  20226057.572    20226061.6624
  22921817.705   -12678852.055 8  -9859238.66646  22921817.316    22921821.2464
  23621298.756   -12105569.506 8  -9416516.13446  23621298.056    23621303.7684
  23696942.855   -10756856.310 8  -8104808.34246  23696942.199    23696947.6514
  22353739.764   -18291475.012 8 -14002797.94946  22353738.449    22353743.8484
  21949684.650   -16809050.132 8 -12559351.49247  21949684.340    21949688.3534
 00  1 22  1 45 30.0000000  0  7 24 05 04 06 09 10 30
  20551096.078   -25624796.620 9 -19941652.53048  20551095.413    20551100.0194
  20224131.059   -28440895.484 9 -22149550.79948  20224130.006    20224134.0904
  22939750.575   -12584614.146 8  -9785806.53146  22939750.181    22939754.1154
  23608409.860   -12173300.809 8  -9469293.67846  23608409.178    23608414.8464
  23714112.707   -10666627.838 8  -8034500.45446  23714112.012    23714117.5344
  22337068.190   -18379084.590 8 -14071065.08846  22337066.870    22337072.2734
  21934459.652   -16889057.709 8 -12621695.02047  21934459.360    21934463.3354
 00  1 22  1 46  0.0000000  0  7 24 05 04 06 09 10 30
  20558746.543   -25584593.043 9 -19910325.04648  20558745.876    20558750.4674
  20222293.794   -28450550.272 9 -22157073.98648  20222292.738    20222296.8174
  22957700.096   -12490288.632 8  -9712306.12546  22957699.715    22957703.6324
  23595520.997   -12241031.779 8  -9522070.94746  23595520.341    23595525.9684
  23731292.265   -10576348.232 8  -7964152.70646  23731291.639    23731297.1314
  22320452.632   -18466399.681 8 -14139102.75546  22320451.293    22320456.6794
  21919288.553   -16968782.172 8 -12683817.93147  21919288.263    21919292.2334
 00  1 22  1 46 30.0000000  0  7 24 05 04 06 09 10 30
  20566468.103   -25544015.957 9 -19878706.51848  20566467.441    20566472.0394
  20220550.558   -28459710.940 9 -22164212.14448  20220549.505    20220553.5724
  22975668.365   -12395864.806 8  -9638729.12146  22975667.946    22975671.8404
  23582628.751   -12308780.600 8  -9574862.13346  23582628.116    23582633.7014
  23748479.251   -10486030.012 8  -7893774.88146  23748478.610    23748484.1204
  22303895.117   -18553409.854 8 -14206902.82246  22303893.786    22303899.1244
  21904171.384   -17048223.335 8 -12745720.09147  21904171.078    21904175.0284
 00  1 22  1 47  0.0000000  0  7 24 05 04 06 09 10 30
  20574263.092   -25503052.777 9 -19846787.13348  20574262.435    20574267.0214
  20218907.468   -28468345.424 9 -22170940.28648  20218906.412    20218910.4624
  22993656.460   -12301336.692 8  -9565070.82046  22993656.053    22993659.9514
  23569735.191   -12376536.513 8  -9627658.84646  23569734.543    23569740.1184
  23765673.780   -10395672.090 8  -7823366.10946  23765673.157    23765678.7214
  22287395.148   -18640117.494 8 -14274467.14246  22287393.828    22287399.1314
  21889113.984   -17127350.446 9 -12807377.52647  21889113.672    21889117.6084
 00  1 22  1 47 30.0000000  0  7 24 05 04 06 09 10 30
  20582132.535   -25461698.538 9 -19814563.03148  20582131.877    20582136.4714
  20217371.111   -28476418.784 9 -22177231.19248  20217370.056    20217374.0984
  23011665.801   -12206697.015 8  -9491325.62146  23011665.426    23011669.3144
  23556845.742   -12444270.341 8  -9680438.34746  23556845.145    23556850.7014
  23782877.969   -10305263.259 8  -7752917.67346  23782877.276    23782882.9384
  22270953.527   -18726518.633 8 -14341792.62746  22270952.211    22270957.4974
  21874122.396   -17206131.535 8 -12868765.34447  21874122.090    21874126.0124
 00  1 22  1 48  0.0000000  0  7 24 05 04 06 09 10 30
  20590078.357   -25419942.959 9 -19782026.20248  20590077.696    20590082.2794
  20215946.115   -28483906.943 9 -22183066.09748  20215945.073    20215949.1134
  23029697.143   -12111941.524 8  -9417490.15646  23029696.782    23029700.6714
  23543965.909   -12511954.114 8  -9733178.84646  23543965.292    23543970.7684
  23800094.896   -10214787.678 8  -7682417.22546  23800094.207    23800099.8954
  22254572.702   -18812599.988 8 -14408868.93646  22254571.371    22254576.6544
  21859197.582   -17284561.705 9 -12929879.71247  21859197.292    21859201.1814
 00  1 22  1 48 30.0000000  0  7 24 05 04 06 09 10 30
  20598101.252   -25377782.221 9 -19749173.66348  20598100.602    20598105.1794
  20214633.321   -28490805.769 9 -22188441.77948  20214632.271    20214636.3114
  23047752.434   -12017060.317 8  -9343556.74846  23047752.043    23047755.9684
  23531100.854   -12579560.040 8  -9785858.68246  23531100.238    23531105.6444
  23817329.448   -10124219.597 8  -7611844.69846  23817328.727    23817334.4894
  22238255.169   -18898348.904 8 -14475686.19846  22238253.867    22238259.1134
  21844339.731   -17362640.301 9 -12990720.12447  21844339.409    21844343.2904
 00  1 22  1 49  0.0000000  0  7 24 05 04 06 09 10 30
  20606199.084   -25335227.698 9 -19716014.28148  20606198.436    20606203.0154
  20213426.735   -28497146.297 9 -22193382.42748  20213425.677    20213429.7224
  23065832.258   -11922050.032 8  -9269522.74646  23065831.837    23065835.8294
  23518251.558   -12647083.170 8  -9838474.01946  23518250.944    23518256.3194
  23834583.313   -10033549.678 8  -7541192.82946  23834582.602    23834588.3634
  22221999.365   -18983773.391 8 -14542250.65546  22221998.051    22222003.2814
  21829548.185   -17440370.112 9 -13051288.76247  21829547.869    21829551.7574
 00  1 22  1 49 30.0000000  0  7 24 05 04 06 09 10 30
  20614367.024   -25292304.582 9 -19682567.68248  20614366.371    20614370.9564
  20212320.863   -28502957.655 9 -22197910.73448  20212319.812    20212323.8564
  23083934.779   -11826920.727 8  -9195396.00446  23083934.345    23083938.3404
  23505414.849   -12714540.187 8  -9891037.83646  23505414.251    23505419.6404
  23851855.518    -9942783.886 8  -7470466.23646  23851854.794    23851860.4754
  22205803.671   -19068882.006 8 -14608568.97846  22205802.343    22205807.5584
  21814817.684   -17517779.302 9 -13111607.56447  21814817.386    21814821.2124
 00  1 22  1 50  0.0000000  0  7 24 05 04 06 09 10 30
  20622601.877   -25249030.117 9 -19648847.30448  20622601.240    20622605.8104
  20211311.007   -28508264.332 9 -22202045.78448  20211309.951    20211313.9934
  23102059.165   -11731676.363 8  -9121179.60646  23102058.718    23102062.7264
  23492584.674   -12781962.565 8  -9943574.66146  23492584.112    23492589.4474
  23869143.372    -9851935.664 8  -7399675.43246  23869142.687    23869148.3954
  22189666.751   -19153681.711 8 -14674646.59246  22189665.404    22189670.6374
  21800143.050   -17594894.754 9 -13171697.47747  21800142.755    21800146.5624
 00  1 22  1 50 30.0000000  0  7 24 05 04 06 09 10 30
  20630900.990   -25205417.826 9 -19614863.68548  20630900.335    20630904.9254
  20210393.418   -28513086.218 9 -22205803.07848  20210392.367    20210396.4014
  23120203.749   -11636325.871 8  -9046880.51346  23120203.376    23120207.3114
  23479756.187   -12849376.450 8  -9996104.86946  23479755.604    23479760.9104
  23886442.084    -9761030.390 8  -7328840.16146  23886441.411    23886447.0944
  22173584.603   -19238193.629 8 -14740499.95846  22173583.268    22173588.4374
  21785525.546   -17671710.124 9 -13231553.56347  21785525.245    21785529.0404
 00  1 22  1 51  0.0000000  0  7 24 05 04 06 09 10 30
  20639264.820   -25161465.597 9 -19580615.18148  20639264.185    20639268.7724
  20209566.813   -28517429.865 9 -22209187.71548  20209565.759    20209569.7944
  23138363.934   -11540893.294 8  -8972517.44946  23138363.555    23138367.5154
  23466927.559   -12916791.050 8 -10048635.63246  23466926.945    23466932.2654
  23903747.270    -9670091.116 8  -7257978.39645  23903746.590    23903752.1884
  22157557.206   -19322417.843 8 -14806129.14447  22157555.874    22157561.0334
  21770967.090   -17748215.140 9 -13291167.81647  21770966.784    21770970.5824
 00  1 22  1 51 30.0000000  0  7 24 05 04 06 09 10 30
  20647692.283   -25117178.940 9 -19546106.08348  20647691.621    20647696.2304
  20208836.524   -28521267.409 9 -22212177.98648  20208835.464    20208839.5154
  23156537.143   -11445392.590 8  -8898101.31246  23156536.733    23156540.6764
  23454099.166   -12984204.373 8 -10101165.41346  23454098.506    23454103.8724
  23921056.471    -9579130.592 8  -7187100.07745  23921055.738    23921061.4174
  22141586.715   -19406342.847 8 -14871525.17647  22141585.420    22141590.5664
  21756469.306   -17824401.188 9 -13350533.51947  21756469.000    21756472.8134
 00  1 22  1 52  0.0000000  0  7 24 05 04 06 09 10 30
  20656184.918   -25072549.637 9 -19511329.99448  20656184.281    20656188.8854
  20208205.525   -28524583.304 9 -22214761.78448  20208204.461    20208208.4994
  23174724.409   -11349817.810 8  -8823627.44846  23174723.993    23174727.9534
  23441273.821   -13051601.636 8 -10153682.67746  23441273.194    23441278.5054
  23938370.351    -9488145.761 8  -7116202.80845  23938369.582    23938375.2824
  22125677.806   -19489944.363 8 -14936669.14247  22125676.503    22125681.6534
  21742036.673   -17900244.915 9 -13409632.48547  21742036.391    21742040.1714
 00  1 22  1 52 30.0000000  0  7 24 05 04 06 09 10 30
  20664742.317   -25027580.244 9 -19476288.89648  20664741.677    20664746.2734
  20207672.887   -28527382.314 9 -22216942.81048  20207671.830    20207675.8514
  23192922.307   -11254187.176 8  -8749110.06046  23192921.904    23192925.8684
  23428454.256   -13118968.461 8 -10206176.23146  23428453.659    23428458.9624
  23955688.192    -9397139.759 8  -7045289.05145  23955687.443    23955693.0904
  22109834.904   -19573199.061 8 -15001542.86547  22109833.581    22109838.7384
  21727671.953   -17975731.910 9 -13468453.47947  21727671.656    21727675.4404
 00  1 22  1 53  0.0000000  0  7 24 05 04 06 09 10 30
  20673362.223   -24982282.324 9 -19440991.80248  20673361.560    20673366.1514
  20207238.069   -28529667.206 9 -22218723.22548  20207237.011    20207241.0264
  23211130.067   -11158504.971 8  -8674552.48646  23211129.670    23211133.6134
  23415642.929   -13186292.023 8 -10258636.07746  23415642.338    23415647.6174
  23973007.993    -9306123.567 8  -6974367.35945  23973007.222    23973012.8774
  22094060.551   -19656093.558 8 -15066135.91047  22094059.231    22094064.3624
  21713375.722   -18050858.997 9 -13526994.02947  21713375.423    21713379.1974
 00  1 22  1 53 30.0000000  0  7 24 05 04 06 09 10 30
  20682041.643   -24936671.543 9 -19405450.92448  20682040.991    20682045.5774
  20206902.032   -28531433.136 9 -22220099.26048  20206900.964    20206904.9724
  23229348.105   -11062768.414 8  -8599952.56646  23229347.697    23229351.6904
  23402838.311   -13253580.419 8 -10311068.51846  23402837.723    23402842.9664
  23990328.398    -9215104.091 8  -6903443.09545  23990327.632    23990333.3234
  22078353.746   -19738633.106 8 -15130452.37647  22078352.415    22078357.5314
  21699148.169   -18125625.170 9 -13585253.34747  21699147.863    21699151.6424
 00  1 22  1 54  0.0000000  0  7 24 05 04 06 09 10 30
  20690781.566   -24890742.914 9 -19369662.37348  20690780.920    20690785.4884
  20206663.118   -28532688.455 9 -22221077.41048  20206662.059    20206666.0554
  23247576.888   -10966975.288 8  -8525308.56046  23247576.447    23247580.4644
  23390040.363   -13320833.537 8 -10363473.47146  23390039.752    23390044.9974
  24007647.959    -9124088.948 8  -6832522.21045  24007647.261    24007652.8934
  22062715.522   -19820812.229 8 -15194487.98847  22062714.181    22062719.2934
  21684988.830   -18200032.852 9 -13643233.32247  21684988.505    21684992.2514
 00  1 22  1 54 30.0000000  0  7 24 05 04 06 09 10 30
  20699584.061   -24844485.302 9 -19333617.47248  20699583.427    20699587.9934
  20206522.675   -28533426.381 9 -22221652.40248  20206521.636    20206525.6184
  23265815.606   -10871130.140 8  -8450624.02246  23265815.182    23265819.2254
  23377249.527   -13388049.636 8 -10415849.58846  23377248.907    23377254.1344
  24024963.328    -9033096.089 8  -6761618.69645  24024962.694    24024968.2644
  22047142.582   -19902648.422 8 -15258256.38347  22047141.232    22047146.3194
  21670898.112   -18274079.884 9 -13700932.27447  21670897.800    21670901.5274
 00  1 22  1 55  0.0000000  0  7 24 05 04 06 09 10 30
  20708451.472   -24797886.795 9 -19297306.93648  20708450.818    20708455.3814
  20206483.977   -28533629.711 9 -22221810.82448  20206482.913    20206486.9134
  23284068.960   -10775208.014 8  -8375879.50346  23284068.525    23284072.5784
  23364465.189   -13455231.683 8 -10468199.15046  23364464.568    23364469.7254
  24042277.828    -8942107.996 8  -6690718.88545  24042277.168    24042282.7234
  22031632.004   -19984156.804 8 -15321769.34747  22031630.660    22031635.7194
  21656878.567   -18347752.916 9 -13758339.80147  21656878.285    21656881.9734
 00  1 22  1 55 30.0000000  0  7 24 05 04 06 09 10 30
  20717385.623   -24750937.468 9 -19260723.03248  20717384.983    20717389.5274
  20206547.713   -28533294.709 9 -22221549.76648  20206546.659    20206550.6534
  23302338.768   -10679199.427 8  -8301067.61646  23302338.347    23302342.4174
  23351687.501   -13522378.499 8 -10520521.27646  23351686.834    23351692.0214
  24059596.623    -8851097.188 8  -6619801.38745  24059595.978    24059601.4974
  22016184.730   -20065332.587 8 -15385023.13447  22016183.384    22016188.4334
  21642928.251   -18421062.258 9 -13815463.93247  21642927.963    21642931.6324
 00  1 22  1 56  0.0000000  0  7 24 05 04 06 09 10 30
  20726388.435   -24703627.229 9 -19223857.90048  20726387.770    20726392.3314
  20206713.035   -28532425.845 9 -22220872.71248  20206711.984    20206715.9874
  23320624.780   -10583105.950 8  -8226189.57246  23320624.387    23320628.4104
  23338917.262   -13589486.388 8 -10572813.07346  23338916.595    23338921.7364
  24076921.035    -8760056.874 8  -6548860.88445  24076920.385    24076925.9174
  22000800.453   -20146177.468 8 -15448019.08147  22000799.104    22000804.1104
  21629044.900   -18494019.531 9 -13872313.71847  21629044.614    21629048.2734
 00  1 22  1 56 30.0000000  0  7 24 05 04 06 09 10 30
  20735458.753   -24655962.336 9 -19186716.41848  20735458.101    20735462.6354
  20206980.281   -28531021.322 9 -22219778.26448  20206979.239    20206983.2394
  23338927.082   -10486926.796 8  -8151244.77646  23338926.687    23338930.6974
  23326152.261   -13656566.521 8 -10625083.24046  23326151.601    23326156.7204
  24094254.136    -8668970.944 8  -6477884.85745  24094253.435    24094258.9974
  21985479.287   -20226690.564 8 -15510756.50247  21985477.941    21985482.9114
  21615229.141   -18566621.702 9 -13928886.80747  21615228.858    21615232.5074
 00  1 22  1 57  0.0000000  0  7 24 05 04 06 09 10 30
  20744592.523   -24607964.098 9 -19149315.18248  20744591.858    20744596.3904
  20207348.017   -28529088.908 9 -22218272.46948  20207346.965    20207350.9624
  23357244.106   -10390670.247 8  -8076239.66746  23357243.727    23357247.7374
  23313390.539   -13723629.867 8 -10677340.32846  23313389.866    23313394.9604
  24111597.765    -8577829.704 8  -6406865.71345  24111597.059    24111602.6574
  21970225.576   -20306849.102 8 -15573217.63847  21970224.230    21970229.1724
  21601477.532   -18638886.756 9 -13985197.20547  21601477.229    21601480.9044
 00  1 22  1 57 30.0000000  0  7 24 05 04 06 09 10 30
  20753790.079   -24559630.606 9 -19111652.70948  20753789.411    20753793.9434
  20207817.367   -28526622.420 9 -22216350.51648  20207816.310    20207820.2854
  23375571.669   -10294358.434 8  -8001191.49946  23375571.259    23375575.2004
  23300631.761   -13790677.385 8 -10729585.09146  23300631.099    23300636.1494
  24128945.658    -8486666.219 8  -6335829.23045  24128944.969    24128950.4594
  21955042.571   -20386636.172 8 -15635389.32147  21955041.231    21955046.1424
  21587787.546   -18710827.907 9 -14041255.20847  21587787.236    21587790.8924
 00  1 22  1 58  0.0000000  0  7 24 05 04 06 09 10 30
  20763051.755   -24510959.984 9 -19073727.54048  20763051.099    20763055.6204
  20208391.286   -28523606.262 9 -22214000.24948  20208390.223    20208394.1984
  23393910.786   -10197985.760 8  -7926095.89346  23393910.353    23393914.2874
  23287876.194   -13857707.951 8 -10781816.64346  23287875.489    23287880.5774
  24146294.426    -8395497.589 8  -6264788.75745  24146293.739    24146299.2874
  21939932.255   -20466041.241 8 -15697263.34347  21939930.902    21939935.7924
  21574164.220   -18782418.992 9 -14097040.43447  21574163.897    21574167.5414
 00  1 22  1 58 30.0000000  0  7 24 05 04 06 09 10 30
  20772376.684   -24461957.287 9 -19035543.60848  20772376.033    20772380.5414
  20209070.651   -28520036.027 9 -22211218.23348  20209069.602    20209073.5784
  23412262.814   -10101545.121 8  -7850947.34046  23412262.418    23412266.2734
  23275126.191   -13924709.556 8 -10834025.62546  23275125.506    23275130.5604
  24163642.724    -8304331.709 8  -6193750.40645  24163641.989    24163647.6854
  21924896.759   -20545052.977 8 -15758830.87247  21924895.411    21924900.3154
  21560611.021   -18853641.376 9 -14152538.35947  21560610.690    21560614.3324
 00  1 22  1 59  0.0000000  0  7 24 05 04 06 09 10 30
  20781765.230   -24412620.207 9 -18997099.12248  20781764.554    20781769.0714
  20209855.326   -28515912.472 9 -22208005.05848  20209854.269    20209858.2414
  23430628.116   -10005034.811 8  -7775744.49046  23430627.724    23430631.5714
  23262384.265   -13991668.388 8 -10886201.28546  23262383.597    23262388.6294
  24180987.201    -8213186.131 8  -6122727.88945  24180986.481    24180992.0934
  21909935.478   -20623674.813 9 -15820094.58747  21909934.128    21909939.0094
  21547130.117   -18924483.742 9 -14207740.17047  21547129.793    21547133.4334
 00  1 22  1 59 30.0000000  0  7 24 05 04 06 09 10 30
  20791217.732   -24362946.896 9 -18958392.63448  20791217.080    20791221.5774
  20210744.325   -28511240.611 9 -22204364.63148  20210743.254    20210747.2394
  23449008.456    -9908445.562 8  -7700480.14345  23449008.039    23449011.9374
  23249652.215   -14058575.458 8 -10938336.60946  23249651.551    23249656.5784
  24198326.555    -8122067.082 8  -6051726.04145  24198325.818    24198331.3624
  21895044.932   -20701924.815 8 -15881068.56347  21895043.577    21895048.4664
  21533725.545   -18994925.140 9 -14262629.53247  21533725.232    21533728.8564
 00  1 22  2  0  0.0000000  0  7 24 05 04 06 09 10 30
  20800729.614   -24312961.533 9 -18919442.99048  20800728.945    20800733.4384
  20211734.243   -28506038.470 9 -22200311.00148  20211733.178    20211737.1524
  23467404.529    -9811773.253 8  -7625151.07145  23467404.085    23467408.0194
  23236930.502   -14125428.227 8 -10990429.61846  23236929.848    23236934.8544
  24215662.970    -8030963.587 8  -5980736.31445  24215662.246    24215667.7784
  21880224.771   -20779804.902 8 -15941754.28847  21880223.437    21880228.3104
  21520396.866   -19064967.703 9 -14317208.11347  21520396.550    21520400.1734
 00  1 22  2  0 30.0000000  0  7 24 05 04 06 09 10 30
  20810297.500   -24262681.804 9 -18880263.97248  20810296.841    20810301.3164
  20212820.216   -28500331.653 9 -22195864.12048  20212819.146    20212823.1094
  23485812.094    -9715040.761 8  -7549775.10745  23485811.681    23485815.5744
  23224216.360   -14192241.391 8 -11042491.77646  23224215.690    23224220.6884
  24232995.377    -7939881.122 8  -5909762.96345  24232994.657    24233000.1624
  21865474.194   -20857319.358 9 -16002155.11847  21865472.858    21865477.7524
  21507140.491   -19134630.146 9 -14371490.49947  21507140.177    21507143.7894
 00  1 22  2  1  0.0000000  0  7 24 05 04 06 09 10 30
  20819918.348   -24212124.040 9 -18840868.29948  20819917.681    20819922.1744
  20214000.857   -28494127.394 9 -22191029.61548  20213999.789    20214003.7454
  23504228.448    -9618262.239 8  -7474363.25445  23504228.002    23504231.9574
  23211506.620   -14259031.115 8 -11094535.65146  23211505.978    23211510.9544
  24250323.348    -7848822.190 8  -5838807.96145  24250322.690    24250328.1194
  21850793.795   -20934465.157 9 -16062268.67147  21850792.451    21850797.3524
  21493953.770   -19203926.886 9 -14425487.92147  21493953.446    21493957.0474
 00  1 22  2  1 30.0000000  0  7 24 05 04 06 09 10 30
  20829588.198   -24161308.481 9 -18801271.75348  20829587.537    20829592.0174
  20215274.455   -28487434.458 9 -22185814.33248  20215273.397    20215277.3364
  23522650.339    -9521454.343 8  -7398928.52545  23522649.908    23522653.9064
  23198799.839   -14325805.562 8 -11146567.63746  23198799.215    23198804.1264
  24267645.676    -7757792.915 8  -5767876.07345  24267644.959    24267650.4014
  21836184.568   -21011236.782 8 -16122090.67147  21836183.225    21836188.1134
  21480834.615   -19272868.185 9 -14479208.37547  21480834.308    21480837.8964
 00  1 22  2  2  0.0000000  0  7 24 05 04 06 09 10 30
  20839306.245   -24110239.728 9 -18761477.90948  20839305.569    20839310.0584
  20216640.599   -28480255.306 9 -22180220.17748  20216639.522    20216643.4624
  23541074.753    -9424633.461 8  -7323483.68545  23541074.333    23541078.2514
  23186093.203   -14392579.288 8 -11198599.05646  23186092.562    23186097.4844
  24284961.082    -7666800.164 8  -5696972.63645  24284960.352    24284965.8324
  21821647.492   -21087629.400 8 -16181617.33847  21821646.169    21821651.0344
  21467782.840   -19341455.523 9 -14532653.01347  21467782.543    21467786.1354
 00  1 22  2  2 30.0000000  0  7 24 05 04 06 09 10 30
  20849076.204   -24058898.312 9 -18721471.60448  20849075.535    20849080.0134
  20218101.072   -28472580.466 9 -22174239.76948  20218100.011    20218103.9274
  23559499.559    -9327810.332 8  -7248037.09445  23559499.128    23559503.0654
  23173385.996   -14459355.878 8 -11250632.70746  23173385.359    23173390.2304
  24302267.880    -7575852.355 8  -5626104.22945  24302267.080    24302272.6064
  21807181.060   -21163650.775 9 -16240854.72647  21807179.734    21807184.5864
  21454802.216   -19409669.102 9 -14585806.41447  21454801.910    21454805.4904
 00  1 22  2  3  0.0000000  0  7 24 05 04 06 09 10 30
  20858901.931   -24007263.845 9 -18681236.94448  20858901.253    20858905.7384
  20219660.730   -28464384.150 9 -22167853.01748  20219659.681    20219663.5874
  23577925.518    -9230981.116 8  -7172585.76545  23577925.112    23577929.0324
  23160680.540   -14526123.425 8 -11302659.31546  23160679.865    23160684.7204
  24319567.327    -7484943.298 8  -5555266.01845  24319566.564    24319572.0064
  21792785.853   -21239298.045 8 -16299800.60247  21792784.509    21792789.3674
  21441895.753   -19477492.790 9 -14638656.00147  21441895.455    21441899.0374
 00  1 22  2  3 30.0000000  0  7 24 05 04 06 09 10 30
  20868789.899   -23955302.001 9 -18640747.18448  20868789.238    20868793.6984
  20221322.091   -28455653.622 9 -22161049.99948  20221321.031    20221324.9474
  23596352.749    -9134145.592 8  -7097129.49845  23596352.295    23596356.3014
  23147978.860   -14592871.035 8 -11354670.38446  23147978.189    23147983.0084
  24336859.720    -7394071.074 8  -5484456.49545  24336858.983    24336864.4804
  21778463.544   -21314562.008 9 -16358447.80247  21778462.205    21778467.0594
  21429069.119   -19544897.116 9 -14691178.81747  21429068.814    21429072.3894
 00  1 22  2  4  0.0000000  0  7 24 05 04 06 09 10 30
  20878745.693   -23902983.874 9 -18599979.80448  20878745.035    20878749.5034
  20223088.304   -28446372.187 9 -22153817.70248  20223087.238    20223091.1564
  23614782.400    -9037297.013 8  -7021663.08145  23614782.017    23614785.9814
  23135282.127   -14659592.581 8 -11406661.13446  23135281.428    23135286.2674
  24354147.748    -7303221.613 8  -5413664.73045  24354147.015    24354152.5104
  21764217.876   -21389423.538 9 -16416781.41347  21764216.536    21764221.3674
  21416325.288   -19611866.319 9 -14743362.57147  21416324.977    21416328.5434
 00  1 22  2  4 30.0000000  0  7 24 05 04 06 09 10 30
  20888769.193   -23850310.122 9 -18558935.31348  20888768.517    20888772.9794
  20224963.200   -28436519.310 9 -22146140.12648  20224962.140    20224966.0534
  23633216.796    -8940423.777 8  -6946177.43645  23633216.435    23633220.3114
  23122593.774   -14726270.006 8 -11458617.52146  23122593.072    23122597.8654
  24371432.507    -7212389.457 8  -5342886.42945  24371431.779    24371437.2174
  21750053.146   -21463859.591 9 -16474783.48747  21750051.803    21750056.6204
  21403664.328   -19678399.983 9 -14795206.94547  21403664.002    21403667.5614
 00  1 22  2  5  0.0000000  0  7 24 05 04 06 09 10 30
  20898857.840   -23797293.852 9 -18517623.92648  20898857.172    20898861.6234
  20226948.346   -28426087.306 9 -22138011.28348  20226947.286    20226951.1904
  23651658.005    -8843514.283 8  -6870663.54145  23651657.658    23651661.5424
  23109916.807   -14792887.489 8 -11510527.18346  23109916.118    23109920.9014
  24388716.619    -7121560.917 8  -5272110.95645  24388715.973    24388721.3784
  21735971.904   -21537856.903 9 -16532443.68547  21735970.561    21735975.3614
  21391084.960   -19744504.676 9 -14846717.06247  21391084.650    21391088.1884
 00  1 22  2  5 30.0000000  0  7 24 05 04 06 09 10 30
  20909007.482   -23743957.133 9 -18476062.83748  20909006.806    20909011.2624
  20229041.708   -28415086.679 9 -22129439.35648  20229040.657    20229044.5524
  23670105.122    -8746573.952 8  -6795125.61745  23670104.738    23670108.7064
  23097251.851   -14859442.069 8 -11562387.83446  23097251.206    23097255.9894
  24405996.778    -7030753.145 8  -5201351.65645  24405996.081    24406001.5594
  21721972.665   -21611423.323 9 -16589768.13447  21721971.332    21721976.1044
  21378584.109   -19810197.069 9 -14897905.89947  21378583.784    21378587.3194
 00  1 22  2  6  0.0000000  0  7 24 05 04 06 09 10 30
  20919215.070   -23690315.878 9 -18434264.44847  20919214.389    20919218.8344
  20231246.731   -28403499.103 9 -22120410.06748  20231245.690    20231249.5634
  23688562.334    -8649580.536 8  -6719546.32345  23688561.920    23688565.9714
  23084602.677   -14925913.787 8 -11614183.91446  23084602.033    23084606.7504
  24423275.290    -6939953.830 8  -5130598.96745  24423274.549    24423280.0784
  21708057.518   -21684547.803 9 -16646748.20447  21708056.166    21708060.9224
  21366162.231   -19875474.416 9 -14948771.32947  21366161.924    21366165.4304
 00  1 22  2  6 30.0000000  0  7 24 05 04 06 09 10 30
  20929475.200   -23636398.389 9 -18392250.81347  20929474.546    20929478.9774
  20233559.450   -28391345.602 9 -22110939.80248  20233558.399    20233562.2884
  23707029.140    -8552536.723 8  -6643927.75345  23707028.785    23707032.7794
  23071968.401   -14992307.262 8 -11665919.03046  23071967.759    23071972.4414
  24440548.500    -6849182.643 8  -5059868.17945  24440547.791    24440553.3204
  21694222.486   -21757251.060 9 -16703400.05847  21694221.133    21694225.8664
  21353817.849   -19940344.380 9 -14999319.31847  21353817.550    21353821.0494
 00  1 22  2  7  0.0000000  0  7 24 05 04 06 09 10 30
  20939786.723   -23582211.016 9 -18350026.87847  20939786.048    20939790.4974
  20235975.796   -28378647.493 9 -22101045.16348  20235974.736    20235978.6384
  23725503.674    -8455452.425 8  -6568277.64445  23725503.286    23725507.2784
  23059345.961   -15058638.333 8 -11717605.51846  23059345.277    23059349.9954
  24457814.344    -6758450.339 8  -4989167.70245  24457813.607    24457819.1144
  21680464.183   -21829551.295 9 -16759737.86447  21680462.838    21680467.5394
  21341549.970   -20004812.306 9 -15049554.03347  21341549.673    21341553.1574
 00  1 22  2  7 30.0000000  0  7 24 05 04 06 09 10 30
  20950148.261   -23527760.834 9 -18307598.15447  20950147.585    20950152.0024
  20238492.041   -28365424.514 9 -22090741.53748  20238490.974    20238494.8794
  23743986.168    -8358326.161 8  -6492594.81545  23743985.771    23743989.7854
  23046731.077   -15124929.885 8 -11769261.20246  23046730.391    23046735.0924
  24475068.589    -6667778.883 8  -4918514.63945  24475067.913    24475073.3524
  21666783.293   -21901444.742 9 -16815758.69647  21666781.949    21666786.6344
  21329359.901   -20068871.437 9 -15099470.20547  21329359.622    21329363.0834
 00  1 22  2  8  0.0000000  0  7 24 05 04 06 09 10 30
  20960557.034   -23473062.231 9 -18264975.85847  20960556.349    20960560.7724
  20241103.666   -28351700.198 9 -22080047.26048  20241102.616    20241106.5134
  23762476.231    -8261160.262 8  -6416881.12645  23762475.811    23762479.7624
  23034119.312   -15191204.801 8 -11820903.94346  23034118.631    23034123.3394
  24492309.671    -6577176.427 8  -4847915.34445  24492308.997    24492314.4824
  21653180.990   -21972925.030 9 -16871457.59147  21653179.656    21653184.3284
  21317248.387   -20132517.556 9 -15149064.55347  21317248.116    21317251.5734
 00  1 22  2  8 30.0000000  0  7 24 05 04 06 09 10 30
  20971012.902   -23418116.159 9 -18222160.72347  20971012.240    20971016.6714
  20243807.048   -28337493.876 9 -22068977.38948  20243805.995    20243809.8914
  23780972.169    -8163963.481 8  -6341143.35345  23780971.816    23780975.6894
  23021506.946   -15257483.000 8 -11872549.23046  23021506.243    23021510.9384
  24509533.974    -6486662.225 8  -4777384.81545  24509533.313    24509538.7534
  21639656.814   -22043994.986 9 -16926836.74347  21639655.478    21639660.1374
  21305213.369   -20195761.960 9 -15198345.87147  21305213.078    21305216.5524
 00  1 22  2  9  0.0000000  0  7 24 05 04 06 09 10 30
  20981516.463   -23362919.494 9 -18179150.32947  20981515.799    20981520.2174
  20246602.862   -28322801.703 9 -22057528.93848  20246601.799    20246605.7044
  23799471.150    -8066750.397 8  -6265392.88845  23799470.849    23799474.7544
  23008892.625   -15323771.458 8 -11924202.51446  23008891.936    23008896.6154
  24526739.269    -6396248.004 8  -4706932.19845  24526738.632    24526744.0624
  21626211.701   -22114649.422 9 -16981892.12047  21626210.356    21626215.0314
  21293254.334   -20258607.005 9 -15247316.00547  21293254.047    21293257.5114
 00  1 22  2  9 30.0000000  0  7 24 05 04 06 09 10 30
  20992068.846   -23307466.302 9 -18135940.03647  20992068.184    20992072.5984
  20249492.258   -28307617.918 9 -22045697.41148  20249491.199    20249495.0754
  23817970.853    -7969533.751 8  -6189639.63445  23817970.593    23817974.4354
  22996276.605   -15390068.902 8 -11975862.79746  22996275.899    22996280.5664
  24543924.139    -6305941.228 7  -4636563.31045  24543923.425    24543928.9614
  21612847.897   -22184876.451 9 -17036614.45247  21612846.558    21612851.2264
  21281374.281   -20321037.122 9 -15295962.81847  21281373.982    21281377.4414
 00  1 22  2 10  0.0000000  0  7 24 05 04 06 09 10 30
  21002671.056   -23251751.122 9 -18092525.60147  21002670.384    21002674.8134
  20252479.864   -28291918.055 9 -22033463.74748  20252478.791    20252482.6734
  23836467.855    -7872331.328 8  -6113897.48345  23836467.567    23836471.4334
  22983662.419   -15456356.609 8 -12027515.49846  22983661.752    22983666.3524
  24561091.273    -6215727.224 7  -4566266.70845  24561090.601    24561096.1014
  21599566.936   -22254668.021 9 -17090997.46647  21599565.612    21599570.3004
  21269574.591   -20383044.748 9 -15344280.41447  21269574.290    21269577.7494
 00  1 22  2 10 30.0000000  0  7 24 05 04 06 09 10 30
  21013326.285   -23195757.528 9 -18048894.21747  21013325.627    21013330.0454
  20255571.320   -28275672.168 9 -22020804.61348  20255570.270    20255574.1364
  23854961.781    -7775144.982 8  -6038167.83945  23854961.424    23854965.4284
  22971053.421   -15522617.046 8 -12079146.95846  22971052.751    22971057.3364
  24578244.765    -6125585.257 8  -4496026.22645  24578244.146    24578249.5864
  21586368.766   -22324024.685 9 -17145041.59647  21586367.459    21586372.1204
  21257856.912   -20444621.306 9 -15392262.11847  21257856.612    21257860.0464
 00  1 22  2 11  0.0000000  0  7 24 05 04 06 09 10 30
  21024035.742   -23139478.929 9 -18005040.75647  21024035.093    21024039.5034
  20258772.737   -28258848.587 9 -22007695.32648  20258771.694    20258775.5724
  23873452.229    -7677977.185 8  -5962452.65945  23873451.923    23873455.7774
  22958451.522   -15588840.141 8 -12130749.31846  22958450.875    22958455.4374
  24595390.045    -6035486.005 7  -4425819.03345  24595389.386    24595394.8354
  21573255.727   -22392934.056 9 -17198737.18647  21573254.397    21573259.0694
  21246226.172   -20505741.080 9 -15439887.88647  21246225.874    21246229.2944
 00  1 22  2 11 30.0000000  0  7 24 05 04 06 09 10 30
  21034799.061   -23082917.286 9 -17960966.73547  21034798.392    21034802.7974
  20262086.360   -28241435.400 9 -21994126.59948  20262085.310    20262089.2084
  23891941.969    -7580812.857 8  -5886740.19445  23891941.643    23891945.5224
  22945859.825   -15655009.714 8 -12182309.96146  22945859.162    22945863.7644
  24612532.518    -5945401.850 7  -4355623.63945  24612531.859    24612537.3194
  21560231.357   -22461377.428 9 -17252069.65847  21560230.033    21560234.6914
  21234683.143   -20566400.063 9 -15487154.59147  21234682.845    21234686.2744
 00  1 22  2 12  0.0000000  0  7 24 05 04 06 09 10 30
  21045614.566   -23026081.367 9 -17916678.99547  21045613.905    21045618.3134
  20265512.557   -28223430.408 9 -21980096.73148  20265511.518    20265515.3984
  23910434.814    -7483632.114 8  -5811014.91345  23910434.470    23910438.3884
  22933280.409   -15721114.809 8 -12233820.38646  22933279.741    22933284.2964
  24629672.532    -5855330.385 7  -4285438.12045  24629671.793    24629677.3924
  21547294.226   -22529362.453 9 -17305044.97347  21547292.899    21547297.5364
  21223223.315   -20626621.710 9 -15534080.51947  21223223.028    21223226.4424
 00  1 22  2 12 30.0000000  0  7 24 05 04 06 09 10 30
  21056482.358   -22968970.781 9 -17872177.23147  21056481.681    21056486.1044
  20269049.418   -28204844.148 9 -21965613.92848  20269048.380    20269052.2594
  23928932.557    -7386425.733 8  -5735269.67345  23928932.204    23928936.1334
  22920711.432   -15787164.836 8 -12285287.89446  22920710.772    22920715.3204
  24646806.974    -5765288.340 7  -4215275.51645  24646806.251    24646811.8384
  21534443.474   -22596893.663 9 -17357666.67347  21534442.126    21534446.7774
  21211845.100   -20686414.623 9 -15580672.36847  21211844.805    21211848.2114
 00  1 22  2 13  0.0000000  0  7 24 05 04 06 09 10 30
  21067401.512   -22911590.047 9 -17827464.96347  21067400.862    21067405.2804
  20272692.438   -28185700.076 9 -21950696.46648  20272691.378    20272695.2414
  23947435.239    -7289193.368 8  -5659504.17445  23947434.866    23947438.8244
  22908153.046   -15853159.320 8 -12336712.13046  22908152.397    22908156.9284
  24663931.062    -5675300.760 7  -4145155.33045  24663930.366    24663935.9404
  21521680.337   -22663964.308 9 -17409929.49447  21521679.012    21521683.6064
  21200547.869   -20745781.725 9 -15626932.42047  21200547.556    21200550.9604
 00  1 22  2 13 30.0000000  0  7 24 05 04 06 09 10 30
  21078371.365   -22853943.378 9 -17782545.47047  21078370.708    21078375.1224
  20276435.555   -28166029.924 9 -21935369.06748  20276434.497    20276438.3424
  23965943.061    -7191934.126 8  -5583717.73545  23965942.743    23965946.6174
  22895605.466   -15919097.188 8 -12388092.24346  22895604.812    22895609.3474
  24681038.916    -5585398.035 7  -4075101.31045  24681038.123    24681043.9404
  21509002.197   -22730588.275 9 -17461844.24547  21509000.849    21509005.4494
  21189329.254   -20804735.843 9 -15672870.66047  21189328.953    21189332.3304
 00  1 22  2 14  0.0000000  0  7 24 05 04 06 09 10 30
  21089391.519   -22796032.147 9 -17737419.82647  21089390.848    21089395.2554
  20280277.771   -28145838.861 9 -21919635.77048  20280276.717    20280280.5684
  23984453.380    -7094661.679 8  -5507921.00845  23984453.098    23984456.9064
  22883064.024   -15985002.901 8 -12439447.30846  22883063.315    22883067.8614
  24698125.383    -5495607.444 7  -4005134.66945  24698124.724    24698130.5864
  21496406.806   -22796777.523 9 -17513420.26447  21496405.458    21496410.0354
  21178192.724   -20863258.692 9 -15718472.84847  21178192.413    21178195.7774
 00  1 22  2 14 30.0000000  0  7 24 05 04 06 09 10 30
  21100462.531   -22737853.492 9 -17692085.80147  21100461.844    21100466.2504
  20284217.867   -28125133.480 9 -21903501.70448  20284216.809    20284220.6704
  24002964.207    -6997386.491 8  -5432122.14645  24002963.914    24002967.7124
  22870527.748   -16050881.390 8 -12490781.16046  22870527.044    22870531.5384
  24715191.184    -5405926.375 7  -3935253.34845  24715190.539    24715196.3934
  21483895.638   -22862524.176 9 -17564651.40247  21483894.280    21483898.8674
  21167144.791   -20921315.811 9 -15763712.13247  21167144.451    21167147.8204
 00  1 22  2 15  0.0000000  0  7 24 05 04 06 09 10 30
  21111581.790   -22679421.317 9 -17646554.22547  21111581.097    21111585.5064
  20288256.064   -28103912.580 9 -21886965.93548  20288255.003    20288258.8794
  24021475.467    -6900109.234 8  -5356321.66245  24021475.179    24021479.0634
  22857997.979   -16116725.674 8 -12542088.36246  22857997.298    22858001.7664
  24732235.105    -5316359.825 7  -3865461.26845  24732234.321    24732240.3514
  21471469.962   -22927821.328 9 -17615532.27647  21471468.602    21471473.1844
  21156186.247   -20978903.149 9 -15808585.35247  21156185.937    21156189.2754
 00  1 22  2 15 30.0000000  0  7 24 05 04 06 09 10 30
  21122745.821   -22620753.786 9 -17600839.25847  21122745.148    21122749.5404
  20292396.564   -28082154.179 9 -21870011.33448  20292395.517    20292399.3754
  24039985.707    -6802837.314 8  -5280525.34845  24039985.304    24039989.2644
  22845474.367   -16182537.428 8 -12593370.21646  22845473.698    22845478.1484
  24749258.187    -5226902.419 7  -3795754.24945  24749257.396    24749263.4724
  21459131.493   -22992660.367 9 -17666056.18147  21459130.143    21459134.7424
  21145317.814   -21036017.127 9 -15853089.71847  21145317.481    21145320.8144
 00  1 22  2 16  0.0000000  0  7 24 05 04 06 09 10 30
  21133954.207   -22561853.174 9 -17554942.67247  21133953.528    21133957.9224
  20296640.284   -28059853.302 9 -21852634.02748  20296639.219    20296643.1024
  24058494.189    -6705574.728 8  -5204736.30545  24058493.821    24058497.7454
  22832958.884   -16248306.555 8 -12644618.85446  22832958.202    22832962.6564
  24766262.390    -5137544.931 7  -3726125.07545  24766261.623    24766267.5304
  21446883.772   -23057022.473 9 -17716208.45147  21446882.412    21446887.0054
  21134539.816   -21092655.881 9 -15897223.79047  21134539.473    21134542.7984
 00  1 22  2 16 30.0000000  0  7 24 05 04 06 09 10 30
  21145205.849   -22502725.336 9 -17508869.01847  21145205.169    21145209.5744
  20300986.896   -28037011.587 9 -21834835.28348  20300985.840    20300989.7104
  24077000.263    -6608324.855 8  -5128957.16145  24076999.910    24077003.7714
  22820454.480   -16314017.644 8 -12695822.25846  22820453.818    22820458.2524
  24783247.765    -5048286.663 7  -3656573.20645  24783247.055    24783252.9354
  21434727.856   -23120902.095 9 -17765984.75847  21434726.508    21434731.1064
  21123847.046   -21148846.617 9 -15941008.74647  21123846.705    21123850.0184
 00  1 22  2 17  0.0000000  0  7 24 05 04 06 09 10 30
  21156499.700   -22443375.639 9 -17462622.49247  21156499.040    21156503.4334
  20305438.090   -28013620.383 9 -21816608.37248  20305437.048    20305440.9094
  24095501.453    -6511100.611 8  -5053198.00445  24095501.002    24095504.8914
  22807961.279   -16379669.777 8 -12746979.74246  22807960.588    22807965.0344
  24800213.178    -4959133.503 8  -3587103.24045  24800212.450    24800218.3114
  21422664.201   -23184296.685 9 -17815383.12047  21422662.859    21422667.4634
  21113237.098   -21204602.101 9 -15984454.55347  21113236.750    21113240.0734
 00  1 22  2 17 30.0000000  0  7 24 05 04 06 09 10 30
  21167838.995   -22383787.399 9 -17416190.09147  21167838.340    21167842.7114
  20309992.491   -27989686.912 9 -21797958.91248  20309991.436    20309995.2964
  24113997.137    -6413905.202 8  -4977461.31045  24113996.647    24114000.5594
  22795477.045   -16445274.705 8 -12798100.42346  22795476.330    22795480.7754
  24817160.592    -4870074.973 7  -3517707.04545  24817159.758    24817165.7274
  21410691.744   -23247212.328 9 -17864408.27347  21410690.408    21410694.9914
  21102712.709   -21259907.914 9 -16027549.96347  21102712.376    21102715.6974
 00  1 22  2 18  0.0000000  0  7 24 05 04 06 09 10 30
  21179229.200   -22323931.235 9 -17369548.91647  21179228.525    21179232.9254
  20314648.444   -27965219.764 9 -21778893.60148  20314647.392    20314651.2444
  24132487.307    -6316738.395 8  -4901746.90645  24132486.838    24132490.6464
  22783000.480   -16510839.253 8 -12849189.63946  22782999.758    22783004.2334
  24834088.225    -4781119.726 7  -3448391.31445  24834087.399    24834093.2874
  21398809.105   -23309655.781 9 -17913065.49247  21398807.764    21398812.3584
  21092276.381   -21314751.110 9 -16070284.89747  21092276.051    21092279.3624
 00  1 22  2 18 30.0000000  0  7 24 05 04 06 09 10 30
  21190669.876   -22263810.043 9 -17322701.22947  21190669.215    21190673.5944
  20319409.188   -27940201.753 9 -21759399.04748  20319408.146    20319412.0094
  24150974.055    -6219589.788 8  -4826046.68545  24150973.519    24150977.3804
  22770531.686   -16576362.959 8 -12900247.02646  22770530.950    22770535.4504
  24850995.540    -4692271.507 8  -3379158.97845  24850994.754    24851000.6054
  21387017.475   -23371621.141 9 -17961350.17047  21387016.147    21387020.7054
  21081931.847   -21369111.946 9 -16112643.96647  21081931.523    21081934.8364
 00  1 22  2 19  0.0000000  0  7 24 05 04 06 09 10 30
  21202161.082   -22203423.423 9 -17275646.71247  21202160.410    21202164.7884
  20324273.621   -27914638.861 9 -21739479.90948  20324272.569    20324276.4504
  24169459.428    -6122448.641 7  -4750352.26545  24169458.832    24169462.6764
  22758070.742   -16641845.501 8 -12951272.34946  22758070.016    22758074.5264
  24867884.640    -4603519.185 8  -3310001.33745  24867883.892    24867889.6434
  21375317.928   -23433102.614 9 -18009257.79547  21375316.606    21375321.1564
  21071684.163   -21422963.867 9 -16154606.47747  21071683.847    21071687.1394
 00  1 22  2 19 30.0000000  0  7 24 05 04 06 09 10 30
  21213702.604   -22142772.412 9 -17228386.17947  21213701.930    21213706.3044
  20329240.036   -27888540.141 9 -21719143.24548  20329238.981    20329242.8584
  24187945.185    -6025305.016 7  -4674655.93645  24187944.704    24187948.5124
  22745616.313   -16707293.620 8 -13002270.83946  22745615.618    22745620.0874
  24884754.885    -4514865.640 8  -3240920.68845  24884754.203    24884759.9074
  21363711.483   -23494094.787 9 -18056784.14447  21363710.161    21363714.6924
  21061531.115   -21476318.330 9 -16196181.36147  21061530.806    21061534.0884
 00  1 22  2 20  0.0000000  0  7 24 05 04 06 09 10 30
  21225291.161   -22081874.063 9 -17180932.91647  21225290.487    21225294.8774
  20334307.621   -27861909.922 9 -21698392.42548  20334306.572    20334310.4334
  24206430.547    -5928163.820 7  -4598961.48645  24206430.027    24206433.9244
  22733171.083   -16772693.604 8 -13053231.81746  22733170.394    22733174.8364
  24901603.528    -4426325.664 8  -3171928.57145  24901602.819    24901608.5944
  21352200.234   -23554586.788 9 -18103920.75147  21352198.920    21352203.4454
  21051469.412   -21529192.796 9 -16237382.22247  21051469.101    21051472.3774
 00  1 22  2 20 30.0000000  0  7 24 05 04 06 09 10 30
  21236920.229   -22020762.894 9 -17133313.81747  21236919.566    21236923.9354
  20339473.001   -27834765.633 9 -21677241.03248  20339471.957    20339475.8284
  24224915.465    -5831024.582 7  -4523268.56545  24224914.970    24224918.9114
  22720734.536   -16838047.922 8 -13104157.21946  22720733.853    22720738.2754
  24918430.845    -4337897.433 8  -3103023.51645  24918430.100    24918435.9014
  21340784.547   -23614576.674 9 -18150666.09847  21340783.233    21340787.7384
  21041495.458   -21581606.055 9 -16278223.70047  21041495.166    21041498.4114
 00  1 22  2 21  0.0000000  0  7 24 05 04 06 09 10 30
  21248589.638   -21959439.747 9 -17085529.54347  21248588.958    21248593.3304
  20344733.633   -27807120.986 9 -21655699.75048  20344732.575    20344736.4364
  24243395.466    -5733911.704 7  -4447596.19445  24243395.027    24243398.8334
  22708303.097   -16903375.432 8 -13155061.72446  22708302.430    22708306.8464
  24935234.352    -4249594.634 8  -3034216.20145  24935233.597    24935239.4124
  21329462.186   -23674076.005 9 -18197029.19747  21329460.852    21329465.3574
  21031605.700   -21633577.163 9 -16318720.64847  21031605.393    21031608.6544
 00  1 22  2 21 30.0000000  0  7 24 05 04 06 09 10 30
  21260300.110   -21897900.775 9 -17037577.09347  21260299.441    21260303.8114
  20350091.513   -27778965.069 9 -21633760.07348  20350090.455    20350094.3234
  24261867.896    -5636838.213 7  -4371954.51145  24261867.449    24261871.3464
  22695876.318   -16968678.378 8 -13205947.07946  22695875.632    22695880.0434
  24952010.685    -4161434.394 8  -2965519.92745  24952010.063    24952015.7174
  21318232.714   -23733087.179 9 -18243011.91347  21318231.415    21318235.8914
  21021799.247   -21685110.073 9 -16358876.13847  21021798.951    21021802.2124
 00  1 22  2 22  0.0000000  0  7 24 05 04 06 09 10 30
  21272049.945   -21836154.946 9 -16989463.45547  21272049.267    21272053.6404
  20355549.671   -27750282.306 9 -21611409.86748  20355548.617    20355552.4914
  24280332.999    -5539803.323 7  -4296342.90645  24280332.665    24280336.4424
  22683455.931   -17033947.863 8 -13256806.36546  22683455.231    22683459.6514
  24968760.388    -4073414.221 8  -2896932.80845  24968759.747    24968765.3524
  21307096.826   -23791606.566 9 -18288611.41747  21307095.525    21307099.9964
  21012082.744   -21736170.665 9 -16398663.59147  21012082.428    21012085.6934
 00  1 22  2 22 30.0000000  0  6 24 05 04 06 10 30
  21283846.494   -21774163.450 9 -16941158.38847  21283845.840    21283850.2014
  20361120.097   -27721009.521 9 -21588599.90648  20361119.051    20361122.9044
  24298799.419    -5442761.857 7  -4220726.18245  24298799.011    24298802.8494
  22671050.153   -17099140.672 8 -13307605.90946  22671049.439    22671053.8504
  21296061.810   -23849596.039 9 -18333798.00547  21296060.494    21296064.9864
  21002468.530   -21786693.458 9 -16438031.98147  21002468.224    21002471.4874
 00  1 22  2 23  0.0000000  0  6 24 05 04 06 10 30
  21295695.143   -21711898.464 9 -16892640.21647  21295694.487    21295698.8374
  20366809.751   -27691110.131 9 -21565301.68348  20366808.692    20366812.5694
  24317270.014    -5345697.856 7  -4145091.89345  24317269.685    24317273.4614
  22658664.778   -17164225.845 8 -13358321.58046  22658664.063    22658668.4694
  21285132.750   -23907028.488 9 -18378550.54847  21285131.430    21285135.9264
  20992964.025   -21836640.023 9 -16476951.36247  20992963.734    20992966.9834
 00  1 22  2 23 30.0000000  0  6 24 05 04 06 10 30
  21307576.535   -21649461.254 9 -16843987.83947  21307575.882    21307580.2084
  20372600.788   -27660677.995 9 -21541588.33548  20372599.743    20372603.6124
  24335730.498    -5248687.290 7  -4069499.25345  24335730.125    24335733.9534
  22646285.852   -17229277.480 8 -13409011.11546  22646285.123    22646289.5144
  21274294.872   -23963981.913 9 -18422929.82647  21274293.543    21274298.0374
  20983554.168   -21886089.036 9 -16515483.04447  20983553.858    20983557.1064
 00  1 22  2 24  0.0000000  0  6 24 05 04 06 10 30
  21319488.299   -21586864.534 9 -16795211.16647  21319487.646    21319491.9814
  20378490.285   -27629728.484 9 -21517471.83448  20378489.225    20378493.0994
  24354181.683    -5151725.287 7  -3993944.44545  24354181.301    24354185.1424
  22633914.654   -17294288.451 8 -13459668.95546  22633913.957    22633918.3044
  21263549.665   -24020448.344 9 -18466929.62747  21263548.332    21263552.8174
  20974237.633   -21935047.710 9 -16553632.64147  20974237.318    20974240.5524
 00  1 22  2 24 30.0000000  0  6 24 05 04 06 10 30
  21331430.928   -21524105.652 9 -16746308.13247  21331430.258    21331434.6064
  20384474.019   -27598283.813 9 -21492969.49748  20384472.953    20384476.8524
  24372621.865    -5054821.612 7  -3918435.07545  24372621.406    24372625.3404
  22621550.147   -17359264.142 8 -13510299.30446  22621549.447    22621553.7934
  21252894.904   -24076439.194 9 -18510558.84847  21252893.578    21252898.0744
  20965008.309   -21983548.106 9 -16591425.13947  20965008.007    20965011.2264
 00  1 22  2 25  0.0000000  0  6 24 05 04 06 10 30
  21343406.092   -21461175.714 9 -16697271.81247  21343405.438    21343409.7994
  20390549.897   -27566354.834 9 -21468089.77548  20390548.837    20390552.7234
  24391049.700    -4957982.560 8  -3842976.06945  24391049.308    24391053.2994
  22609192.059   -17424206.098 8 -13560903.36946  22609191.363    22609195.6994
  21242330.265   -24131956.743 9 -18553819.26247  21242328.932    21242333.4304
  20955862.431   -22031609.995 9 -16628875.94447  20955862.119    20955865.3324
 00  1 22  2 25 30.0000000  0  6 24 05 04 06 10 30
  21355413.970   -21398073.932 9 -16648101.58247  21355413.305    21355417.6514
  20396716.595   -27533948.587 9 -21442838.15948  20396715.528    20396719.4184
  24409465.641    -4861205.888 7  -3767565.67145  24409465.199    24409469.1544
  22596839.399   -17489119.601 8 -13611485.26246  22596838.714    22596843.0384
  21231855.068   -24187004.043 9 -18596713.24947  21231853.763    21231858.2504
  20946798.396   -22079241.801 9 -16665991.62147  20946798.093    20946801.3014
 00  1 22  2 26  0.0000000  0  6 24 05 04 06 10 30
  21367458.331   -21334780.396 9 -16598781.93347  21367457.667    21367462.0034
  20402977.541   -27501047.014 9 -21417200.56748  20402976.483    20402980.3824
  24427870.027    -4764490.077 7  -3692202.69545  24427869.697    24427873.6104
  22584492.622   -17554002.135 8 -13662043.02346  22584491.952    22584496.2604
  21221468.602   -24241585.337 9 -18639244.11147  21221467.284    21221471.7664
  20937818.452   -22126431.608 9 -16702762.87847  20937818.140    20937821.3434
 00  1 22  2 26 30.0000000  0  6 24 05 04 06 10 30
  21379544.902   -21271265.131 9 -16549289.51047  21379544.220    21379548.5604
  20409338.908   -27467617.792 9 -21391151.82648  20409337.839    20409341.7524
  24446266.038    -4667818.197 8  -3616873.95945  24446265.762    24446269.6374
  22572154.427   -17618839.579 8 -13712565.65046  22572153.753    22572158.0664
  21211174.638   -24295680.468 9 -18681396.14847  21211173.330    21211177.7954
  20928929.378   -22173143.902 9 -16739162.05247  20928929.084    20928932.2714
 00  1 22  2 27  0.0000000  0  6 24 05 04 06 10 30
  21391677.806   -21207506.251 9 -16499607.25347  21391677.130    21391681.4774
  20415804.704   -27433639.880 9 -21364675.53248  20415803.633    20415807.5444
  24464657.236    -4571171.895 8  -3541565.14645  24464656.870    24464660.8534
  22559827.115   -17683619.802 8 -13763043.68746  22559826.437    22559830.7294
  21200980.564   -24349250.717 9 -18723139.18347  21200979.227    21200983.7204
  20920138.759   -22219338.743 9 -16775158.01547  20920138.450    20920141.6444
 00  1 22  2 27 30.0000000  0  6 24 05 04 06 10 30
  21403859.316   -21143491.880 9 -16449725.91447  21403858.637    21403862.9604
  20422376.026   -27399107.351 9 -21337767.07048  20422374.964    20422378.8664
  24483047.614    -4474529.827 8  -3466259.64045  24483047.289    24483051.1934
  22547511.374   -17748339.218 8 -13813474.34346  22547510.693    22547514.9754
  21190891.833   -24402267.430 9 -18764450.89447  21190890.472    21190894.9764
  20911452.424   -22264985.637 9 -16810727.00947  20911452.123    20911455.3154
 00  1 22  2 28  0.0000000  0  6 24 05 04 06 10 30
  21416091.137   -21079213.210 9 -16399638.62647  21416090.479    21416094.8064
  20429054.229   -27364013.149 9 -21310420.94448  20429053.161    20429057.0674
  24501438.233    -4377886.786 8  -3390953.37245  24501437.897    24501441.7404
  22535210.008   -17812983.177 8 -13863846.21046  22535209.319    22535213.5774
  21180911.073   -24454716.589 9 -18805320.35647  21180909.741    21180914.2164
  20902871.719   -22310077.407 9 -16845863.43547  20902871.413    20902874.6074
 00  1 22  2 28 30.0000000  0  6 24 05 04 06 10 30
  21428370.306   -21014685.665 9 -16349357.40347  21428369.628    21428373.9574
  20435836.279   -27328373.412 9 -21282649.72348  20435835.216    20435839.1104
  24519828.433    -4281245.814 8  -3315648.72245  24519828.076    24519831.9454
  22522923.177   -17877550.429 8 -13914158.29546  22522922.505    22522926.7374
  21171040.055   -24506589.092 9 -18845740.47047  21171038.715    21171043.1954
  20894394.324   -22354626.406 9 -16880576.92447  20894394.032    20894397.2264
 00  1 22  2 29  0.0000000  0  6 24 05 04 06 10 30
  21440690.971   -20949940.036 9 -16298906.25047  21440690.309    21440694.6334
  20442719.262   -27292203.057 9 -21254465.03448  20442718.201    20442722.0904
  24538215.377    -4184622.010 8  -3240357.43145  24538215.007    24538218.8424
  22510647.937   -17942056.942 8 -13964423.05346  22510647.263    22510651.4894
  21161276.949   -24557894.403 9 -18885718.62047  21161275.624    21161280.0934
  20886017.169   -22398648.506 9 -16914879.84847  20886016.871    20886020.0714
 00  1 22  2 29 30.0000000  0  6 24 05 04 06 10 30
  21453047.737   -20885004.773 9 -16248307.32847  21453047.075    21453051.3854
  20449700.620   -27255515.665 9 -21225877.45648  20449699.558    20449703.4504
  24556594.357    -4088039.876 8  -3165098.61745  24556594.044    24556597.7464
  22498383.870   -18006504.897 8 -14014642.19346  22498383.223    22498387.4074
  21151617.349   -24608655.901 9 -18925273.01847  21151616.011    21151620.4924
  20877736.982   -22442161.269 9 -16948785.88047  20877736.674    20877739.8644
 00  1 22  2 30  0.0000000  0  6 24 05 04 06 10 30
  21465434.631   -20819911.165 9 -16197585.02547  21465433.969    21465438.2954
  20456779.782   -27218314.343 9 -21196889.41848  20456778.737    20456782.6344
  24574960.394    -3991525.792 8  -3089892.84345  24574960.059    24574963.8404
  22486129.187   -18070903.600 8 -14064822.94546  22486128.527    22486132.7054
  21142057.242   -24658894.293 9 -18964419.80247  21142055.919    21142060.4024
  20869551.157   -22485177.936 9 -16982305.35147  20869550.841    20869554.0334
 00  1 22  2 30 30.0000000  0  7 17 24 05 04 06 10 30
  25071115.293    -5544785.713 7  -4072408.57145  25071114.249    25071120.8254
  21477834.075   -20754751.751 9 -16146811.44447  21477833.385    21477837.7144
  20463941.425   -27180679.724 9 -21167563.74548  20463940.379    20463944.2824
  24593296.386    -3895169.505 8  -3014810.01145  24593296.095    24593299.8534
  22473865.072   -18135351.823 8 -14115042.28946  22473864.398    22473868.5654
  21132582.262   -24708685.565 9 -19003218.17747  21132580.919    21132585.4024
  20861447.100   -22527764.909 9 -17015489.99547  20861446.801    20861449.9644
 00  1 22  2 31  0.0000000  0  7 17 24 05 04 06 10 30
  25053812.691    -5635711.189 7  -4143259.49145  25053811.657    25053818.2744
  21490259.782   -20689454.179 9 -16095930.20347  21490259.093    21490263.4184
  20471198.546   -27142543.352 9 -21137847.09748  20471197.495    20471201.3944
  24611615.302    -3798902.919 8  -2939797.08145  24611615.013    24611618.6764
  22461602.368   -18199792.497 8 -14165255.75946  22461601.677    22461605.8424
  21123205.619   -24757960.054 9 -19041613.86547  21123204.280    21123208.7634
  20853438.811   -22569848.650 9 -17048282.50347  20853438.505    20853441.6934
 00  1 22  2 31 30.0000000  0  7 17 24 05 04 06 10 30
  25036540.943    -5726474.476 7  -4213984.02745  25036539.954    25036546.5614
  21502727.121   -20623937.664 9 -16044878.36047  21502726.432    21502730.7614
  20478562.723   -27103844.297 9 -21107691.99248  20478561.657    20478565.5814
  24629930.256    -3702657.372 8  -2864800.52945  24629929.844    24629933.4594
  22449356.863   -18264142.867 8 -14215398.85746  22449356.134    22449360.3164
  21113940.061   -24806650.782 9 -19079554.67447  21113938.724    21113943.2044
  20845538.156   -22611366.848 9 -17080634.33447  20845537.855    20845541.0304
 00  1 22  2 32  0.0000000  0  6 17 24 05 06 10 30
  25019295.820    -5817097.755 7  -4284599.47945  25019294.812    25019301.4054
  21515231.268   -20558227.831 9 -15993675.88547  21515230.606    21515234.9364
  20486030.095   -27064603.023 9 -21077114.38548  20486029.047    20486032.9534
  22437122.958   -18328432.252 8 -14265494.44446  22437122.263    22437126.4004
  21104781.119   -24854781.232 9 -19117058.90747  21104779.795    21104784.2664
  20837740.747   -22652342.584 9 -17112563.47047  20837740.433    20837743.6204
 00  1 22  2 32 30.0000000  0  6 17 24 05 06 10 30
  25002083.828    -5907546.762 7  -4355079.13145  25002082.868    25002089.3354
  21527776.451   -20492302.548 9 -15942305.52247  21527775.781    21527780.0994
  20493600.794   -27024818.657 9 -21046113.58648  20493599.756    20493603.6734
  22424904.114   -18392642.372 8 -14315528.26146  22424903.432    22424907.5524
  21095731.894   -24902335.297 9 -19154114.00847  21095730.570    21095735.0494
  20830046.543   -22692775.771 9 -17144069.84047  20830046.229    20830049.4124
 00  1 22  2 33  0.0000000  0  6 17 24 05 06 10 30
  24984901.812    -5997838.446 7  -4425436.20145  24984900.813    24984907.2744
  21540358.768   -20426181.995 9 -15890783.00347  21540358.100    21540362.4154
  20501273.689   -26984497.420 9 -21014694.44248  20501272.644    20501276.5534
  22412700.826   -18456770.937 8 -14365498.53347  22412700.151    22412704.2674
  21086786.714   -24949342.435 9 -19190742.92947  21086785.392    21086789.8614
  20822450.831   -22732691.427 9 -17175172.94047  20822450.518    20822453.6834
 00  1 22  2 33 30.0000000  0  6 17 24 05 06 10 30
  24967746.318    -6087990.655 7  -4495684.58445  24967745.320    24967751.7794
  21552974.141   -20359887.643 9 -15839125.05447  21552973.457    21552977.7794
  20509048.433   -26943640.731 9 -20982858.06248  20509047.392    20509051.3034
  22400512.543   -18520820.723 8 -14415407.41947  22400511.868    22400515.9504
  21077944.550   -24995808.405 9 -19226950.16347  21077943.214    21077947.7054
  20814953.746   -22772088.927 9 -17205872.28047  20814953.428    20814956.5934
 00  1 22  2 34  0.0000000  0  6 17 24 05 06 10 30
  24950620.727    -6177985.735 7  -4565810.53745  24950619.746    24950626.0734
  21565622.139   -20293421.792 9 -15787333.47147  21565621.471    21565625.7924
  20516927.684   -26902235.111 9 -20950593.94648  20516926.637    20516930.5554
  22388337.962   -18584798.383 8 -14465260.10947  22388337.286    22388341.3654
  21069208.286   -25041717.667 9 -19262723.60047  21069206.952    21069211.4194
  20807557.230   -22810957.841 9 -17236159.73647  20807556.918    20807560.0814
 00  1 22  2 34 30.0000000  0  6 17 24 05 06 10 30
  24933523.980    -6267829.175 7  -4635818.34045  24933522.991    24933529.4504
  21578302.319   -20226786.918 9 -15735410.18447  21578301.653    21578305.9794
  20524909.693   -26860289.253 9 -20917908.86748  20524908.661    20524912.5534
  22376177.221   -18648703.199 8 -14515056.03747  22376176.555    22376180.6264
  21060578.169   -25087069.286 9 -19298062.51247  21060576.826    21060581.2914
  20800260.470   -22849302.803 9 -17266038.92247  20800260.140    20800263.2964
 00  1 22  2 35  0.0000000  0  6 17 24 05 06 10 30
  24916454.555    -6357529.470 7  -4705714.59845  24916453.509    24916459.9304
  21591015.516   -20159978.563 9 -15683351.71647  21591014.851    21591019.1744
  20532994.769   -26817802.003 9 -20884801.92248  20532993.724    20532997.6304
  22364030.982   -18712532.063 8 -14564792.78447  22364030.304    22364034.3974
  21052055.794   -25131854.660 9 -19332960.19247  21052054.466    21052058.9054
  20793067.631   -22887101.253 9 -17295492.25147  20793067.299    20793070.4604
 00  1 22  2 35 30.0000000  0  6 17 24 05 06 10 30
  24899413.809    -6447078.641 7  -4775493.10545  24899412.895    24899419.4094
  21603763.796   -20092985.720 9 -15631149.49547  21603763.126    21603767.4524
  20541179.090   -26774793.074 9 -20851288.47448  20541178.028    20541181.9384
  22351898.400   -18776289.116 8 -14614473.57647  22351897.743    22351901.7974
  21043642.648   -25176065.986 9 -19367410.56547  21043641.310    21043645.7494
  20785979.422   -22924349.841 9 -17324517.11748  20785979.106    20785982.2704
 00  1 22  2 36  0.0000000  0  6 17 24 05 06 10 30
  24882400.984    -6536481.497 7  -4845157.61145  24882400.043    24882406.5184
  21616546.185   -20025813.839 9 -15578807.76247  21616545.527    21616549.8234
  20549458.286   -26731285.670 9 -20817386.61048  20549457.227    20549461.1504
  22339779.176   -18839976.056 8 -14664099.73647  22339778.503    22339782.5654
  21035335.691   -25219719.170 9 -19401426.02047  21035334.351    21035338.8024
  20778993.117   -22961062.955 9 -17353124.73348  20778992.813    20778995.9744
 00  1 22  2 36 30.0000000  0  6 17 24 05 06 10 30
  24865411.996    -6625759.055 7  -4914724.49745  24865411.064    24865417.6284
  21629361.906   -19958466.776 9 -15526329.52147  21629361.235    21629365.5464
  20557830.116   -26687291.477 9 -20783105.42548  20557829.061    20557832.9754
  22327671.510   -18903602.084 8 -14713678.42947  22327670.826    22327674.8974
  21027131.492   -25262832.532 9 -19435020.83447  21027130.151    21027134.5854
  20772109.802   -22997235.040 9 -17381310.76748  20772109.488    20772112.6504
 00  1 22  2 37  0.0000000  0  6 17 24 05 06 10 30
  24848450.816    -6714890.425 7  -4984177.47445  24848449.856    24848456.4014
  21642211.326   -19890942.655 9 -15473713.31647  21642210.669    21642214.9974
  20566295.490   -26642805.622 9 -20748441.12848  20566294.431    20566298.3704
  22315575.585   -18967166.391 8 -14763209.03147  22315574.909    22315578.9694
  21019030.881   -25305401.324 9 -19468191.31147  21019029.549    21019033.9904
  20765332.172   -23032851.614 9 -17409063.93148  20765331.890    20765335.0374
 00  1 22  2 37 30.0000000  0  6 17 24 05 06 10 30
  24831520.933    -6803857.344 7  -5053502.31045  24831520.016    24831526.4254
  21655091.000   -19823259.451 9 -15420973.15047  21655090.333    21655094.6594
  20574854.832   -26597826.015 9 -20713392.08948  20574853.765    20574857.7164
  22303491.528   -19030668.400 8 -14812691.09447  22303490.825    22303494.8724
  21011033.988   -25347424.970 9 -19500936.99747  21011032.665    21011037.1064
  20758658.922   -23067919.834 9 -17436389.81248  20758658.630    20758661.7824
 00  1 22  2 38  0.0000000  0  6 17 24 05 06 10 30
  24814620.866    -6892668.025 7  -5122705.40445  24814619.906    24814626.3084
  21667998.982   -19755427.510 9 -15368117.08447  21667998.317    21668002.6594
  20583508.524   -26552350.588 9 -20677956.69848  20583507.464    20583511.3984
  22291417.642   -19094116.938 8 -14862131.48447  22291416.944    22291420.9904
  21003143.646   -25388889.150 9 -19533246.73747  21003142.317    21003146.7484
  20752089.204   -23102444.023 9 -17463291.77148  20752088.908    20752092.0494
 00  1 22  2 38 30.0000000  0  6 17 24 05 06 10 30
  24797751.045    -6981319.294 7  -5191784.28345  24797750.025    24797756.3994
  21680935.205   -19687447.001 9 -15315145.24647  21680934.531    21680938.8794
  20592256.511   -26506379.624 9 -20642135.17748  20592255.438    20592259.3954
  22279352.524   -19157519.475 8 -14911536.03647  22279351.816    22279355.8444
  20995361.882   -25429782.554 9 -19565111.71847  20995360.554    20995364.9754
  20745622.516   -23136426.582 9 -17489771.68148  20745622.225    20745625.3584
 00  1 22  2 39  0.0000000  0  6 17 24 05 06 10 30
  24780911.648    -7069810.681 8  -5260738.57145  24780910.712    24780916.9494
  21693896.364   -19619335.505 9 -15262071.34847  21693895.709    21693900.0334
  20601095.126   -26459932.433 9 -20605942.56548  20601094.049    20601097.9924
  22267296.176   -19220876.027 8 -14960904.75147  22267295.442    22267299.4854
  20987689.205   -25470102.591 9 -19596529.91847  20987687.896    20987692.3014
  20739254.122   -23169892.720 9 -17515849.18448  20739253.823    20739256.9524
 00  1 22  2 39 30.0000000  0  6 17 24 05 06 10 30
  24764095.444    -7158180.472 8  -5329598.10045  24764094.444    24764100.7194
  21706881.289   -19551099.285 9 -15208900.25247  21706880.649    21706884.9674
  20610021.582   -26413023.556 9 -20569390.20148  20610020.520    20610024.4564
  22255245.510   -19284202.595 8 -15010250.10547  22255244.804    22255248.8124
  20980124.812   -25509853.842 9 -19627504.90547  20980123.483    20980127.8944
  20732980.242   -23202862.115 9 -17541539.61648  20732979.957    20732983.0574
 00  1 22  2 40  0.0000000  0  6 17 24 05 06 10 30
  24747297.147    -7246456.048 8  -5398384.21345  24747296.073    24747302.4274
  21719893.286   -19482720.687 9 -15155618.21847  21719892.631    21719896.9564
  20619035.483   -26365655.209 9 -20532479.81048  20619034.419    20619038.3324
  22243200.611   -19347498.833 8 -15059571.82847  22243199.913    22243203.8864
  20972667.522   -25549042.086 9 -19658041.19247  20972666.215    20972670.6134
  20726801.963   -23235329.055 9 -17566838.52248  20726801.654    20726804.7684
 00  1 22  2 40 30.0000000  0  6 17 24 05 06 10 30
  24730518.407    -7334628.826 8  -5467090.20045  24730517.469    24730523.5924
  21732932.969   -19414196.753 9 -15102222.93247  21732932.344    21732936.6534
  20628142.046   -26317799.992 9 -20495190.03448  20628140.975    20628144.8874
  22231167.039   -19410735.729 8 -15108847.30647  22231166.364    22231170.3084
  20965315.635   -25587676.462 9 -19688145.88747  20965314.325    20965318.7254
  20720722.873   -23267274.628 9 -17591731.16848  20720722.582    20720725.7014
 00  1 22  2 41  0.0000000  0  6 17 24 05 06 10 30
  24713760.734    -7422690.944 8  -5535709.95245  24713759.810    24713765.9844
  21746003.336   -19345511.273 9 -15048701.76347  21746002.706    21746007.0354
  20637345.535   -26269435.381 9 -20457503.32648  20637344.464    20637348.3554
  22219149.108   -19473890.232 8 -15158058.57847  22219148.444    22219152.3734
  20958071.505   -25625744.641 9 -19717809.38947  20958070.180    20958074.6024
  20714747.927   -23298673.225 9 -17616197.59748  20714747.649    20714750.7714
 00  1 22  2 41 30.0000000  0  6 17 24 05 06 10 30
  24697028.804    -7510617.774 8  -5604224.27445  24697027.753    24697033.9994
  21759108.111   -19276645.215 9 -14995039.89247  21759107.463    21759111.7884
  20646652.568   -26220526.643 9 -20419392.62948  20646651.511    20646655.4004
  22207150.252   -19536944.590 8 -15207191.82147  22207149.590    22207153.5064
  20950936.554   -25663238.887 9 -19747025.67447  20950935.239    20950939.6524
  20708881.391   -23329502.224 9 -17640220.18848  20708881.100    20708884.2164
 00  1 22  2 42  0.0000000  0  6 17 24 05 06 10 30
  24680328.674    -7598377.321 8  -5672608.23645  24680327.575    24680333.7394
  21772247.674   -19207596.237 9 -14941235.47447  21772247.027    21772251.3624
  20656065.283   -26171062.477 9 -20380849.12948  20656064.214    20656068.1104
  22195173.711   -19599881.665 8 -15256233.67047  22195173.022    22195176.9564
  20943910.822   -25700159.416 9 -19775794.90047  20943909.503    20943913.9064
  20703125.559   -23359749.444 9 -17663789.43748  20703125.275    20703128.3904
 00  1 22  2 42 30.0000000  0  6 17 24 05 06 10 30
  24663665.591    -7685942.029 8  -5740840.37145  24663664.411    24663670.7454
  21785419.486   -19138377.759 9 -14887298.98447  21785418.848    21785423.1584
  20665583.348   -26121044.637 9 -20341874.19848  20665582.285    20665586.1984
  22183217.605   -19662711.187 8 -15305191.71047  22183216.929    22183220.8414
  20936995.198   -25736501.262 9 -19804113.21147  20936993.881    20936998.2884
  20697480.439   -23389414.824 9 -17686905.31148  20697480.133    20697483.2554
 00  1 22  2 43  0.0000000  0  6 17 24 05 06 10 30
  24647040.776    -7773305.912 8  -5808916.01045  24647039.649    24647045.7124
  21798622.485   -19068995.542 9 -14833234.89947  21798621.838    21798626.1724
  20675200.917   -26070504.066 9 -20302491.94448  20675199.857    20675203.7864
  22171276.516   -19725462.054 8 -15354088.46247  22171275.835    22171279.7444
  20930188.872   -25772268.655 9 -19831983.89247  20930187.543    20930191.9484
  20691943.850   -23418509.685 9 -17709576.62248  20691943.536    20691946.6554
 00  1 22  2 43 30.0000000  0  6 17 24 05 06 10 30
  24630453.853    -7860470.066 8  -5876836.00945  24630452.842    24630458.8074
  21811851.381   -18999477.208 9 -14779064.75447  21811850.720    21811855.0564
  20684913.076   -26019466.356 9 -20262722.30848  20684912.013    20684915.9334
  22159346.154   -19788156.381 8 -15402941.15947  22159345.454    22159349.3694
  20923488.493   -25807479.389 9 -19859420.80947  20923487.161    20923491.5444
  20686512.503   -23447051.576 9 -17731817.04448  20686512.186    20686515.3034
 00  1 22  2 44  0.0000000  0  6 17 24 05 06 10 30
  24613901.573    -7947452.499 8  -5944614.41745  24613900.622    24613906.4314
  21825102.902   -18929839.934 9 -14724801.92647  21825102.236    21825106.5784
  20694713.850   -25967962.909 9 -20222589.76248  20694712.788    20694716.7164
  22147423.687   -19850809.308 8 -15451761.59147  22147422.988    22147426.8864
  20916894.650   -25842130.190 9 -19886421.41847  20916893.326    20916897.7014
  20681186.441   -23475040.302 9 -17753626.43348  20681186.103    20681189.2174
 00  1 22  2 44 30.0000000  0  6 17 24 05 06 10 30
  24597381.118    -8034267.335 8  -6012262.22445  24597380.138    24597386.0594
  21838375.761   -18860090.499 9 -14670451.70247  21838375.088    21838379.4294
  20704602.732   -25915996.466 9 -20182096.43848  20704601.683    20704605.6224
  22135508.771   -19913422.483 8 -15500551.04547  22135508.097    22135511.9774
  20910408.277   -25876216.343 9 -19912982.03847  20910406.937    20910411.3174
  20675965.006   -23502479.155 9 -17775007.34848  20675964.668    20675967.7574
 00  1 22  2 45  0.0000000  0  6 17 24 05 06 10 30
  24580888.797    -8120934.605 8  -6079795.04245  24580887.876    24580893.8214
  21851669.493   -18790231.560 9 -14616016.14447  21851668.814    21851673.1384
  20714580.826   -25863561.261 9 -20141237.84448  20714579.775    20714583.7014
  22123604.705   -19975978.525 8 -15549295.98547  22123604.018    22123607.9024
  20904030.921   -25909729.478 9 -19939096.15447  20904029.591    20904033.9554
  20670847.112   -23529373.825 9 -17795964.22448  20670846.800    20670849.8794
 00  1 22  2 45 30.0000000  0  6 17 24 05 06 10 30
  24564421.166    -8207472.033 8  -6147226.69445  24564420.186    24564426.1244
  21864984.842   -18720258.815 9 -14561491.91147  21864984.157    21864988.4774
  20724649.638   -25810649.506 9 -20100007.91148  20724648.574    20724652.5004
  22111715.218   -20038458.128 8 -15597981.36247  22111714.539    22111718.4124
  20897766.003   -25942651.867 9 -19964749.94347  20897764.659    20897769.0104
  20665832.854   -23555723.926 9 -17816496.75848  20665832.552    20665835.6264
 00  1 22  2 46  0.0000000  0  6 17 24 05 06 10 30
  24547976.911    -8293886.699 8  -6214562.68345  24547975.850    24547981.7974
  21878323.659   -18650162.895 9 -14506871.69847  21878322.982    21878327.2814
  20734811.156   -25757250.334 9 -20058398.17448  20734810.100    20734814.0174
  22099843.429   -20100844.591 8 -15646594.15647  22099842.767    22099846.6404
  20891615.735   -25974971.633 9 -19989934.16047  20891614.406    20891618.7514
  20660922.913   -23581525.788 9 -17836602.09548  20660922.601    20660925.6954
 00  1 22  2 46 30.0000000  0  6 17 24 05 06 10 30
  24531557.555    -8380170.405 8  -6281796.61845  24531556.507    24531562.3974
  21891686.469   -18579940.681 9 -14452153.07747  21891685.781    21891690.0694
  20745067.566   -25703352.597 9 -20016399.94048  20745066.499    20745070.4224
  22087992.448   -20163121.740 8 -15695121.77047  22087991.772    22087995.6574
  20885580.370   -26006687.571 9 -20014647.85947  20885579.054    20885583.3934
  20656117.465   -23606778.527 9 -17856279.54048  20656117.148    20656120.2374
 00  1 22  2 47  0.0000000  0  6 17 24 05 06 10 30
  24515164.684    -8466315.071 8  -6348922.19845  24515163.645    24515169.4804
  21905074.662   -18509585.234 9 -14397330.63947  21905073.983    21905078.2704
  20755416.949   -25648966.309 9 -19974021.01748  20755415.884    20755419.8094
  22076161.557   -20225293.248 8 -15743567.06747  22076160.902    22076164.7774
  20879660.065   -26037798.924 9 -20038890.45147  20879658.743    20879663.0734
  20651418.335   -23631472.544 9 -17875521.61948  20651418.031    20651421.1274
 00  1 22  2 47 30.0000000  0  6 17 24 05 06 10 30
  24498802.143    -8552300.293 8  -6415923.54345  24498801.133    24498806.9234
  21918487.914   -18439098.111 9 -14342405.59647  21918487.227    21918491.4884
  20765858.057   -25594097.872 9 -19931266.39848  20765856.996    20765860.9284
  22064348.200   -20287372.843 8 -15791940.74947  22064347.530    22064351.3864
  20873852.502   -26068317.881 9 -20062671.44047  20873851.183    20873855.4984
  20646827.957   -23655595.061 9 -17894318.37648  20646827.639    20646830.7414
 00  1 22  2 48  0.0000000  0  6 17 24 05 06 10 30
  24482472.748    -8638111.336 8  -6482789.17645  24482471.727    24482477.5194
  21931925.324   -18368483.953 9 -14287381.56747  21931924.625    21931928.8834
  20776392.209   -25538740.500 9 -19888130.78948  20776391.144    20776395.0774
  22052550.360   -20349370.761 8 -15840250.78247  22052549.687    22052553.5544
  20868156.913   -26098248.227 9 -20085993.76647  20868155.576    20868159.8894
  20642348.815   -23679133.076 9 -17912659.67748  20642348.519    20642351.5904
 00  1 22  2 48 30.0000000  0  6 17 24 05 06 10 30
  24466179.138    -8723734.679 8  -6549508.54245  24466178.077    24466183.8234
  21945387.471   -18297739.773 9 -14232256.22847  21945386.785    21945391.0364
  20787019.955   -25482891.291 9 -19844611.93448  20787018.896    20787022.8304
  22040765.971   -20411298.040 8 -15888505.77047  22040765.316    22040769.1724
  20862574.211   -26127585.411 9 -20108853.89147  20862572.871    20862577.1674
  20637981.841   -23702081.769 9 -17930541.76948  20637981.523    20637984.6124
 00  1 22  2 49  0.0000000  0  6 17 24 05 06 10 30
  24449921.181    -8809170.539 8  -6616081.81245  24449920.023    24449925.8124
  21958873.314   -18226871.326 9 -14177034.04547  21958872.619    21958876.8614
  20797741.147   -25426551.073 9 -19800710.47548  20797740.094    20797744.0274
  22028993.195   -20473164.168 9 -15936713.11547  22028992.526    22028996.3934
  20857104.595   -26156328.365 9 -20131250.97947  20857103.258    20857107.5584
  20633726.769   -23724442.297 9 -17947965.54748  20633726.458    20633729.5364
 00  1 22  2 49 30.0000000  0  6 17 24 05 06 10 30
  24433698.220    -8894422.272 8  -6682511.60145  24433697.024    24433702.8424
  21972380.955   -18155888.133 9 -14121722.45447  21972380.258    21972384.4984
  20808555.876   -25369719.376 9 -19756426.04348  20808554.817    20808558.7574
  22017233.492   -20534961.653 8 -15984866.96847  22017232.827    22017236.6944
  20851750.671   -26184463.281 9 -20153174.26647  20851749.344    20851753.6344
  20629583.353   -23746216.062 9 -17964932.11148  20629583.057    20629586.1324
 00  1 22  2 50  0.0000000  0  6 17 24 05 06 10 30
  24417508.326    -8979500.253 8  -6748806.00145  24417507.142    24417512.9004
  21985911.350   -18084785.403 9 -14066317.72547  21985910.681    21985914.8794
  20819461.450   -25312410.146 9 -19711769.50648  20819460.388    20819464.3504
  22005487.354   -20596687.970 9 -16032965.36247  22005486.699    22005490.5614
  20846514.874   -26211977.665 9 -20174614.02747  20846513.549    20846517.8354
  20625549.388   -23767414.651 9 -17981450.48648  20625549.080    20625552.1534
 00  1 22  2 50 30.0000000  0  6 17 24 05 06 10 30
  24401350.258    -9064411.044 8  -6814970.12645  24401349.018    24401354.8494
  21999462.980   -18013571.003 8 -14010825.97447  21999462.309    21999466.5094
  20830454.149   -25254643.072 9 -19666756.20848  20830453.097    20830457.0664
  21993756.662   -20658333.026 9 -16081000.44247  21993755.990    21993759.8484
  20841395.679   -26238879.120 9 -20195576.17947  20841394.353    20841398.6314
  20621623.206   -23788046.879 9 -17997527.53848  20621622.908    20621625.9614
 00  1 22  2 51  0.0000000  0  6 17 24 05 06 10 30
  24385222.183    -9149164.231 8  -6881011.44745  24385221.013    24385226.7834
  22013034.497   -17942252.238 8 -13955252.90147  22013033.824    22013038.0364
  20841531.749   -25196429.965 9 -19621395.34848  20841530.689    20841534.6614
  21982043.493   -20719885.966 9 -16128963.73947  21982042.839    21982046.6764
  20836392.826   -26265169.170 9 -20216061.90747  20836391.496    20836395.7664
  20617806.515   -23808103.577 9 -18013156.12248  20617806.220    20617809.2794
 00  1 22  2 51 30.0000000  0  6 17 24 05 06 10 30
  24369125.532    -9233752.328 8  -6946924.13345  24369124.376    24369130.0514
  22026627.610   -17870819.955 8 -13899591.37747  22026626.914    22026631.1394
  20852695.475   -25137764.277 9 -19575681.83348  20852694.410    20852698.3874
  21970348.816   -20781341.798 8 -16176851.37547  21970348.154    21970351.9664
  20831506.167   -26290848.686 9 -20236071.90047  20831504.839    20831509.1104
  20614100.876   -23827576.857 9 -18028330.10048  20614100.565    20614103.6364
 00  1 22  2 52  0.0000000  0  6 17 24 05 06 10 30
  24353062.028    -9318166.039 8  -7012700.93045  24353060.877    24353066.4964
  22040241.921   -17799276.178 8 -13843842.97447  22040241.239    22040245.4574
  20863947.806   -25078632.786 9 -19529605.35048  20863946.740    20863950.7084
  21958672.062   -20842703.437 9 -16224665.61147  21958671.378    21958675.1784
  20826733.342   -26315930.030 9 -20255615.78247  20826732.013    20826736.2824
  20610506.337   -23846466.271 9 -18043049.11648  20610506.044    20610509.1004
 00  1 22  2 52 30.0000000  0  6 17 24 05 06 10 30
  24337032.399    -9402401.843 8  -7078339.11145  24337031.243    24337036.8254
  22053876.252   -17727627.190 8 -13788012.58247  22053875.570    22053879.7964
  20875292.205   -25019017.595 9 -19483151.96048  20875291.147    20875295.1144
  21947014.348   -20903965.060 9 -16272401.91247  21947013.669    21947017.4344
  20822074.915   -26340410.045 9 -20274691.09547  20822073.588    20822077.8664
  20607025.894   -23864756.166 9 -18057300.97648  20607025.583    20607028.6604
 00  1 22  2 53  0.0000000  0  6 17 24 05 06 10 30
  24321037.785    -9486453.491 8  -7143833.79345  24321036.687    24321042.1514
  22067534.033   -17655855.062 8 -13732086.24347  22067533.345    22067537.5324
  20886732.244   -24958899.742 9 -19436306.88448  20886731.187    20886735.1234
  21935373.285   -20965139.369 9 -16320070.17447  21935372.578    21935376.3454
  20817533.227   -26364276.764 9 -20293288.51547  20817531.903    20817536.1624
  20603660.448   -23882441.707 9 -18071081.91148  20603660.133    20603663.2064
 00  1 22  2 53 30.0000000  0  6 17 24 05 06 10 30
  24305078.287    -9570320.482 8  -7209184.58545  24305077.195    24305082.6244
  22081214.982   -17583961.293 8 -13676065.11947  22081214.293    22081218.4634
  20898268.646   -24898275.597 9 -19389067.29548  20898267.590    20898271.5214
  21923746.882   -21026236.456 9 -16367678.26647  21923746.176    21923749.9434
  20813108.693   -26387527.807 9 -20311406.18547  20813107.346    20813111.6084
  20600407.222   -23899537.512 9 -18084403.31148  20600406.905    20600409.9704
 00  1 22  2 54  0.0000000  0  6 17 24 05 06 10 30
  24289152.999    -9654008.083 8  -7274395.60045  24289151.900    24289157.2904
  22094918.196   -17511950.253 8 -13619952.61547  22094917.497    22094921.6714
  20909896.474   -24837171.075 9 -19341453.38848  20909895.421    20909899.3574
  21912135.015   -21087257.082 9 -16415226.77647  21912134.305    21912138.0804
  20808799.872   -26410170.705 9 -20329049.98147  20808798.539    20808802.7884
  20597264.024   -23916055.108 9 -18097274.16348  20597263.701    20597266.7584
 00  1 22  2 54 30.0000000  0  6 17 24 05 06 10 30
  24273259.276    -9737529.357 8  -7339477.03345  24273258.183    24273263.5874
  22108643.031   -17439825.557 8 -13563751.54247  22108642.365    22108646.5784
  20921611.252   -24775609.489 9 -19293483.32448  20921610.181    20921614.1174
  21900538.342   -21148197.826 9 -16462713.04647  21900537.653    21900541.3964
  20804604.485   -26432217.499 9 -20346229.27747  20804603.143    20804607.3874
  20594229.126   -23932003.644 9 -18109701.58748  20594228.802    20594231.8464
 00  1 22  2 55  0.0000000  0  6 17 24 05 06 10 30
  24257395.815    -9820892.113 8  -7404434.91645  24257394.755    24257400.1154
  22122387.427   -17367598.166 8 -13507470.45347  22122386.750    22122390.9784
  20933409.489   -24713609.312 9 -19245171.49948  20933408.433    20933412.3894
  21888956.080   -21209062.859 9 -16510140.31147  21888955.392    21888959.1564
  20800519.802   -26453682.550 9 -20362955.26747  20800518.461    20800522.6974
  20591299.493   -23947398.702 9 -18121697.72948  20591299.180    20591302.2134
 00  1 22  2 55 30.0000000  0  6 17 24 05 06 10 30
  24241562.723    -9904095.056 8  -7469268.28245  24241561.666    24241567.0264
  22136146.694   -17295292.630 8 -13451128.47047  22136146.025    22136150.2454
  20945287.651   -24651188.944 9 -19196532.25448  20945286.600    20945290.5784
  21877390.749   -21269839.043 9 -16557498.34847  21877390.058    21877393.8094
  20796544.514   -26474572.836 9 -20379233.38947  20796543.183    20796547.3954
  20588475.502   -23962238.944 9 -18133261.54948  20588475.175    20588478.2074
 00  1 22  2 56  0.0000000  0  6 17 24 05 06 10 30
  24225760.447    -9987136.431 8  -7533975.75845  24225759.396    24225764.7364
  22149920.714   -17222909.570 8 -13394726.08347  22149920.050    22149924.2744
  20957243.849   -24588358.747 9 -19147573.66848  20957242.783    20957246.7944
  21865843.612   -21330519.484 9 -16604781.77347  21865842.932    21865846.6714
  20792678.591   -26494888.192 9 -20395063.51247  20792677.269    20792681.4654
  20585758.237   -23976518.181 9 -18144388.22248  20585757.916    20585760.9604
 00  1 22  2 56 30.0000000  0  6 17 24 05 06 10 30
  24209987.843   -10070021.647 8  -7598561.55945  24209986.805    24209992.1144
  22163709.051   -17150451.345 8 -13338265.12747  22163708.384    22163712.6234
  20969281.605   -24525099.880 9 -19098281.04948  20969280.539    20969284.5684
  21854315.501   -21391099.916 9 -16651987.27447  21854314.813    21854318.5564
  20788925.699   -26514609.896 9 -20410431.05047  20788924.347    20788928.5604
  20583151.197   -23990218.374 9 -18155063.69248  20583150.881    20583153.9144
 00  1 22  2 57  0.0000000  0  6 17 24 05 06 10 30
  24194248.057   -10152734.461 8  -7663013.02445  24194247.012    24194252.2274
  22177513.393   -17077909.100 8 -13281738.69747  22177512.737    22177516.9444
  20981404.134   -24461395.499 9 -19048641.27748  20981403.087    20981407.1244
  21842807.834   -21451572.992 9 -16699109.12147  21842807.149    21842810.8574
  20785290.591   -26533712.249 9 -20425315.97847  20785289.254    20785293.4554
  20580658.348   -24003318.341 9 -18165271.45548  20580658.037    20580661.0634
 00  1 22  2 57 30.0000000  0  6 17 24 05 06 10 30
  24178543.111   -10235264.082 8  -7727321.75245  24178542.064    24178547.2704
  22191337.392   -17005263.372 8 -13225131.63947  22191336.727    22191340.8924
  20993613.418   -24397235.429 9 -18998646.42248  20993612.364    20993616.4084
  21831322.332   -21511929.707 9 -16746140.30347  21831321.641    21831325.3434
  20781775.748   -26552182.815 9 -20439708.60647  20781774.417    20781778.6184
  20578281.823   -24015807.080 9 -18175002.93348  20578281.522    20578284.5584
 00  1 22  2 58  0.0000000  0  6 17 24 05 06 10 30
  24162873.007   -10317610.845 8  -7791487.97145  24162871.932    24162877.1964
  22205182.040   -16932509.470 8 -13168440.28447  22205181.373    22205185.5434
  21005910.415   -24332614.359 9 -18948292.34748  21005909.361    21005913.4044
  21819858.906   -21572170.318 9 -16793081.00847  21819858.207    21819861.9164
  20778380.011   -26570027.479 9 -20453613.51747  20778378.668    20778382.8844
  20576020.914   -24027688.116 9 -18184260.87648  20576020.607    20576023.6544
 00  1 22  2 58 30.0000000  0  6 17 24 05 06 10 30
  24147237.847   -10399773.740 8  -7855510.92745  24147236.806    24147241.9944
  22219047.029   -16859648.516 8 -13111665.51147  22219046.335    22219050.5104
  21018297.379   -24267520.435 9 -18897569.81347  21018296.316    21018300.3484
  21808417.213   -21632296.756 9 -16839932.74647  21808416.507    21808420.1954
  20775102.904   -26587248.554 9 -20467032.51547  20775101.547    20775105.7614
  20573875.588   -24038961.855 9 -18193045.59848  20573875.263    20573878.3014
 00  1 22  2 59  0.0000000  0  6 17 24 05 06 10 30
  24131637.224   -10481755.261 8  -7919392.57345  24131636.067    24131641.3744
  22232932.297   -16786681.025 8 -13054807.72747  22232931.592    22232935.7874
  21030772.419   -24201963.839 9 -18846486.75547  21030771.360    21030775.3734
  21796995.598   -21692317.559 9 -16886702.17447  21796994.914    21796998.5784
  20771942.358   -26603857.131 9 -20479974.23947  20771941.034    20771945.2284
  20571842.563   -24049645.351 9 -18201370.39348  20571842.240    20571845.2934
 00  1 22  2 59 30.0000000  0  6 17 24 05 06 10 30
  24116069.736   -10563562.791 8  -7983138.63445  24116068.573    24116073.8264
  22246835.153   -16713621.052 8 -12997877.87647  22246834.457    22246838.6154
  21043332.705   -24135959.168 9 -18795054.54647  21043331.635    21043335.6544
  21785593.579   -21752235.584 9 -16933391.51847  21785592.878    21785596.5324
  20768894.579   -26619873.248 9 -20492454.31247  20768893.254    20768897.4314
  20569919.042   -24059753.424 9 -18209246.80548  20569918.722    20569921.7824
 00  1 22  3  0  0.0000000  0  6 17 24 05 06 10 30
  24100534.667   -10645199.866 8  -8046751.87845  24100533.498    24100538.7784
  22260750.434   -16640495.648 8 -12940897.04047  22260749.774    22260753.9024
  21055976.057   -24069517.733 9 -18743282.00647  21055974.982    21055978.9954
  21774211.594   -21812048.176 9 -16979998.70347  21774210.898    21774214.5614
  20765960.470   -26635292.203 9 -20504469.05847  20765959.136    20765963.3004
  20568104.184   -24069290.624 9 -18216678.38048  20568103.878    20568106.9364
 00  1 22  3  0 30.0000000  0  6 17 24 05 06 10 30
  24085032.239   -10726665.457 8  -8110231.49645  24085031.081    24085036.3064
  22274679.575   -16567297.532 8 -12883859.54447  22274678.901    22274683.0304
  21068701.429   -24002645.354 9 -18691173.66347  21068700.362    21068704.3884
  21762848.761   -21871760.087 9 -17026527.43547  21762848.074    21762851.7124
  20763142.081   -26650102.770 9 -20516009.73947  20763140.757    20763144.9004
  20566398.610   -24078253.380 9 -18223662.33748  20566398.289    20566401.3414
 00  1 22  3  1  0.0000000  0  6 17 24 05 06 10 30
  24069564.828   -10807946.783 8  -8173567.54345  24069563.648    24069568.9454
  22288621.232   -16494033.735 8 -12826770.87246  22288620.559    22288624.6924
  21081506.594   -23935353.676 9 -18638738.59547  21081505.528    21081509.5784
  21751505.339   -21931369.806 9 -17072976.54347  21751504.667    21751508.3204
  20760438.741   -26664308.837 9 -20527079.38047  20760437.418    20760441.5624
  20564804.440   -24086630.735 9 -18230190.13448  20564804.132    20564807.1804
 00  1 22  3  1 30.0000000  0  6 17 24 05 06 10 30
  24054134.742   -10889032.193 8  -8236750.91645  24054133.480    24054138.8664
  22302572.631   -16420718.686 8 -12769642.26146  22302571.971    22302576.0944
  21094392.629   -23867637.076 9 -18585972.41547  21094391.587    21094395.6384
  21740182.801   -21990870.142 9 -17119340.41647  21740182.125    21740185.7784
  20757853.240   -26677895.758 9 -20537666.57147  20757851.908    20757856.0214
  20563323.304   -24094414.125 9 -18236255.10648  20563322.988    20563326.0204
 00  1 22  3  2  0.0000000  0  6 17 24 05 06 10 30
  24038741.446   -10969924.020 8  -8299783.46745  24038740.237    24038745.5174
  22316537.646   -16347332.056 8 -12712457.88246  22316536.983    22316541.1004
  21107360.057   -23799492.799 9 -18532872.98147  21107359.000    21107363.0844
  21728879.521   -22050269.170 9 -17165625.35047  21728878.830    21728882.4814
  20755390.035   -26690839.877 9 -20547752.87747  20755388.703    20755392.8144
  20561957.440   -24101591.723 9 -18241848.02748  20561957.113    20561960.1464
 00  1 22  3  2 30.0000000  0  6 17 24 05 06 10 30
  24023384.549   -11050624.818 8  -8362667.16145  24023383.378    24023388.6304
  22330519.739   -16273855.683 8 -12655203.56346  22330519.073    22330523.2044
  21120411.607   -23730906.426 9 -18479429.05647  21120410.554    21120414.6524
  21717592.869   -22109580.842 9 -17211842.21147  21717592.164    21717595.8224
  20753047.889   -26703147.881 9 -20557343.51047  20753046.555    20753050.6594
  20560707.635   -24108159.439 9 -18246965.71948  20560707.328    20560710.3424
 00  1 22  3  3  0.0000000  0  6 17 24 05 06 10 30
  24008062.579   -11131142.014 8  -8425407.78645  24008061.445    24008066.6414
  22344517.399   -16200297.474 8 -12597885.47846  22344516.713    22344520.8464
  21133548.176   -23661873.177 9 -18425636.91847  21133547.130    21133551.1964
  21706325.071   -22168793.494 9 -17257981.91847  21706324.375    21706328.0274
  20750827.901   -26714813.893 9 -20566433.88947  20750826.572    20750830.6824
  20559573.633   -24114118.720 9 -18251609.30648  20559573.324    20559576.3404
 00  1 22  3  3 30.0000000  0  6 17 24 05 06 10 30
  23992773.054   -11211488.750 8  -8488015.60345  23992771.999    23992777.0244
  22358532.699   -16126646.452 8 -12540495.07346  22358532.050    22358536.1684
  21146770.988   -23592386.867 9 -18371491.73947  21146769.936    21146774.0184
  21695078.469   -22227894.519 9 -17304034.63747  21695077.780    21695081.4234
  20748732.726   -26725823.953 9 -20575013.13447  20748731.392    20748735.5064
  20558554.023   -24119476.745 9 -18255784.37948  20558553.700    20558556.7404
 00  1 22  3  4  0.0000000  0  6 17 24 05 06 10 30
  23977515.892   -11291665.582 8  -8550491.02145  23977514.802    23977519.9014
  22372567.903   -16052891.090 8 -12483023.36346  22372567.224    22372571.3714
  21160079.669   -23522449.396 9 -18316995.01247  21160078.632    21160082.7024
  21683854.425   -22286877.247 9 -17349995.17947  21683853.731    21683857.3684
  20746757.847   -26736201.959 9 -20583099.87247  20746756.519    20746760.6264
  20557649.686   -24124229.067 9 -18259487.47748  20557649.365    20557652.4234
 00  1 22  3  4 30.0000000  0  6 17 24 05 06 10 30
  23962291.806   -11371668.549 8  -8612830.96245  23962290.701    23962295.7894
  22386618.301   -15979055.677 8 -12425489.27946  22386617.637    22386621.8074
  21173474.729   -23452057.969 9 -18262144.55447  21173473.679    21173477.7274
  21672656.156   -22345724.585 9 -17395850.22747  21672655.463    21672659.1104
  20744901.124   -26745959.014 9 -20590702.75448  20744899.795    20744903.9124
  20556860.513   -24128376.076 9 -18262718.90548  20556860.202    20556863.2364
 00  1 22  3  5  0.0000000  0  6 17 24 05 06 10 30
  23947102.520   -11451488.475 8  -8675028.28845  23947101.416    23947106.4544
  22400683.380   -15905143.205 8 -12367895.14246  22400682.710    22400686.8704
  21186954.812   -23381219.811 9 -18206945.99147  21186953.757    21186957.7984
  21661487.794   -22404414.612 9 -17441582.69347  21661487.114    21661490.7214
  20743163.113   -26755092.251 9 -20597819.54448  20743161.788    20743165.8934
  20556187.507   -24131912.726 9 -18265474.72648  20556187.198    20556190.2414
 00  1 22  3  5 30.0000000  0  6 17 24 05 06 10 30
  23931948.964   -11531120.755 8  -8737079.39945  23931947.878    23931952.9154
  22414764.279   -15831147.579 8 -12310236.21846  22414763.622    22414767.7944
  21200518.435   -23309942.438 9 -18151405.18147  21200517.377    21200521.4084
  21650348.984   -22462949.453 9 -17487194.23747  21650348.306    21650351.9124
  20741543.007   -26763605.795 9 -20604453.45448  20741541.689    20741545.7794
  20555632.678   -24134828.455 9 -18267746.71848  20555632.352    20555635.3934
 00  1 22  3  6  0.0000000  0  6 17 24 05 06 10 30
  23916833.074   -11610555.047 8  -8798976.23145  23916831.982    23916837.0354
  22428860.545   -15757071.150 8 -12252514.32946  22428859.874    22428864.0574
  21214165.293   -23238227.821 9 -18095523.66647  21214164.240    21214168.2734
  21639238.666   -22521334.505 9 -17532689.06247  21639237.977    21639241.5994
  20740041.402   -26771496.691 9 -20610602.18748  20740040.099    20740044.1744
  20555198.429   -24137110.467 9 -18269524.90248  20555198.112    20555201.1374
 00  1 22  3  6 30.0000000  0  6 17 24 05 06 10 30
  23901756.391   -11689783.412 8  -8860712.59645  23901755.319    23901760.3694
  22442972.593   -15682911.752 8 -12194727.78846  22442971.934    22442976.1174
  21227894.453   -23166080.591 9 -18039305.04647  21227893.395    21227897.4164
  21628157.762   -22579564.908 9 -17578063.38047  21628157.078    21628160.6824
  20738661.322   -26778749.003 9 -20616253.32348  20738659.985    20738664.0774
  20554884.605   -24138759.516 9 -18270809.87048  20554884.290    20554887.3274
 00  1 22  3  7  0.0000000  0  6 17 24 05 06 10 30
  23886719.600   -11768802.283 8  -8922285.72545  23886718.569    23886723.5654
  22457102.135   -15608660.632 8 -12136869.77546  22457101.462    22457105.6304
  21241702.523   -23093518.593 9 -17982763.23147  21241701.476    21241705.5004
  21617102.529   -22637660.438 9 -17623332.60147  21617101.842    21617105.4384
  20737401.409   -26785369.770 9 -20621412.34448  20737400.097    20737404.1744
  20554688.656   -24139789.059 9 -18271612.10448  20554688.335    20554691.3834
 00  1 22  3  7 30.0000000  0  6 17 24 05 06 10 30
  23871722.045   -11847614.866 8  -8983698.12445  23871721.011    23871726.0054
  22471245.248   -15534337.955 8 -12078955.99646  22471244.571    22471248.7614
  21255587.051   -23020554.820 9 -17925908.34547  21255585.994    21255590.0324
  21606069.569   -22695638.856 9 -17668510.57147  21606068.880    21606072.4794
  20736260.453   -26791365.680 9 -20626084.46448  20736259.127    20736263.2054
  20554608.318   -24140211.320 9 -18271941.13048  20554608.001    20554611.0644
 00  1 22  3  8  0.0000000  0  6 17 24 05 06 10 30
  23856764.293   -11926218.504 8  -9044947.69745  23856763.207    23856768.2264
  22485399.521   -15459956.887 8 -12020996.72746  22485398.842    22485403.0414
  21269546.513   -22947197.416 9 -17868746.73447  21269545.460    21269549.4984
  21595057.530   -22753507.372 9 -17713602.89847  21595056.833    21595060.4204
  20735233.465   -26796762.326 9 -20630289.62748  20735232.157    20735236.2144
  20554638.451   -24140052.878 9 -18271817.66148  20554638.130    20554641.1834
 00  1 22  3  8 30.0000000  0  6 17 24 05 06 10 30
  23841842.603   -12004632.429 8  -9106049.45346  23841841.566    23841846.5654
  22499560.914   -15385538.178 8 -11963008.12646  22499560.229    22499564.4044
  21283576.299   -22873470.419 9 -17811297.12947  21283575.247    21283579.2994
  21584063.003   -22811284.085 9 -17758623.69547  21584062.295    21584065.8784
  20734316.615   -26801580.339 9 -20634043.90848  20734315.292    20734319.3704
  20554772.371   -24139348.962 9 -18271269.14948  20554772.047    20554775.1194
 00  1 22  3  9  0.0000000  0  6 17 24 05 06 10 30
  23826953.043   -12082877.575 8  -9167019.69446  23826952.024    23826956.9654
  22513725.903   -15311100.816 8 -11905004.98946  22513725.202    22513729.4044
  21297673.617   -22799388.462 9 -17753570.93447  21297672.548    21297676.5924
  21573081.012   -22868994.908 9 -17803593.15047  21573080.308    21573083.8674
  20733510.487   -26805816.391 9 -20637344.71448  20733509.160    20733513.2414
  20555008.211   -24138109.530 9 -18270303.35448  20555007.874    20555010.9374
 00  1 22  3  9 30.0000000  0  6 17 24 05 06 10 30
  23812093.832   -12160963.196 8  -9227865.62346  23812092.821    23812097.7364
  22527893.411   -15236650.104 8 -11846991.45046  22527892.714    22527896.9124
  21311840.733   -22724939.793 9 -17695558.98347  21311839.670    21311843.7174
  21562114.253   -22926625.372 9 -17848499.98547  21562113.559    21562117.1254
  20732816.080   -26809465.425 9 -20640188.10248  20732814.751    20732818.8454
  20555346.968   -24136329.247 9 -18268916.11448  20555346.650    20555349.7054
 00  1 22  3 10  0.0000000  0  6 17 24 05 06 10 30
  23797264.236   -12238893.320 8  -9288590.39046  23797263.188    23797268.1324
  22542066.439   -15162170.564 8 -11788955.45046  22542065.733    22542069.9014
  21326078.830   -22650118.171 9 -17637256.41847  21326077.774    21326081.8174
  21551163.351   -22984172.662 9 -17893342.01047  21551162.651    21551166.2294
  20732235.139   -26812518.397 9 -20642567.02548  20732233.823    20732237.9064
  20555790.655   -24133997.484 9 -18267099.14848  20555790.332    20555793.4024
 00  1 22  3 10 30.0000000  0  6 17 24 05 06 10 30
  23782463.656   -12316670.893 8  -9349196.27346  23782462.604    23782467.5334
  22556245.999   -15087656.517 8 -11730892.55546  22556245.326    22556249.4684
  21340390.206   -22574911.453 9 -17578653.78647  21340389.126    21340393.1904
  21540229.557   -23041630.049 9 -17938113.97947  21540228.870    21540232.4564
  20731773.766   -26814942.825 9 -20644456.17748  20731772.433    20731776.5194
  20556343.382   -24131093.001 9 -18264835.91148  20556343.060    20556346.1224
 00  1 22  3 11  0.0000000  0  6 17 24 05 06 10 30
  23767696.227   -12394274.249 8  -9409666.42046  23767695.147    23767700.0824
  22570434.835   -15013093.667 8 -11672791.63346  22570434.164    22570438.3024
  21354778.730   -22499299.240 9 -17519735.17747  21354777.665    21354781.7064
  21529316.770   -23098977.075 9 -17982799.95447  21529316.085    21529319.6634
  20731433.666   -26816729.910 9 -20645848.69948  20731432.358    20731436.4164
  20557009.371   -24127593.146 9 -18262108.74648  20557009.049    20557012.0934
 00  1 22  3 11 30.0000000  0  6 17 24 05 06 10 30
  23752964.202   -12471691.374 8  -9469991.43646  23752963.156    23752968.1064
  22584634.844   -14938472.093 8 -11614644.95546  22584634.163    22584638.2964
  21369245.368   -22423276.540 9 -17460496.71647  21369244.320    21369248.3424
  21518427.553   -23156200.234 9 -18027389.41447  21518426.853    21518430.4304
  20731211.250   -26817898.797 9 -20646759.50548  20731209.932    20731213.9724
  20557790.030   -24123490.858 9 -18258912.15248  20557789.708    20557792.7484
 00  1 22  3 12  0.0000000  0  6 17 24 05 06 10 30
  23738268.328   -12548918.773 8  -9530168.62146  23738267.249    23738272.2584
  22598844.887   -14863797.721 8 -11556457.13646  22598844.176    22598848.3784
  21383787.676   -22346856.325 9 -17400948.50147  21383786.622    21383790.6594
  21507561.592   -23213301.155 9 -18071883.62047  21507560.915    21507564.4794
  20731105.814   -26818452.755 9 -20647191.14848  20731104.505    20731108.5374
  20558685.390   -24118785.684 9 -18255245.77748  20558685.078    20558688.1154
 00  1 22  3 12 30.0000000  0  6 17 24 05 06 10 30
  23723609.156   -12625953.171 8  -9590195.41146  23723608.098    23723613.0954
  22613063.567   -14789078.033 8 -11498233.99846  22613062.862    22613067.0644
  21398404.413   -22270044.666 9 -17341095.26647  21398403.354    21398407.4054
  21496721.871   -23270264.192 9 -18116270.38747  21496721.170    21496724.7104
  20731117.844   -26818389.496 9 -20647141.84348  20731116.527    20731120.5594
  20559695.329   -24113478.378 9 -18251110.20948  20559695.009    20559698.0604
 00  1 22  3 13  0.0000000  0  6 17 24 05 06 10 30
  23708988.846   -12702783.280 8  -9650063.02646  23708987.769    23708992.8344
  22627290.315   -14714315.991 8 -11439977.85146  22627289.614    22627293.8024
  21413094.092   -22192849.889 9 -17280943.49447  21413093.034    21413097.0714
  21485909.007   -23327086.038 9 -18160547.13647  21485908.305    21485911.8534
  20731246.333   -26817714.234 9 -20646615.65248  20731245.028    20731249.0404
  20560821.069   -24107562.565 9 -18246500.47848  20560820.750    20560823.7994
 00  1 22  3 13 30.0000000  0  6 17 24 05 06 10 30
  23694406.069   -12779416.240 8  -9709777.00546  23694404.965    23694410.0874
  22641525.802   -14639507.989 8 -11381685.90646  22641525.098    22641529.2944
  21427856.296   -22115273.940 9 -17220494.70547  21427855.235    21427859.2674
  21475125.479   -23383753.876 9 -18204703.87647  21475124.781    21475128.2984
  20731492.897   -26816418.376 9 -20645605.88248  20731491.607    20731495.6134
  20562064.779   -24101027.021 9 -18241407.84348  20562064.469    20562067.5114
 00  1 22  3 14  0.0000000  0  6 17 24 05 06 10 30
  23679860.788   -12855852.348 8  -9769337.60746  23679859.694    23679864.7674
  22655771.707   -14564645.177 8 -11323351.24846  22655771.046    22655775.1814
  21442692.879   -22037307.225 9 -17159741.42247  21442691.823    21442695.8414
  21464375.700   -23440244.266 9 -18248722.34847  21464375.022    21464378.5354
  20731862.067   -26814478.444 9 -20644094.23348  20731860.771    20731864.7794
  20563426.521   -24093871.083 9 -18235831.78448  20563426.206    20563429.2394
 00  1 22  3 14 30.0000000  0  6 17 24 05 06 10 30
  23665353.330   -12932089.440 8  -9828743.13046  23665352.237    23665357.2874
  22670031.441   -14489709.842 8 -11264960.08046  22670030.754    22670034.9144
  21457604.484   -21958946.216 9 -17098680.89947  21457603.430    21457607.4244
  21453658.976   -23496560.892 9 -18292605.42047  21453658.301    21453661.8264
  20732352.125   -26811903.035 9 -20642087.40848  20732350.812    20732354.8264
  20564904.872   -24086102.240 9 -18229778.13648  20564904.563    20564907.5874
 00  1 22  3 15  0.0000000  0  6 17 24 05 06 10 30
  23650881.686   -13008138.614 8  -9888002.21846  23650880.616    23650885.6084
  22684304.222   -14414705.814 8 -11206515.38046  22684303.543    22684307.7134
  21472589.614   -21880198.835 9 -17037319.30847  21472588.556    21472592.5474
  21442971.738   -23552722.786 9 -18336367.92247  21442971.060    21442974.5924
  20732959.827   -26808709.462 9 -20639598.89848  20732958.522    20732962.5384
  20566497.743   -24077731.600 9 -18223255.55748  20566497.430    20566500.4614
 00  1 22  3 15 30.0000000  0  6 17 24 05 06 10 30
  23636442.423   -13084017.435 8  -9947128.55246  23636441.322    23636446.3854
  22698587.700   -14339645.693 8 -11148026.98146  22698587.005    22698591.2074
  21487648.662   -21801063.126 9 -16975655.12347  21487647.621    21487651.6024
  21432314.138   -23608728.691 9 -18380008.87747  21432313.448    21432316.9714
  20733681.669   -26804916.163 9 -20636643.06848  20733680.372    20733684.3754
  20568202.604   -24068772.511 9 -18216274.44848  20568202.300    20568205.3174
 00  1 22  3 16  0.0000000  0  6 17 24 05 06 10 30
  23622036.429   -13159721.368 8 -10006118.63046  23622035.335    23622040.3864
  22712879.199   -14264543.323 8 -11089505.65246  22712878.501    22712882.7194
  21502780.506   -21721544.848 9 -16913692.83047  21502779.455    21502783.4164
  21421683.116   -23664595.063 9 -18423541.10047  21421682.418    21421685.9384
  20734517.243   -26800525.104 9 -20633221.45548  20734515.943    20734519.9644
  20570017.033   -24059237.567 9 -18208844.62048  20570016.714    20570019.7494
 00  1 22  3 16 30.0000000  0  6 17 24 05 06 10 30
  23607664.882   -13235244.370 8 -10064967.69346  23607663.745    23607668.8254
  22727174.419   -14189421.357 8 -11030969.05446  22727173.745    22727177.9674
  21517983.356   -21641653.562 9 -16851439.88247  21517982.301    21517986.2614
  21411075.017   -23720340.973 9 -18466979.46047  21411074.342    21411077.8374
  20735466.282   -26795537.919 9 -20629335.31948  20735464.966    20735468.9834
  20571943.299   -24049114.922 9 -18200956.84148  20571942.990    20571946.0164
 00  1 22  3 17  0.0000000  0  6 17 24 05 06 10 30
  23593330.133   -13310573.911 8 -10123666.03246  23593328.988    23593334.0944
  22741470.451   -14114295.147 8 -10972429.15146  22741469.749    22741473.9864
  21533260.995   -21561369.074 9 -16788880.54547  21533259.934    21533263.9104
  21400493.331   -23775948.122 9 -18510309.69647  21400492.637    21400496.1584
  20736532.908   -26789932.673 9 -20624967.58448  20736531.588    20736535.6094
  20573985.525   -24038382.783 9 -18192594.13348  20573985.226    20573988.2524
 00  1 22  3 17 30.0000000  0  6 17 24 05 06 10 30
  23579035.912   -13385690.482 8 -10182198.39846  23579034.814    23579039.8554
  22755769.379   -14039153.626 8 -10913877.31846  22755768.719    22755772.9194
  21548615.188   -21480682.281 9 -16726007.71847  21548614.135    21548618.1004
  21389940.970   -23831401.056 9 -18553519.76447  21389940.282    21389943.8064
  20737721.647   -26783685.845 9 -20620099.91348  20737720.335    20737724.3464
  20576145.944   -24027029.663 9 -18183747.54748  20576145.641    20576148.6774
 00  1 22  3 18  0.0000000  0  6 17 24 05 06 10 30
  23564783.856   -13460585.582 8 -10240558.18846  23564782.740    23564787.8024
  22770075.802   -13963972.918 8 -10855294.95046  22770075.145    22770079.3554
  21564042.827   -21399609.632 9 -16662834.22947  21564041.755    21564045.7364
  21379417.916   -23886699.973 9 -18596609.81747  21379417.218    21379420.7494
  20739036.331   -26776776.971 9 -20614716.36148  20739035.015    20739039.0284
  20578424.931   -24015053.605 9 -18174415.55248  20578424.623    20578427.6544
 00  1 22  3 18 30.0000000  0  6 17 24 05 06 10 30
  23550573.221   -13535262.864 8 -10298748.26146  23550572.099    23550577.1784
  22784391.652   -13888742.671 8 -10796673.98146  22784390.965    22784395.2004
  21579542.275   -21318159.421 9 -16599366.53447  21579541.205    21579545.2054
  21368925.802   -23941836.321 9 -18639573.19747  21368925.111    21368928.6324
  20740474.979   -26769216.663 9 -20608825.20048  20740473.669    20740477.6674
  20580823.895   -24002447.035 9 -18164592.25248  20580823.572    20580826.6114
 00  1 22  3 19  0.0000000  0  6 17 24 05 06 10 30
  23536403.589   -13609724.635 8 -10356770.39546  23536402.498    23536407.5124
  22798719.520   -13813449.212 8 -10738003.75946  22798718.875    22798723.0514
  21595110.131   -21236349.690 9 -16535618.69647  21595109.067    21595113.0844
  21358466.250   -23996801.534 9 -18682403.22247  21358465.552    21358469.0744
  20742036.329   -26761011.652 9 -20602431.67248  20742035.018    20742039.0124
  20583340.737   -23989220.849 9 -18154286.13348  20583340.430    20583343.4694
 00  1 22  3 19 30.0000000  0  6 17 24 05 06 10 30
  23522273.886   -13683976.349 8 -10414628.83446  23522272.789    23522277.8444
  22813062.345   -13738077.236 8 -10679272.35646  22813061.676    22813065.8534
  21610739.002   -21154219.459 9 -16471621.11747  21610737.937    21610741.9764
  21348037.119   -24051607.023 9 -18725108.79047  21348036.422    21348039.9404
  20743719.327   -26752167.483 9 -20595540.10048  20743718.023    20743722.0084
  20585974.396   -23975381.023 9 -18143501.85148  20585974.077    20585977.1194
 00  1 22  3 20  0.0000000  0  6 17 24 05 06 10 30
  23508182.640   -13758026.318 8 -10472330.07746  23508181.585    23508186.5834
  22827418.363   -13662635.955 8 -10620486.95346  22827417.668    22827421.8554
  21626426.667   -21071780.093 9 -16407382.65647  21626425.587    21626429.6504
  21337638.807   -24106250.549 9 -18767688.15047  21337638.120    21337641.6214
  20745520.049   -26742704.508 9 -20588166.34148  20745518.726    20745522.7084
  20588724.778   -23960927.536 9 -18132239.39248  20588724.463    20588727.4874
 00  1 22  3 20 30.0000000  0  6 17 24 05 06 10 30
  23494130.874   -13831868.781 8 -10529869.62446  23494129.832    23494134.7654
  22841783.450   -13587146.872 8 -10561664.29146  22841782.773    22841786.9484
  21642175.848   -20989017.659 9 -16342892.44847  21642174.774    21642178.8404
  21327271.807   -24160729.368 9 -18810139.16347  21327271.117    21327274.6374
  20747435.412   -26732639.187 9 -20580323.22048  20747434.090    20747438.0684
  20591592.810   -23945856.074 9 -18120495.39548  20591592.497    20591595.5284
 00  1 22  3 21  0.0000000  0  6 17 24 05 06 10 30
  23480117.435   -13905509.839 8 -10587252.23046  23480116.413    23480121.3784
  22856156.831   -13511614.498 8 -10502807.90146  22856156.103    22856160.2834
  21657988.167   -20905923.321 9 -16278143.61947  21657987.087    21657991.1654
  21316935.409   -24215047.415 9 -18852464.90747  21316934.723    21316938.2194
  20749466.475   -26721965.958 9 -20572006.40748  20749465.154    20749469.1284
  20594576.665   -23930175.700 9 -18108276.92048  20594576.342    20594579.3774
 00  1 22  3 21 30.0000000  0  6 17 24 05 06 10 30
  23466140.621   -13978958.319 8 -10644484.77346  23466139.630    23466144.5484
  22870536.498   -13436048.861 8 -10443925.59346  22870535.788    22870539.9414
  21673867.392   -20822477.460 9 -16213120.87347  21673866.305    21673870.3794
  21306630.735   -24269198.866 9 -18894660.83547  21306630.037    21306633.5334
  20751611.741   -26710692.562 9 -20563221.93648  20751610.429    20751614.3814
  20597675.653   -23913890.213 9 -18095586.93248  20597675.346    20597678.3704
 00  1 22  3 22  0.0000000  0  6 17 24 05 06 10 30
  23452199.011   -14052221.901 8 -10701573.24046  23452198.002    23452202.9304
  22884918.852   -13360469.069 8 -10385032.25546  22884918.191    22884922.3024
  21689819.010   -20738651.247 9 -16147801.74947  21689817.931    21689821.9824
  21296359.491   -24323174.534 9 -18936719.79047  21296358.798    21296362.2804
  20753871.944   -26698815.067 9 -20553966.73348  20753870.624    20753874.5954
  20600887.613   -23897011.285 9 -18082434.51648  20600887.293    20600890.3364
 00  1 22  3 22 30.0000000  0  6 17 24 05 06 10 30
  23438291.106   -14125308.300 8 -10758523.65046  23438290.060    23438295.0274
  22899304.264   -13284873.137 8 -10326126.33446  22899303.612    22899307.7324
  21705844.530   -20654436.600 9 -16082179.95347  21705843.457    21705847.4934
  21286120.874   -24376978.773 9 -18978645.16047  21286120.196    21286123.6654
  20756248.924   -26686323.792 9 -20544233.26348  20756247.609    20756251.5744
  20604210.782   -23879547.927 9 -18068826.70348  20604210.452    20604213.4994
 00  1 22  3 23  0.0000000  0  6 17 24 05 06 10 30
  23424416.848   -14198217.831 8 -10815336.23646  23424415.815    23424420.7714
  22913694.507   -13209251.951 8 -10267200.73846  22913693.869    22913697.9854
  21721940.724   -20569850.532 9 -16016268.73747  21721939.644    21721943.6844
  21275915.606   -24430607.837 9 -19020434.03447  21275914.930    21275918.4024
  20758744.351   -26673210.106 9 -20534014.79748  20758743.041    20758747.0194
  20607643.710   -23861507.773 9 -18054769.44248  20607643.395    20607646.4174
 00  1 22  3 23 30.0000000  0  6 17 24 05 06 10 30
  23410578.476   -14270938.878 8 -10872001.94746  23410577.444    23410582.3674
  22928088.488   -13133610.991 8 -10208259.73846  22928087.835    22928091.9344
  21738104.836   -20484907.606 9 -15950079.45347  21738103.764    21738107.7954
  21265743.855   -24484060.698 9 -19062085.60947  21265743.172    21265746.6394
  20761357.562   -26659477.673 9 -20523314.19248  20761356.242    20761360.2264
  20611184.589   -23842900.415 9 -18040270.20748  20611184.284    20611187.2934
 00  1 22  3 24  0.0000000  0  6 17 24 05 06 10 30
  23396776.005   -14343471.316 8 -10928520.69646  23396774.969    23396779.8644
  22942485.544   -13057953.955 8 -10149306.20746  22942484.858    22942488.9584
  21754333.493   -20399625.342 9 -15883625.74747  21754332.429    21754336.4494
  21255603.053   -24537350.845 9 -19103610.38847  21255602.393    21255605.8604
  20764087.114   -26645133.622 9 -20512137.00148  20764085.813    20764089.7734
  20614831.587   -23823735.433 9 -18025336.45648  20614831.279    20614834.2774
 00  1 22  3 24 30.0000000  0  6 17 24 05 06 10 30
  23383010.138   -14415811.152 8 -10984889.36146  23383009.099    23383013.9904
  22956884.694   -12982285.611 8 -10090343.85646  22956884.010    22956888.2134
  21770622.363   -20314026.821 9 -15816925.60647  21770621.293    21770625.3204
  21245492.188   -24590483.856 9 -19145012.72347  21245491.512    21245494.9954
  20766928.768   -26630200.714 9 -20500500.96048  20766927.445    20766931.4064
  20618584.520   -23804013.677 9 -18009968.85548  20618584.201    20618587.2124
 00  1 22  3 25  0.0000000  0  6 17 24 05 06 10 30
  23369283.124   -14487946.927 8 -11041099.02346  23369282.043    23369286.9784
  22971282.996   -12906622.093 8 -10031385.27646  22971282.312    22971286.4914
  21786967.937   -20228130.192 9 -15749993.18047  21786966.887    21786970.8914
  21235409.513   -24643468.561 9 -19186299.50447  21235408.842    21235412.2994
  20769881.033   -26614686.339 9 -20488411.83248  20769879.721    20769883.6634
  20622442.487   -23783739.808 9 -17994171.03848  20622442.170    20622445.1924
 00  1 22  3 25 30.0000000  0  6 17 24 05 06 10 30
  23355593.259   -14559887.664 8 -11097156.69646  23355592.150    23355597.0644
  22985677.558   -12830978.117 8  -9972441.92146  22985676.887    22985681.0814
  21803372.307   -20141924.665 9 -15682820.05247  21803371.230    21803375.2674
  21225352.482   -24696318.677 9 -19227481.40547  21225351.805    21225355.2614
  20772944.054   -26598590.223 9 -20475869.39648  20772942.731    20772946.6554
  20626407.806   -23762901.865 9 -17977933.68148  20626407.495    20626410.5154
 00  1 22  3 26  0.0000000  0  6 17 24 05 06 10 30
  23341940.902   -14631631.001 8 -11153060.56646  23341939.801    23341944.7164
  23000070.238   -12755344.138 8  -9913506.35146  23000069.533    23000073.7514
  21819836.794   -20055403.259 9 -15615400.78647  21819835.732    21819839.7674
  21215322.093   -24749028.621 9 -19268554.08247  21215321.409    21215324.8474
  20776120.598   -26581897.315 9 -20462861.92948  20776119.282    20776123.1994
  20630486.855   -23741466.251 9 -17961230.61148  20630486.531    20630489.5774
 00  1 22  3 26 30.0000000  0  6 17 24 05 06 10 30
  23328330.207   -14703155.414 8 -11208793.84146  23328329.114    23328334.0434
  23014463.631   -12679706.477 8  -9854567.91746  23014462.939    23014467.1324
  21836362.991   -19968557.571 9 -15547728.83047  21836361.921    21836365.9594
  21205320.232   -24801588.813 9 -19309510.06947  21205319.543    21205322.9954
  20779413.610   -26564592.372 9 -20449377.55248  20779412.292    20779416.2054
  20634683.996   -23719410.203 9 -17944044.08748  20634683.686    20634686.7164
 00  1 22  3 27  0.0000000  0  6 17 24 05 06 10 30
  23314760.862   -14774462.614 8 -11264357.86046  23314759.788    23314764.7064
  23028860.539   -12604050.105 8  -9795614.89846  23028859.842    23028864.0834
  21852952.365   -19881379.788 9 -15479798.09947  21852951.286    21852955.3574
  21195346.969   -24853998.668 9 -19350348.91247  21195346.287    21195349.7194
  20782825.635   -26546662.143 9 -20435405.93547  20782824.300    20782828.2304
  20639001.436   -23696721.935 9 -17926364.91948  20639001.127    20639004.1464
 00  1 22  3 27 30.0000000  0  6 17 24 05 06 10 30
  23301231.537   -14845559.564 8 -11319758.04046  23301230.473    23301235.3814
  23043265.090   -12528353.772 8  -9736630.74446  23043264.361    23043268.6044
  21869605.766   -19793865.624 9 -15411605.25847  21869604.678    21869608.7774
  21185406.395   -24906236.688 9 -19391053.85247  21185405.699    21185409.1484
  20786355.206   -26528114.010 9 -20420952.83947  20786353.887    20786357.8174
  20643440.396   -23673395.067 9 -17908188.14448  20643440.074    20643443.1024
 00  1 22  3 28  0.0000000  0  6 17 24 05 06 10 30
  23287742.190   -14916446.403 8 -11374994.50146  23287741.102    23287746.0064
  23057679.093   -12452607.643 8  -9677607.78746  23057678.381    23057682.6584
  21886320.010   -19706031.696 9 -15343163.24947  21886318.937    21886323.0214
  21175501.149   -24958289.152 9 -19431614.21047  21175500.456    21175503.9114
  20789999.784   -26508961.525 9 -20406028.82147  20789998.474    20790002.3874
  20647995.274   -23649459.100 9 -17889536.74448  20647994.971    20647997.9834
 00  1 22  3 28 30.0000000  0  6 17 24 05 06 10 30
  23274289.445   -14987140.821 8 -11430081.02346  23274288.356    23274293.2804
  23072099.044   -12376830.371 8  -9618560.55946  23072098.319    23072102.6504
  21903092.417   -19617892.209 9 -15274483.14347  21903091.365    21903095.4374
  21165631.163   -25010156.209 9 -19472030.09547  21165630.459    21165633.9104
  20793754.219   -26489231.740 9 -20390654.95347  20793752.914    20793756.8424
  20652658.188   -23624955.280 9 -17870442.86148  20652657.892    20652660.8794
 00  1 22  3 29  0.0000000  0  6 17 24 05 06 10 30
  23260868.453   -15057668.340 8 -11485037.49346  23260867.376    23260872.2434
  23086522.439   -12301034.755 8  -9559499.04246  23086521.753    23086526.0254
  21919919.796   -19529463.828 9 -15205577.92547  21919918.726    21919922.8124
  21155796.896   -25061835.486 9 -19512299.65747  21155796.217    21155799.6524
  20797617.540   -26468929.874 9 -20374835.31647  20797616.220    20797620.1544
  20657422.417   -23599919.027 9 -17850934.09948  20657422.124    20657425.1064
 00  1 22  3 29 30.0000000  0  6 17 24 05 06 10 30
  23247478.409   -15128033.300 8 -11539867.29746  23247477.337    23247482.1754
  23100946.695   -12225234.921 8  -9500434.23246  23100946.038    23100950.3024
  21936800.044   -19440757.690 9 -15136456.27147  21936798.970    21936803.0564
  21145997.666   -25113330.824 9 -19552425.88947  21145996.971    21146000.4164
  20801590.134   -26448053.627 9 -20358568.10447  20801588.820    20801592.7454
  20662284.706   -23574367.640 9 -17831023.93348  20662284.408    20662287.3954
 00  1 22  3 30  0.0000000  0  6 17 24 05 06 10 30
  23234120.164   -15198231.296 8 -11594566.99246  23234119.064    23234123.9354
  23115368.875   -12149445.730 8  -9441377.72446  23115368.213    23115372.4324
  21953733.435   -19351772.063 9 -15067116.83247  21953732.357    21953736.4454
  21136231.237   -25164653.675 9 -19592417.71447  21136230.552    21136233.9944
  20805673.248   -26426596.769 9 -20341848.47047  20805671.933    20805675.8434
  20667245.030   -23548300.944 9 -17810712.22548  20667244.724    20667247.7254
 00  1 22  3 30 30.0000000  0  6 17 24 05 06 10 30
  23220795.757   -15268251.479 8 -11649128.12046  23220794.658    23220799.5304
  23129787.820   -12073673.644 8  -9382334.53646  23129787.191    23129791.4174
  21970719.555   -19262509.472 9 -14997561.57147  21970718.478    21970722.5584
  21126498.010   -25215802.062 9 -19632273.59647  21126497.330    21126500.7574
  20809868.211   -26404551.968 9 -20324670.69447  20809866.889    20809870.8154
  20672308.552   -23521691.878 9 -17789977.88948  20672308.239    20672311.2424
 00  1 22  3 31  0.0000000  0  6 17 24 05 06 10 30
  23207507.359   -15338082.280 8 -11703541.68946  23207506.278    23207511.1334
  23144206.483   -11997903.172 8  -9323292.61846  23144205.840    23144210.0714
  21987759.909   -19172961.928 9 -14927784.27847  21987758.821    21987762.9084
  21116797.230   -25266780.030 9 -19671996.68347  21116796.556    21116799.9864
  20814177.976   -26381904.060 9 -20307022.97047  20814176.655    20814180.5784
  20677481.363   -23494508.584 9 -17768796.10648  20677481.058    20677484.0684
 00  1 22  3 31 30.0000000  0  6 17 24 05 06 10 30
  23194258.362   -15407705.993 8 -11757793.89446  23194257.260    23194262.1634
  23158625.762   -11922129.529 8  -9264248.21746  23158625.087    23158629.3594
  22004857.114   -19083115.352 8 -14857773.97147  22004856.025    22004860.1174
  21107129.467   -25317584.486 9 -19711584.56947  21107128.799    21107132.2224
  20818602.453   -26358653.185 9 -20288905.40247  20818601.132    20818605.0574
  20682770.526   -23466713.803 9 -17747137.84148  20682770.226    20682773.2484
 00  1 22  3 32  0.0000000  0  6 17 24 05 06 10 30
  23181051.913   -15477106.411 8 -11811872.08546  23181050.813    23181055.6664
  23173047.531   -11846342.564 8  -9205193.45246  23173046.844    23173051.1064
  22022010.869   -18992971.837 9 -14787532.28147  22022009.790    22022013.8914
  21097498.156   -25368197.508 9 -19751023.27847  21097497.466    21097500.8834
  20823139.203   -26334812.459 9 -20270328.20747  20823137.882    20823141.8014
  20688178.642   -23438294.113 9 -17724992.63348  20688178.312    20688181.3364
 00  1 22  3 32 30.0000000  0  6 17 24 05 06 10 30
  23167886.973   -15546288.567 8 -11865780.21246  23167885.836    23167890.7214
  23187472.241   -11770539.958 8  -9146126.48246  23187471.608    23187475.7894
  22039221.584   -18902528.922 8 -14717057.29347  22039220.515    22039224.6024
  21087905.251   -25418608.597 9 -19790304.63947  21087904.557    21087907.9754
  20827789.008   -26310377.544 9 -20251288.01347  20827787.673    20827791.5994
  20693703.999   -23409258.065 9 -17702367.14748  20693703.697    20693706.7144
 00  1 22  3 33  0.0000000  0  6 17 24 05 06 10 30
  23154761.011   -15615265.595 8 -11919528.49646  23154759.914    23154764.7704
  23201899.881   -11694722.370 8  -9087047.84746  23201899.230    23201903.4274
  22056492.133   -18811771.745 8 -14646337.42847  22056491.069    22056495.1224
  21078349.534   -25468824.275 9 -19829433.73847  21078348.833    21078352.2344
  20832552.277   -26285346.294 9 -20231783.13947  20832550.935    20832554.8704
  20699343.390   -23379622.699 9 -17679274.66148  20699343.093    20699346.1054
 00  1 22  3 33 30.0000000  0  6 17 24 05 06 10 30
  23141673.978   -15684038.168 8 -11973117.46546  23141672.893    23141677.6984
  23216328.372   -11618900.227 8  -9027965.65746  23216327.711    23216331.8584
  22073821.826   -18720703.609 8 -14575375.25947  22073820.742    22073824.7824
  21068832.465   -25518836.924 9 -19868404.63247  21068831.761    21068835.1644
  20837427.736   -26259725.405 9 -20211818.80947  20837426.430    20837430.3474
  20705095.992   -23349392.694 9 -17655718.82248  20705095.690    20705098.7074
 00  1 22  3 34  0.0000000  0  6 17 24 05 06 10 30
  23128624.345   -15752614.625 8 -12026553.61746  23128623.237    23128628.0354
  23230757.906   -11543072.453 8  -8968879.09246  23230757.212    23230761.4374
  22091210.263   -18629326.832 8 -14504172.58747  22091209.184    22091213.2484
  21059353.857   -25568647.286 9 -19907217.89947  21059353.153    21059356.5684
  20842416.297   -26233510.438 9 -20191391.55847  20842414.966    20842418.9074
  20710960.065   -23318576.942 9 -17631706.55448  20710959.751    20710962.7674
 00  1 22  3 34 30.0000000  0  6 17 24 05 06 10 30
  23115610.818   -15821000.989 8 -12079841.64846  23115609.706    23115614.4474
  23245187.284   -11467245.415 8  -8909793.09146  23245186.632    23245190.8524
  22108660.966   -18537622.815 8 -14432714.92547  22108659.883    22108663.9534
  21049912.339   -25618262.742 9 -19945879.28847  21049911.649    21049915.0664
  20847521.084   -26206684.562 9 -20170488.27547  20847519.742    20847523.6794
  20716936.115   -23287172.503 9 -17607235.56948  20716935.794    20716938.8414
 00  1 22  3 35  0.0000000  0  6 17 24 05 06 10 30
  23102635.220   -15889187.994 8 -12132974.33146  23102634.119    23102638.8814
  23259617.870   -11391412.004 8  -8850702.13246  23259617.212    23259621.4184
  22126172.997   -18445596.291 8 -14361005.95847  22126171.940    22126176.0174
  21040508.489   -25667680.260 9 -19984386.44047  21040507.799    21040511.2124
  20852741.572   -26179250.598 9 -20149111.15747  20852740.238    20852744.1834
  20723028.584   -23255156.435 9 -17582287.98448  20723028.256    20723031.3074
 00  1 22  3 35 30.0000000  0  6 17 24 05 06 10 30
  23089701.122   -15957156.725 8 -12185936.92446  23089700.023    23089704.8284
  23274050.792   -11315566.555 8  -8791601.78246  23274050.160    23274054.3574
  22143743.922   -18353260.566 8 -14289056.05547  22143742.846    22143746.9364
  21031145.217   -25716884.356 9 -20022727.29347  21031144.532    21031147.9364
  20858077.050   -26151212.576 9 -20127263.34647  20858075.725    20858079.6724
  20729238.979   -23222520.536 9 -17556857.41848  20729238.667    20729241.7224
 00  1 22  3 36  0.0000000  0  6 17 24 05 06 10 30
  23076810.338   -16024898.167 8 -12238722.42546  23076809.248    23076814.0154
  23288485.945   -11239709.287 8  -8732492.22346  23288485.267    23288489.5264
  22161371.329   -18260627.906 8 -14216874.77547  22161370.233    22161374.3264
  21021822.435   -25765875.941 9 -20060902.54847  21021821.756    21021825.1384
  20863526.251   -26122576.922 9 -20104949.84847  20863524.942    20863528.8664
  20735561.088   -23189297.622 9 -17530969.44048  20735560.780    20735563.8224
 00  1 22  3 36 30.0000000  0  6 17 24 05 06 10 30
  23063961.970   -16092416.712 8 -12291334.22846  23063960.862    23063965.6474
  23302920.834   -11163853.628 8  -8673383.93046  23302920.134    23302924.3914
  22179048.833   -18167732.021 8 -14144488.38547  22179047.735    22179051.8244
  21012539.486   -25814658.157 9 -20098914.66447  21012538.772    21012542.1674
  20869085.740   -26093361.527 9 -20082184.60247  20869084.423    20869088.3574
  20741990.576   -23155510.499 9 -17504641.81548  20741990.279    20741993.3194
 00  1 22  3 37  0.0000000  0  6 17 24 05 06 10 30
  23051155.315   -16159715.794 8 -12343775.02946  23051154.228    23051158.9444
  23317356.171   -11087995.519 8  -8614273.71946  23317355.501    23317359.7344
  22196768.849   -18074612.738 8 -14071927.91547  22196767.748    22196771.8794
  21003295.771   -25863234.114 9 -20136766.05747  21003295.071    21003298.4804
  20874753.673   -26063576.389 9 -20058975.39847  20874752.340    20874756.2794
  20748525.093   -23121171.341 9 -17477884.03448  20748524.795    20748527.8264
 00  1 22  3 37 30.0000000  0  6 17 24 05 06 10 30
  23038389.693   -16226799.474 8 -12396047.97746  23038388.585    23038393.2964
  23331790.174   -11012144.275 8  -8555168.85046  23331789.548    23331793.7074
  22214528.583   -17981284.742 8 -13999204.81447  22214527.483    22214531.6374
  20994090.782   -25911606.706 9 -20174458.98047  20994090.084    20994093.4874
  20880530.052   -26033221.082 9 -20035321.90347  20880528.721    20880532.6614
  20755159.412   -23086307.857 9 -17450717.68748  20755159.102    20755162.1504
 00  1 22  3 38  0.0000000  0  7 17 24 13 05 06 10 30
  23025665.482   -16293665.465 8 -12448151.30746  23025664.374    23025669.0594
  23346224.568   -10936291.060 8  -8496062.45646  23346223.945    23346228.1474
  24827718.162    -5609493.204 8  -4075379.45745  24827717.769    24827720.5354
  22232330.838   -17887733.290 8 -13926307.59847  22232329.738    22232333.8724
  20984926.127   -25959767.176 9 -20211986.61848  20984925.448    20984928.8404
  20886418.230   -26002278.442 9 -20011210.75347  20886416.924    20886420.8514
  20761896.378   -23050904.880 9 -17423130.96048  20761896.059    20761899.1124
 00  1 22  3 38 30.0000000  0  7 17 24 13 05 06 10 30
  23012978.804   -16360334.271 8 -12500100.98246  23012977.697    23012982.4054
  23360659.566   -10860434.899 8  -8436953.76746  23360658.922    23360663.1274
  24824068.310    -5628673.122 8  -4090324.85145  24824067.856    24824070.6444
  22250176.338   -17793954.464 8 -13853233.20547  22250175.245    22250179.4174
  20975803.405   -26007707.357 9 -20249342.60148  20975802.724    20975806.1114
  20892418.950   -25970744.497 9 -19986638.84747  20892417.630    20892421.5574
  20768740.120   -23014940.751 9 -17395106.97048  20768739.831    20768742.8834
 00  1 22  3 39  0.0000000  0  7 17 24 13 05 06 10 30
  23000325.357   -16426828.417 8 -12551914.54846  23000324.247    23000328.9164
  23375088.558   -10784609.932 8  -8377869.37246  23375087.893    23375092.1334
  24820508.320    -5647380.899 8  -4104902.29445  24820507.810    24820510.5964
  22268066.638   -17699940.444 8 -13779975.54647  22268065.559    22268069.7384
  20966719.058   -26055445.983 9 -20286541.52348  20966718.373    20966721.7624
  20898528.704   -25938637.433 9 -19961620.34847  20898527.381    20898531.3084
  20775687.631   -22978431.582 9 -17366658.26948  20775687.321    20775690.3874
 00  1 22  3 39 30.0000000  0  7 17 24 13 05 06 10 30
  22987706.343   -16493141.651 8 -12603587.15546  22987705.253    22987709.8784
  23389510.068   -10708824.270 8  -8318815.62246  23389509.449    23389513.6994
  24817038.943    -5665612.752 8  -4119108.91945  24817038.462    24817041.1944
  22286009.548   -17605649.712 8 -13706502.26747  22286008.458    22286012.6704
  20957676.163   -26102966.775 9 -20323570.70948  20957675.473    20957678.8434
  20904748.433   -25905952.589 9 -19936151.63047  20904747.105    20904751.0454
  20782740.064   -22941370.666 9 -17337779.64148  20782739.749    20782742.8304
 00  1 22  3 40  0.0000000  0  7 17 24 13 05 06 10 30
  22975122.821   -16559268.345 8 -12655114.40646  22975121.754    22975126.3614
  23403926.419   -10633065.741 8  -8259782.99446  23403925.769    23403930.0794
  24813657.159    -5683383.987 8  -4132956.61245  24813656.673    24813659.3334
  22304008.266   -17511065.788 8 -13632800.52047  22304007.187    22304011.3834
  20948675.345   -26150266.408 9 -20360427.56248  20948674.644    20948678.0144
  20911078.717   -25872686.536 9 -19910230.02847  20911077.402    20911081.3294
  20789900.317   -22903743.159 9 -17308459.51148  20789900.012    20789903.0884
 00  1 22  3 40 30.0000000  0  7 17 24 13 05 06 10 30
  22962576.984   -16625196.990 8 -12706487.33246  22962575.909    22962580.5474
  23418339.163   -10557326.217 8  -8200765.19046  23418338.532    23418342.8914
  24810359.501    -5700712.901 8  -4146459.64445  24810358.997    24810361.6714
  22322064.730   -17416178.365 8 -13558862.29546  22322063.667    22322067.8734
  20939717.410   -26197340.596 9 -20397108.74948  20939716.736    20939720.0924
  20917521.034   -25838831.889 9 -19883849.77847  20917519.722    20917523.6454
  20797169.893   -22865541.303 9 -17278691.83548  20797169.579    20797172.6494
 00  1 22  3 41  0.0000000  0  7 17 24 13 05 06 10 30
  22950071.714   -16690912.404 8 -12757694.10446  22950070.646    22950075.2714
  23432749.948   -10481596.921 8  -8141755.35646  23432749.285    23432753.7014
  24807144.467    -5717608.086 8  -4159624.68345  24807143.923    24807146.5074
  22340179.431   -17320984.957 8 -13484685.63046  22340178.396    22340182.5744
  20930802.518   -26244188.760 9 -20433613.80848  20930801.827    20930805.1944
  20924075.692   -25804387.022 9 -19857009.61547  20924074.385    20924078.3054
  20804548.099   -22826768.544 9 -17248479.30148  20804547.791    20804550.8754
 00  1 22  3 41 30.0000000  0  7 17 24 13 05 06 10 30
  22937606.983   -16756414.875 8 -12808734.94446  22937605.896    22937610.5414
  23447164.140   -10405849.721 8  -8082731.56546  23447163.466    23447167.9044
  24804011.605    -5734070.982 8  -4172452.90745  24804011.201    24804013.6734
  22358346.511   -17225516.516 8 -13410294.65746  22358345.460    22358349.6624
  20921930.737   -26290810.212 9 -20469942.20748  20921930.039    20921933.3984
  20930741.176   -25769359.690 9 -19829715.58347  20930739.850    20930743.7954
  20812033.840   -22787430.822 9 -17217826.53648  20812033.529    20812036.6104
 00  1 22  3 42  0.0000000  0  7 17 24 13 05 06 10 30
  22925183.134   -16821702.340 8 -12859608.25446  22925182.017    22925186.7074
  23461583.234   -10330076.727 8  -8023687.68146  23461582.565    23461586.9774
  24800959.830    -5750108.128 8  -4184949.36045  24800959.492    24800962.0034
  22376558.643   -17129811.229 8 -13335719.12546  22376557.591    22376561.7604
  20913100.827   -26337211.503 9 -20506099.05848  20913100.142    20913103.5034
  20937512.847   -25733774.260 9 -19801986.67447  20937511.512    20937515.4684
  20819625.245   -22747537.793 9 -17186741.06648  20819624.943    20819628.0144
 00  1 22  3 42 30.0000000  0  7 17 24 13 05 06 10 30
  22912797.884   -16886787.089 8 -12910323.61046  22912796.751    22912801.4434
  23476003.673   -10254296.820 8  -7964638.40846  23476003.021    23476007.3614
  24797989.997    -5765714.721 8  -4197110.32145  24797989.679    24797992.2644
  22394812.490   -17033886.876 8 -13260972.89346  22394811.395    22394815.5864
  20904312.555   -26383394.126 9 -20542085.51448  20904311.876    20904315.2424
  20944388.009   -25697645.122 9 -19773834.09247  20944386.693    20944390.6354
  20827318.505   -22707109.551 9 -17155238.54648  20827318.188    20827321.2694
 00  1 22  3 43  0.0000000  0  7 17 24 13 05 06 10 30
  22900450.590   -16951672.319 8 -12960883.48946  22900449.479    22900454.1204
  23490424.040   -10178517.386 8  -7905589.49146  23490423.308    23490427.7284
  24795104.716    -5780877.080 8  -4208925.12945  24795104.446    24795106.9574
  22413103.590   -16937766.546 8 -13186073.95546  22413102.502    22413106.6874
  20895566.100   -26429357.119 9 -20577900.82848  20895565.421    20895568.7884
  20951364.266   -25660984.593 9 -19745267.43847  20951362.943    20951366.8874
  20835111.337   -22666157.970 9 -17123328.23048  20835111.023    20835114.0964
 00  1 22  3 43 30.0000000  0  7 17 24 13 05 06 10 30
  22888140.105   -17016364.188 8 -13011292.70446  22888138.991    22888143.6114
  23504841.706   -10102751.988 8  -7846551.52646  23504840.987    23504845.3934
  24792304.541    -5795592.185 8  -4220391.42945  24792304.255    24792306.7884
  22431430.380   -16841458.913 8 -13111029.06646  22431429.275    22431433.4824
  20886859.482   -26475110.819 9 -20613553.06048  20886858.779    20886862.1524
  20958440.645   -25623797.843 9 -19716290.74647  20958439.334    20958443.2704
  20843003.426   -22624684.733 9 -17091011.43048  20843003.109    20843006.1904
 00  1 22  3 44  0.0000000  0  7 17 24 13 05 06 10 30
  22875864.148   -17080874.686 8 -13061560.59146  22875863.030    22875867.6424
  23519252.919   -10027020.599 8  -7787540.06546  23519252.210    23519256.5624
  24789590.811    -5809853.009 8  -4231503.75745  24789590.534    24789592.9274
  22449796.686   -16744943.511 8 -13035822.27246  22449795.580    22449799.7734
  20878190.650   -26520665.598 9 -20649050.28348  20878189.970    20878193.3304
  20965618.163   -25586079.771 9 -19686900.03447  20965616.836    20965620.7914
  20850996.229   -22582682.251 9 -17058282.22948  20850995.926    20850998.9864
 00  1 22  3 44 30.0000000  0  7 17 24 13 05 06 10 30
  22863620.758   -17145213.894 8 -13111695.00346  22863619.636    22863624.2364
  23533657.862    -9951322.174 8  -7728554.28646  23533657.218    23533661.4664
  24786966.463    -5823643.836 8  -4242249.82745  24786966.132    24786968.6434
  22468205.434   -16648204.844 8 -12960441.51346  22468204.306    22468208.5154
  20869561.138   -26566013.931 9 -20684386.64548  20869560.434    20869563.7974
  20972901.584   -25547804.948 9 -19657075.49147  20972900.253    20972904.1954
  20859092.230   -22540137.418 9 -17025130.41848  20859091.921    20859094.9954
 00  1 22  3 45  0.0000000  0  7 17 24 13 05 06 10 30
  22851412.131   -17209370.401 8 -13161687.05746  22851411.028    22851415.6134
  23548060.914    -9875633.861 8  -7669576.38446  23548060.217    23548064.5444
  24784432.468    -5836959.827 8  -4252625.91145  24784432.134    24784434.7244
  22486657.961   -16551236.145 8 -12884881.51546  22486656.842    22486661.0384
  20860973.025   -26611144.896 9 -20719553.62748  20860972.329    20860975.6924
  20980292.341   -25508966.370 9 -19626811.65747  20980291.017    20980294.9504
  20867296.317   -22497024.646 9 -16991536.05548  20867295.992    20867299.1014
 00  1 22  3 45 30.0000000  0  7 17 24 13 05 06 10 30
  22839238.069   -17273345.528 8 -13211537.77946  22839236.975    22839241.5354
  23562463.520    -9799947.748 8  -7610600.19746  23562462.826    23562467.1154
  24781990.433    -5849792.957 8  -4262625.74045  24781990.036    24781992.5904
  22505157.736   -16454019.232 8 -12809128.09646  22505156.614    22505160.8174
  20852427.972   -26656049.527 9 -20754544.24848  20852427.275    20852430.6304
  20987790.133   -25469565.144 9 -19596109.39747  20987788.796    20987792.7334
  20875609.470   -22453338.832 9 -16957495.17048  20875609.156    20875612.2624
 00  1 22  3 46  0.0000000  0  7 17 24 13 05 06 10 30
  22827099.865   -17337132.029 8 -13261241.51246  22827098.759    22827103.3174
  23576866.326    -9724260.535 8  -7551623.15046  23576865.626    23576869.9164
  24779640.091    -5862143.901 8  -4272249.82945  24779639.662    24779642.2284
  22523703.662   -16356559.705 8 -12733185.62646  22523702.575    22523706.7494
  20843927.874   -26700717.882 9 -20789350.75948  20843927.170    20843930.5154
  20995395.752   -25429597.422 9 -19564965.71547  20995394.431    20995398.3534
  20884030.906   -22409083.952 9 -16923010.85648  20884030.596    20884033.6814
 00  1 22  3 46 30.0000000  0  7 17 24 13 05 06 10 30
  22815000.381   -17400715.165 8 -13310786.79446  22814999.304    22815003.8334
  23591269.028    -9648573.731 8  -7492646.43546  23591268.335    23591272.6134
  24777380.144    -5874019.995 8  -4281503.91245  24777379.657    24777382.1674
  22542292.210   -16258876.400 8 -12657068.78846  22542291.136    22542295.3194
  20835476.647   -26745129.262 9 -20823957.02748  20835475.950    20835479.2894
  21003110.598   -25389055.448 9 -19533374.56247  21003109.280    21003113.2104
  20892558.351   -22364271.840 9 -16888092.33648  20892558.043    20892561.1474
 00  1 22  3 47  0.0000000  0  8 17 24 13 05 26 06 10 30
  22802947.444   -17464053.688 8 -13360141.45746  22802946.359    22802950.8684
  23605675.993    -9572864.734 8  -7433652.40745  23605675.271    23605679.6324
  24775215.716    -5885394.023 8  -4290366.76545  24775215.285    24775217.8554
  22560928.126   -16160943.879 8 -12580757.75846  22560927.055    22560931.2334
  24362257.910    -5211986.383 8  -4049098.82545  24362257.620    24362261.6994
  20827080.855   -26789249.547 9 -20858336.46948  20827080.172    20827083.5074
  21010939.272   -25347915.312 9 -19501317.31147  21010937.960    21010941.9054
  20901194.167   -22318890.420 9 -16852730.20148  20901193.865    20901196.9554
 00  1 22  3 47 30.0000000  0  8 17 24 13 05 26 06 10 30
  22790933.133   -17527189.216 8 -13409337.94446  22790932.066    22790936.5514
  23620076.792    -9497187.989 8  -7374683.52245  23620076.022    23620080.3884
  24773138.941    -5896307.352 8  -4298870.64845  24773138.523    24773140.9864
  22579602.664   -16062808.526 8 -12504288.67046  22579601.597    22579605.8224
  24346037.247    -5297226.264 8  -4115519.47845  24346036.810    24346041.0864
  20818733.389   -26833115.949 9 -20892518.07648  20818732.691    20818736.0364
  21018875.563   -25306209.806 9 -19468819.50947  21018874.256    21018878.2084
  20909928.469   -22272991.454 9 -16816964.78048  20909928.158    20909931.2434
 00  1 22  3 48  0.0000000  0  8 17 24 13 05 26 06 10 30
  22778960.510   -17590105.680 8 -13458363.74146  22778959.434    22778963.9284
  23634472.177    -9421539.762 8  -7315736.85645  23634471.425    23634475.8534
  24771149.993    -5906759.289 8  -4307014.99745  24771149.489    24771151.9774
  22598315.490   -15964472.221 8 -12427662.99646  22598314.363    22598318.6494
  24329811.359    -5382493.851 8  -4181961.71545  24329810.972    24329815.2134
  20810436.232   -26876717.719 9 -20926493.48048  20810435.555    20810438.9004
  21026923.011   -25263920.407 9 -19435866.72547  21026921.695    21026925.6264
  20918763.346   -22226563.915 9 -16780787.48448  20918763.032    20918766.1284
 00  1 22  3 48 30.0000000  0  8 17 24 13 05 26 06 10 30
  22767030.465   -17652798.359 8 -13507215.15346  22767029.394    22767033.8964
  23648863.742    -9345911.412 8  -7256805.68245  23648863.012    23648867.4474
  24769251.209    -5916737.487 8  -4314790.19545  24769250.795    24769253.2994
  22617069.097   -15865921.420 8 -12350870.18046  22617067.999    22617072.2824
  24313583.606    -5467771.302 8  -4248411.64045  24313583.187    24313587.3384
  20802192.733   -26920037.595 9 -20960249.22248  20802192.052    20802195.4004
  21035079.165   -25221059.478 9 -19402468.59447  21035077.849    21035081.7664
  20927699.929   -22179601.806 9 -16744193.64248  20927699.605    20927702.6994
 00  1 22  3 49  0.0000000  0  8 17 24 13 05 26 06 10 30
  22755142.622   -17715269.100 8 -13555893.63246  22755141.563    22755146.0424
  23663252.101    -9270299.997 8  -7197887.71145  23663251.442    23663255.8614
  24767442.927    -5926239.956 8  -4322194.71245  24767442.636    24767444.9804
  22635864.698   -15767149.810 8 -12273905.31546  22635863.608    22635867.8834
  24297357.743    -5553038.702 8  -4314853.74945  24297357.340    24297361.4474
  20793999.305   -26963094.393 9 -20993799.97348  20793998.614    20794001.9764
  21043339.862   -25177649.359 9 -19368642.52947  21043338.550    21043342.4574
  20936738.942   -22132101.479 9 -16707180.41148  20936738.617    20936741.7164
 00  1 22  3 49 30.0000000  0  8 17 24 13 05 26 06 10 30
  22743295.757   -17777524.756 8 -13604404.50946  22743294.685    22743299.1794
  23677636.059    -9194711.808 8  -7138987.81645  23677635.334    23677639.8104
  24765723.893    -5935273.735 8  -4329233.98945  24765723.526    24765725.9474
  22654701.531   -15668161.644 8 -12196771.69346  22654700.448    22654704.7544
  24281135.125    -5638288.731 8  -4381282.28645  24281134.740    24281138.8944
  20785851.502   -27005911.307 9 -21027163.79748  20785850.825    20785854.1684
  21051700.988   -25133711.201 9 -19334404.99947  21051699.672    21051703.5884
  20945882.597   -22084051.328 9 -16669738.74448  20945882.287    20945885.3704
 00  1 22  3 50  0.0000000  0  8 17 24 13 05 26 06 10 30
  22731487.922   -17839575.343 8 -13652755.59646  22731486.829    22731491.3424
  23692016.081    -9119144.419 8  -7080104.14445  23692015.309    23692019.7614
  24764096.032    -5943827.996 8  -4335899.63245  24764095.633    24764098.1274
  22673578.878   -15568960.606 8 -12119472.21646  22673577.769    22673582.0794
  24264915.989    -5723520.842 7  -4447696.87845  24264915.679    24264919.8174
  20777747.639   -27048497.437 9 -21060347.79348  20777746.955    20777750.2884
  21060159.379   -25089262.089 9 -19299769.32447  21060158.066    21060161.9864
  20955128.477   -22035463.988 9 -16631878.48947  20955128.157    20955131.2444
 00  1 22  3 50 30.0000000  0  8 17 24 13 05 26 06 10 30
  22719716.016   -17901437.001 8 -13700959.46846  22719714.929    22719719.4254
  23706390.976    -9043603.805 8  -7021241.33245  23706390.238    23706394.6934
  24762560.324    -5951898.303 8  -4342188.17345  24762559.917    24762562.4014
  22692494.649   -15469557.606 8 -12042015.35946  22692493.554    22692497.8414
  24248700.289    -5808734.675 8  -4514097.20945  24248699.955    24248704.1334
  20769684.832   -27090867.792 9 -21093363.65048  20769684.147    20769687.4844
  21068711.788   -25044318.983 9 -19264748.72047  21068710.475    21068714.4024
  20964474.807   -21986348.576 9 -16593606.74647  20964474.506    20964477.5804
 00  1 22  3 51  0.0000000  0  8 17 24 13 05 26 06 10 30
  22707978.346   -17963118.870 8 -13749023.23946  22707977.245    22707981.7314
  23720760.267    -8968092.827 8  -6962401.61945  23720759.520    23720763.8924
  24761116.020    -5959488.024 8  -4348102.22045  24761115.616    24761118.0194
  22711445.100   -15369972.586 8 -11964416.65946  22711444.014    22711448.2794
  24232486.616    -5893937.913 7  -4580489.30045  24232486.249    24232490.4614
  20761659.707   -27133040.005 9 -21126225.11148  20761659.033    20761662.3654
  21077358.653   -24998879.468 9 -19229341.30247  21077357.329    21077361.2524
  20973922.479   -21936700.705 9 -16554920.10147  20973922.176    20973925.2814
 00  1 22  3 51 30.0000000  0  8 17 24 13 05 26 06 10 30
  22696273.648   -18024627.424 8 -13796951.96246  22696272.577    22696277.0434
  23735125.472    -8892603.316 8  -6903578.62945  23735124.794    23735129.0584
  24759763.126    -5966597.320 8  -4353641.89945  24759762.842    24759765.1134
  22730426.969   -15270222.382 8 -11886689.25946  22730425.863    22730430.1404
  24216273.663    -5979137.200 8  -4646878.28645  24216273.173    24216277.6074
  20753677.070   -27174989.133 9 -21158912.74048  20753676.379    20753679.6994
  21086101.148   -24952937.334 9 -19193542.23447  21086099.827    21086103.7534
  20983469.702   -21886529.695 9 -16515825.81947  20983469.396    20983472.5054
 00  1 22  3 52  0.0000000  0  8 17 24 13 05 26 06 10 30
  22684602.239   -18085960.994 8 -13844744.33046  22684601.138    22684605.6294
  23749487.325    -8817131.415 8  -6844769.36245  23749486.622    23749490.8234
  24758502.023    -5973224.333 8  -4358805.80445  24758501.626    24758504.0944
  22749438.218   -15170317.557 8 -11808841.36546  22749437.102    22749441.4024
  24200063.161    -6064324.188 8  -4713257.73145  24200062.695    24200067.0874
  20745742.553   -27216685.091 9 -21191403.09148  20745741.872    20745745.1884
  21094942.642   -24906474.838 9 -19157337.68847  21094941.326    21094945.2534
  20993113.761   -21835849.854 9 -16476335.04147  20993113.460    20993116.5754
 00  1 22  3 52 30.0000000  0  8 17 24 13 05 26 06 10 30
  22672966.984   -18147104.549 8 -13892388.63946  22672965.883    22672970.3554
  23763845.630    -8741678.170 8  -6785974.62545  23763845.003    23763849.1114
  24757329.826    -5979384.241 8  -4363605.73045  24757329.478    24757331.9344
  22768480.341   -15070250.785 8 -11730867.27846  22768479.240    22768483.5054
  24183858.593    -6149479.637 8  -4779612.56945  24183858.133    24183862.5104
  20737859.093   -27258112.907 9 -21223684.50448  20737858.409    20737861.7334
  21103884.588   -24859484.578 9 -19120721.89647  21103883.276    21103887.1884
  21002855.636   -21784655.970 9 -16436443.71347  21002855.336    21002858.4684
 00  1 22  3 53  0.0000000  0  8 17 24 13 05 26 06 10 30
  22661369.766   -18208048.337 8 -13939877.28846  22661368.651    22661373.1234
  23778201.661    -8666236.582 8  -6727188.99145  23778200.984    23778205.0424
  24756244.883    -5985085.420 8  -4368048.18945  24756244.479    24756246.9704
  22787554.088   -14970017.689 8 -11652763.59546  22787552.985    22787557.2534
  24167661.223    -6234597.074 7  -4845937.77645  24167660.796    24167665.2434
  20730030.667   -27299251.779 9 -21255740.76648  20730029.979    20730033.3114
  21112928.746   -24811957.100 9 -19083687.49747  21112927.425    21112931.3374
  21012692.574   -21732962.764 9 -16396163.30447  21012692.256    21012695.3794
 00  1 22  3 53 30.0000000  0  8 17 24 13 05 26 06 10 30
  22649812.032   -18268784.543 8 -13987204.18246  22649810.932    22649815.3914
  23792554.123    -8590814.163 8  -6668418.28245  23792553.438    23792557.4684
  24755248.331    -5990322.423 8  -4372128.94245  24755248.019    24755250.3984
  22806661.591   -14869607.313 8 -11574521.76846  22806660.488    22806664.7524
  24151471.677    -6319673.369 8  -4912230.97145  24151471.275    24151475.5744
  20722258.786   -27340093.345 9 -21287565.35948  20722258.089    20722261.4144
  21122077.091   -24763882.280 9 -19046226.59347  21122075.771    21122079.6814
  21022623.011   -21680778.085 9 -16355499.93047  21022622.701    21022625.8264
 00  1 22  3 54  0.0000000  0  8 17 24 13 05 26 06 10 30
  22638295.159   -18329305.888 8 -14034363.65146  22638294.055    22638298.5164
  23806900.074    -8515425.805 8  -6609674.10445  23806899.327    23806903.3514
  24754342.596    -5995081.924 8  -4375837.63345  24754342.356    24754344.6524
  22825806.152   -14769002.154 8 -11496128.15746  22825805.064    22825809.2874
  24135291.732    -6404699.382 8  -4978484.93445  24135291.305    24135295.7104
  20714541.410   -27380648.313 9 -21319166.63248  20714540.722    20714544.0494
  21131329.853   -24715258.660 9 -19008338.05247  21131328.526    21131332.4384
  21032649.678   -21628087.582 9 -16314442.40447  21032649.370    21032652.4604
 00  1 22  3 54 30.0000000  0  8 17 24 13 05 26 06 10 30
  22626820.696   -18389604.552 8 -14081349.59846  22626819.599    22626824.0654
  23821239.494    -8440071.399 8  -6550956.39545  23821238.759    23821242.7704
  24753528.335    -5999360.842 8  -4379171.84645  24753528.049    24753530.4894
  22844988.882   -14668196.335 8 -11417578.18346  22844987.824    22844991.9834
  24119120.972    -6489677.474 7  -5044701.60145  24119120.501    24119124.9164
  20706877.680   -27420921.472 9 -21350548.31048  20706876.967    20706880.2954
  21140683.551   -24666104.602 9 -18970036.18347  21140682.210    21140686.1364
  21042773.918   -21574884.304 9 -16272985.31447  21042773.601    21042776.7054
 00  1 22  3 55  0.0000000  0  8 17 24 13 05 26 06 10 30
  22615387.687   -18449685.243 8 -14128165.70246  22615386.604    22615391.0854
  23835571.524    -8364756.158 8  -6492269.20745  23835570.798    23835574.8174
  24752808.093    -6003145.576 8  -4382120.96845  24752807.817    24752810.3394
  22864206.906   -14567204.973 8 -11338883.64046  22864205.830    22864210.0244
  24102957.338    -6574617.651 7  -5110888.70645  24102956.870    24102961.2894
  20699265.885   -27460921.731 9 -21381717.33948  20699265.187    20699268.5074
  21150134.842   -24616437.736 9 -18931334.72547  21150133.507    21150137.4234
  21052997.604   -21521158.527 9 -16231121.08047  21052997.303    21053000.4134
 00  1 22  3 55 30.0000000  0  8 17 24 13 05 26 06 10 30
  22603996.829   -18509544.580 8 -14174809.32047  22603995.739    22604000.1994
  23849893.174    -8289495.350 8  -6433624.42745  23849892.403    23849896.5894
  24752183.637    -6006427.128 8  -4384678.00245  24752183.330    24752185.7884
  22883458.351   -14466037.995 8 -11260052.24746  22883457.282    22883461.4874
  24086801.284    -6659518.162 7  -5177044.91245  24086800.785    24086805.1014
  20691702.408   -27500667.975 9 -21412688.43548  20691701.703    20691705.0214
  21159680.954   -24566272.580 9 -18892244.99047  21159679.619    21159683.5194
  21063323.247   -21466896.922 9 -16188839.31847  21063322.915    21063326.0604
 00  1 22  3 56  0.0000000  0  9 17 24 13 05 26 06 23 10 30
  22592646.904   -18569188.813 8 -14221285.32147  22592645.817    22592650.2804
  23864204.396    -8214289.359 8  -6375022.34945  23864203.576    23864207.8624
  24751651.761    -6009222.332 8  -4386856.07645  24751651.438    24751653.7774
  22902741.118   -14364706.213 8 -11181092.45046  22902740.063    22902744.2734
  24070652.334    -6744381.185 7  -5243171.90245  24070651.834    24070656.2394
  20684187.065   -27540161.269 9 -21443462.42748  20684186.396    20684189.6884
  24598757.112    -4581262.403 8  -3555159.82345  24598756.075    24598761.3024
  21169317.712   -24515631.089 9 -18852784.08047  21169316.397    21169320.2774
  21073746.945   -21412120.007 9 -16146156.02047  21073746.619    21073749.7524
 00  1 22  3 56 30.0000000  0  9 17 24 13 05 26 06 23 10 30
  22581327.038   -18628675.129 8 -14267638.27947  22581325.973    22581330.3814
  23878498.832    -8139171.673 8  -6316489.09045  23878498.030    23878502.4014
  24751201.469    -6011588.469 8  -4388699.81145  24751201.151    24751203.4534
  22922045.032   -14263263.579 8 -11102046.26046  22922043.979    22922048.1914
  24054503.228    -6829245.256 7  -5309299.71145  24054502.734    24054507.1124
  20676709.679   -27579455.240 9 -21474081.10448  20676708.992    20676712.2914
  24578569.885    -4687346.543 8  -3637822.73245  24578568.901    24578574.1934
  21179035.123   -24464565.729 9 -18812992.88347  21179033.810    21179037.7084
  21084256.184   -21356893.532 9 -16103122.41147  21084255.854    21084259.0034
 00  1 22  3 57  0.0000000  0  9 17 24 13 05 26 06 23 10 30
  22570045.876   -18687957.942 8 -14313832.65547  22570044.823    22570049.2144
  23892789.904    -8064071.549 8  -6257969.52845  23892789.207    23892793.5624
  24750846.990    -6013451.190 8  -4390151.26245  24750846.685    24750849.0394
  22941382.426   -14161644.901 8 -11022862.90246  22941381.352    22941385.5844
  24038367.960    -6914036.037 7  -5375370.41045  24038367.465    24038371.7214
  20669278.960   -27618503.818 9 -21504508.56748  20669278.286    20669281.5744
  24558405.627    -4793310.279 8  -3720391.79945  24558404.630    24558409.8984
  21188849.297   -24412991.835 9 -18772805.42947  21188847.966    21188851.8564
  21094861.474   -21301162.284 9 -16059695.47647  21094861.161    21094864.2994
 00  1 22  3 57 30.0000000  0  9 17 24 13 05 26 06 23 10 30
  22558800.410   -18747053.060 8 -14359880.77247  22558799.348    22558803.7374
  23907075.763    -7988998.943 8  -6199471.37945  23907075.026    23907079.3284
  24750585.706    -6014824.103 8  -4391221.06045  24750585.466    24750587.7854
  22960752.043   -14059856.817 8 -10943547.53846  22960750.982    22960755.2444
  24022245.061    -6998762.393 7  -5441390.91845  24022244.516    24022248.8984
  20661893.901   -27657312.534 9 -21534749.12248  20661893.219    20661896.5144
  24538258.025    -4899186.569 8  -3802892.75545  24538256.879    24538262.2494
  21198760.951   -24360905.725 9 -18732218.84447  21198759.624    21198763.5264
  21105558.340   -21244950.035 9 -16015893.73047  21105558.026    21105561.1704
 00  1 22  3 58  0.0000000  0  9 17 24 13 05 26 06 23 10 30
  22547586.319   -18805983.613 8 -14405800.66647  22547585.261    22547589.6264
  23921359.129    -7913939.431 8  -6140983.46745  23921358.428    23921362.5914
  24750417.597    -6015707.537 8  -4391909.44645  24750417.383    24750419.5474
  22980156.065   -13957888.074 8 -10864091.39846  22980155.020    22980159.2474
  24006135.522    -7083418.360 7  -5507356.55945  24006134.989    24006139.4014
  20654559.003   -27695857.646 9 -21564784.27748  20654558.337    20654561.6324
  24518122.420    -5004999.741 8  -3885344.55045  24518121.387    24518126.6194
  21208771.295   -24308300.973 9 -18691228.12447  21208769.964    21208773.8584
  21116346.416   -21188258.516 9 -15971718.53047  21116346.098    21116349.2104
 00  1 22  3 58 30.0000000  0  9 17 24 13 05 26 06 23 10 30
  22536404.722   -18864743.349 8 -14451587.44847  22536403.652    22536408.0394
  23935641.103    -7838887.371 8  -6082501.34545  23935640.421    23935644.5004
  24750347.547    -6016075.759 8  -4392196.33545  24750347.311    24750349.4404
  22999593.004   -13855746.426 8 -10784500.52746  22999591.964    22999596.2024
  23990041.388    -7167993.743 7  -5573259.42945  23990040.850    23990045.2554
  20647277.182   -27734124.010 9 -21594602.22048  20647276.508    20647279.8064
  24497998.577    -5110751.098 7  -3967748.16345  24497997.470    24498002.6484
  21218883.633   -24255160.255 9 -18649819.76947  21218882.293    21218886.2084
  21127229.456   -21131067.733 9 -15927154.29147  21127229.154    21127232.2544
 00  1 22  3 59  0.0000000  0  9 17 24 13 05 26 06 23 10 30
  22525260.237   -18923307.880 8 -14497222.12347  22525259.157    22525263.5504
  23949921.155    -7763844.984 8  -6024026.76845  23949920.446    23949924.5284
  24750377.662    -6015917.645 8  -4392073.14345  24750377.381    24750379.5654
  23019060.718   -13753443.084 8 -10704783.66646  23019059.686    23019063.9304
  23973961.569    -7252493.310 7  -5639103.19545  23973961.052    23973965.5724
  20640053.782   -27772083.195 9 -21624180.80548  20640053.089    20640056.4024
  24477887.468    -5216435.140 7  -4050099.28645  24477886.322    24477891.6754
  21229098.436   -24201481.056 9 -18607991.82147  21229097.112    21229101.0064
  21138208.573   -21073372.104 9 -15882196.67147  21138208.263    21138211.3974
 00  1 22  3 59 30.0000000  0  9 17 24 13 05 26 06 23 10 30
  22514156.341   -18981659.233 8 -14542690.69347  22514155.265    22514159.6214
  23964198.211    -7688818.616 8  -5965564.64945  23964197.531    23964201.6164
  24750503.732    -6015255.003 8  -4391556.77945  24750503.403    24750505.6644
  23038558.746   -13650980.398 8 -10624942.63546  23038557.698    23038561.9274
  23957896.396    -7336916.232 7  -5704887.24045  23957895.834    23957900.4254
  20632894.414   -27809705.670 9 -21653497.01648  20632893.735    20632897.0704
  24457791.527    -5322039.651 8  -4132388.43645  24457790.534    24457795.7964
  21239412.108   -24147282.214 9 -18565758.95147  21239410.792    21239414.6944
  21149282.628   -21015177.608 9 -15836850.32147  21149282.317    21149285.4624
 00  1 22  4  0  0.0000000  0  9 17 24 13 05 26 06 23 10 30
  22503094.384   -19039790.108 8 -14587987.45847  22503093.303    22503097.6624
  23978473.328    -7613802.337 8  -5907110.41845  23978472.669    23978476.7634
  24750725.011    -6014092.374 8  -4390650.83445  24750724.620    24750726.8574
  23058087.282   -13548357.543 8 -10544976.81746  23058086.249    23058090.4404
  23941846.779    -7421257.107 7  -5770607.35145  23941846.245    23941850.7324
  20625799.371   -27846990.547 9 -21682550.16848  20625798.677    20625802.0064
  24437714.534    -5427544.529 7  -4214599.96545  24437713.513    24437718.9014
  21249823.140   -24092572.049 9 -18523127.65547  21249821.814    21249825.7264
  21160450.428   -20956490.464 9 -15791120.09447  21160450.105    21160453.2554
 00  1 22  4  0 30.0000000  0  9 17 24 13 05 26 06 23 10 30
  22492077.547   -19097683.874 8 -14633099.46747  22492076.470    22492080.8314
  23992742.427    -7538817.656 8  -5848680.79145  23992741.799    23992745.9594
  24751040.421    -6012434.831 8  -4389359.21945  24751040.071    24751042.2574
  23077641.783   -13445598.013 8 -10464904.48546  23077640.771    23077644.9374
  23925810.940    -7505525.829 7  -5836271.24345  23925810.456    23925814.9534
  20618763.806   -27883962.642 9 -21711359.58948  20618763.107    20618766.4314
  24417658.837    -5532937.883 7  -4296724.59745  24417657.677    24417663.0284
  21260329.761   -24037359.365 9 -18480104.78147  21260328.441    21260332.3334
  21171708.919   -20897326.755 9 -15745018.51247  21171708.591    21171711.7614
 00  1 22  4  1  0.0000000  0  9 17 24 13 05 26 06 23 10 30
  22481103.981   -19155350.148 8 -14678034.20547  22481102.897    22481107.2264
  24007001.917    -7463883.677 8  -5790290.67945  24007001.249    24007005.3624
  24751446.426    -6010300.980 8  -4387696.48245  24751446.081    24751448.3024
  23097222.231   -13342702.306 8 -10384726.03146  23097221.197    23097225.3724
  23909788.493    -7589724.190 7  -5901880.31045  23909787.929    23909792.4984
  20611783.607   -27920643.968 9 -21739942.44048  20611782.909    20611786.2384
  24397625.425    -5638213.481 7  -4378757.42945  24397624.286    24397629.6894
  21270929.029   -23981659.845 9 -18436702.55447  21270927.693    21270931.5854
  21183056.430   -20837695.172 9 -15698552.35247  21183056.106    21183059.2814
 00  1 22  4  1 30.0000000  0  9 17 24 13 05 26 06 23 10 30
  22470169.994   -19212808.526 8 -14722806.94747  22470168.916    22470173.2344
  24021251.685    -7389000.827 8  -5731940.41645  24021250.984    24021255.0754
  24751943.292    -6007689.570 8  -4385661.60945  24751942.967    24751945.1694
  23116830.960   -13239657.798 8 -10304431.65046  23116829.912    23116834.1254
  23893781.004    -7673843.870 7  -5967428.07345  23893780.470    23893784.9654
  20604854.587   -27957056.216 9 -21768315.62248  20604853.877    20604857.1984
  24377613.850    -5743374.873 7  -4460701.31345  24377612.720    24377618.0884
  21281619.648   -23925480.359 9 -18392926.33447  21281618.332    21281622.1854
  21194495.263   -20777583.544 9 -15651712.13347  21194494.946    21194498.1334
 00  1 22  4  2  0.0000000  0  9 17 24 13 05 26 06 23 10 30
  22459273.417   -19270070.251 8 -14767426.45347  22459272.359    22459276.6854
  24035491.886    -7314168.060 8  -5673629.17245  24035491.106    24035495.2444
  24752536.851    -6004570.351 8  -4383231.03545  24752536.576    24752538.7724
  23136465.069   -13136480.084 8 -10224033.45146  23136464.039    23136468.2774
  23877787.934    -7757887.518 8  -6032916.58345  23877787.482    23877791.8884
  20597973.952   -27993214.140 9 -21796490.62648  20597973.250    20597976.5734
  24357624.199    -5848420.857 7  -4542555.21845  24357623.029    24357628.4934
  21292403.457   -23868811.245 9 -18348768.58247  21292402.127    21292405.9954
  21206028.128   -20716978.017 9 -15604487.05447  21206027.822    21206031.0084
 00  1 22  4  2 30.0000000  0  9 17 24 13 05 26 06 23 10 30
  22448413.490   -19327139.492 8 -14811895.97347  22448412.418    22448416.7334
  24049723.274    -7239381.678 8  -5615354.07845  24049722.463    24049726.6624
  24753227.049    -6000943.439 8  -4380404.85345  24753226.748    24753228.9974
  23156122.240   -13033181.029 8 -10143540.70546  23156121.210    23156125.4564
  23861810.452    -7841849.558 8  -6098341.50545  23861809.973    23861814.3704
  20591142.119   -28029115.710 9 -21824465.87648  20591141.419    20591144.7354
  24337657.878    -5953344.079 7  -4624313.48045  24337656.662    24337662.2454
  21303278.770   -23811661.041 9 -18304235.95347  21303277.438    21303281.3164
  21217654.967   -20655878.758 9 -15556877.25347  21217654.633    21217657.8224
 00  1 22  4  3  0.0000000  0  9 17 24 13 05 26 06 23 10 30
  22437588.029   -19384027.523 8 -14856224.29447  22437586.972    22437591.2944
  24063950.818    -7164614.935 8  -5557094.28745  24063950.094    24063954.2954
  24754013.686    -5996809.872 8  -4377183.88345  24754013.374    24754015.5094
  23175805.464   -12929745.326 8 -10062941.48846  23175804.464    23175808.6644
  23845850.950    -7925717.236 8  -6163692.89545  23845850.422    23845854.8534
  20584362.086   -28064744.944 9 -21852228.91348  20584361.393    20584364.7244
  24317715.096    -6058143.593 7  -4705975.36845  24317713.977    24317719.5044
  21314244.781   -23754034.367 9 -18259332.05347  21314243.466    21314247.2964
  21229376.802   -20594280.225 9 -15508878.40647  21229376.458    21229379.6354
 00  1 22  4  3 30.0000000  0  9 17 24 13 05 26 06 23 10 30
  22426794.866   -19440745.909 8 -14900420.41947  22426793.803    22426798.1044
  24078176.485    -7089858.599 8  -5498842.59845  24078175.806    24078179.9894
  24754895.925    -5992173.654 8  -4373571.22345  24754895.602    24754897.6544
  23195513.776   -12826177.645 8  -9982239.42046  23195512.771    23195516.9554
  23829908.184    -8009496.824 8  -6228975.66445  23829907.698    23829912.0604
  20577635.854   -28100091.571 9 -21879771.73748  20577635.170    20577638.5164
  24297795.060    -6162824.304 7  -4787544.71745  24297793.977    24297799.4024
  21325299.736   -23695940.301 9 -18214063.95347  21325298.413    21325302.2484
  21241190.248   -20532200.299 9 -15460504.45247  21241189.930    21241193.0824
